[[[{"header":{"parameterUnit":"kt","parameterCategory":2,"dx":1,"dy":1,"la1":29.285339999999998,"la2":30.599998999999997,"lo1":-89.70041500000002,"lo2":-87.6738589999976,"nx":112,"ny":82,"refTime":"2022-10-05T00:00:00:Z","depth":0,"parameterNumber":1,"parameterNumberName":"U-component_of_WINDS"},"data":[-2.4807,-2.5582,0.0,-1.8212,-1.7225,0.0,-1.1158,0.0,0.0,0.0,0.0,0.0,0.0,0.0,0.0,0.0,0.0,0.0,0.0,0.0,0.0,0.0,0.0,0.0,0.0,0.0,0.0,0.0,0.0,0.0,0.0,0.0,-1.6381,-1.3908,-0.6943,-0.2469,-0.0682,0.6834,1.0397,0.9992,1.3494,1.5335,1.563,1.8938,2.0821,2.1732,2.5173,2.6518,2.6324,2.7072,2.7451,2.7639,2.8379,2.8527,2.8521,2.9424,3.017,3.0841,3.152,3.2045,3.2535,3.3031,3.3589,3.4117,3.462,3.4992,3.5272,3.5427,3.5541,3.5581,3.5581,3.5986,3.671,3.7741,3.8394,3.9082,4.0154,3.8908,3.7655,3.7575,3.6954,3.6317,3.5913,3.6592,3.7097,3.6766,3.6732,3.6662,3.6557,3.6522,3.6414,3.6235,3.69,3.7501,3.7903,3.8164,3.8282,3.8344,3.8369,3.832,3.8231,3.8293,3.863,3.9178,3.863,3.8645,3.9165,3.8645,3.8354,3.8354,3.8354,3.8474,0.0,0.0,-2.3258,-1.6654,0.0,0.0,0.0,0.0,0.0,0.0,0.0,0.0,0.0,0.0,0.0,0.0,0.0,0.0,0.0,0.0,0.0,0.0,0.0,0.0,0.0,0.0,0.0,0.0,0.0,0.0,0.0,-2.4221,-2.265,-1.9726,-1.5786,-1.2353,-0.9713,-0.2456,0.1401,0.1913,0.5092,0.6976,0.7777,1.1208,1.3436,1.4795,1.8722,2.207,2.472,2.5415,2.699,2.9113,2.9827,2.96,2.9071,3.0776,3.1848,3.2418,3.2575,3.2989,3.3586,3.4052,3.4573,3.5111,3.5659,3.6023,3.6202,3.6311,3.6345,3.6271,3.6198,3.6235,3.6549,3.7547,3.7792,3.8106,3.9024,3.7723,3.638,3.634,3.6195,3.6161,3.6342,3.7193,3.7743,3.7322,3.726,3.726,3.726,3.726,3.7224,3.7047,3.785,3.8453,3.8547,3.8584,3.863,3.8631,3.8631,3.8565,3.8427,3.8487,3.8477,3.8356,3.8537,3.8607,3.862,3.8682,3.8668,3.8601,3.8711,3.8919,0.0,0.0,0.0,-1.3966,0.0,0.0,0.0,0.0,-1.2507,0.0,0.0,0.0,0.0,0.0,0.0,0.0,0.0,0.0,0.0,0.0,0.0,0.0,0.0,0.0,0.0,0.0,0.0,0.0,0.0,0.0,-2.6113,-2.7344,-2.6499,-2.3541,-2.3922,-2.2965,-2.0344,-1.2983,-0.8264,-0.6208,0.2128,0.6909,0.8559,0.9093,0.8831,0.791,0.8802,1.3069,1.9444,2.0202,2.4411,3.0553,3.119,3.0964,3.0555,3.2879,3.3622,3.3512,3.3419,3.4152,3.5282,3.5709,3.5961,3.6314,3.6906,3.6977,3.6856,3.7079,3.7051,3.6929,3.6661,3.6763,3.6929,3.6799,3.6865,3.6898,3.6627,3.6798,3.6896,3.6662,3.6935,3.7196,3.7196,3.738,3.7555,3.7555,3.7555,3.7555,3.7548,3.7584,3.7956,3.8993,3.9104,3.9104,3.9104,3.897,3.8906,3.8893,3.8893,3.8816,3.8717,3.8717,3.8753,3.8864,3.889,3.889,3.8864,3.8993,3.9026,3.8901,3.9164,3.9369,-1.8543,0.0,0.0,0.0,0.0,0.0,0.0,0.0,0.0,0.0,0.0,0.0,0.0,0.0,0.0,0.0,0.0,0.0,0.0,0.0,0.0,0.0,0.0,0.0,0.0,0.0,0.0,0.0,0.0,0.0,-2.9415,-2.9489,-2.8373,-2.6387,-2.6407,-2.5185,-2.2482,-2.0409,-1.8074,-1.5643,-1.1724,-0.9244,-0.7937,-0.1253,0.1787,0.213,0.7387,1.4284,2.1815,2.1926,2.6625,3.3877,3.3936,3.4036,3.417,3.4982,3.527,3.5341,3.5759,3.6104,3.6342,3.6544,3.6715,3.6885,3.7197,3.7463,3.7732,3.7676,3.7684,3.7599,3.743,3.737,3.7405,3.7567,3.7471,3.74,3.7535,3.7732,3.7954,3.8064,3.8574,3.8974,3.8974,3.855,3.8205,3.8205,3.8205,3.844,3.8974,3.9012,3.903,3.9314,3.9367,3.9362,3.9348,3.9223,3.9175,3.9193,3.9264,3.9212,3.8974,3.8973,3.8933,3.8877,3.8955,3.903,3.9011,3.9067,3.9048,3.9012,3.9563,3.9768,0.0,0.0,0.0,0.0,0.0,0.0,-1.4656,0.0,-1.4682,0.0,0.0,0.0,0.0,0.0,0.0,0.0,0.0,0.0,0.0,0.0,0.0,0.0,0.0,0.0,0.0,0.0,0.0,0.0,0.0,-2.851,-3.1667,-3.1611,-3.055,-2.8572,-2.8572,-2.7478,-2.5017,-2.4755,-2.3239,-2.0552,-1.8731,-1.7159,-1.5744,-0.9487,-0.6524,-0.6024,-0.093,0.5964,1.3892,1.766,2.3793,3.0802,3.1237,3.3717,3.7048,3.7228,3.7318,3.7371,3.7552,3.766,3.7708,3.7488,3.7588,3.791,3.8126,3.8354,3.851,3.8506,3.8424,3.8354,3.8149,3.8086,3.8122,3.821,3.8111,3.8136,3.8569,3.8548,3.859,3.9023,3.9265,3.943,3.9539,3.9049,3.8652,3.8704,3.8816,3.9083,3.965,3.9563,3.9481,3.9537,3.955,3.9513,3.9462,3.9392,3.9363,3.9326,3.9481,3.9438,3.9223,3.9175,3.9122,3.903,3.9175,3.921,3.921,3.9333,3.9359,3.9338,3.9748,3.9946,0.0,0.0,0.0,0.0,-1.6413,0.0,0.0,0.0,0.0,0.0,0.0,0.0,0.0,0.0,0.0,0.0,0.0,0.0,0.0,0.0,0.0,0.0,0.0,0.0,0.0,0.0,0.0,-3.5105,-3.1993,-3.0953,-3.3232,-3.3732,-3.2874,-3.055,-3.0597,-2.9822,-2.7837,-2.7158,-2.54,-2.2499,-2.1248,-1.9617,-1.7627,-1.531,-1.4245,-1.4002,-1.1727,-0.6303,0.1556,0.9674,1.7647,2.4807,2.5013,2.9648,3.6241,3.7292,3.7729,3.7899,3.8389,3.8799,3.8993,3.8396,3.8499,3.8993,3.9314,3.925,3.9141,3.9247,3.9193,3.9012,3.8805,3.8823,3.8899,3.8789,3.877,3.8956,3.9537,3.9223,3.8938,3.955,3.9393,3.9172,3.9383,3.9155,3.899,3.9083,3.9311,3.9539,3.9759,3.9636,3.9551,3.969,3.9653,3.9609,3.9501,3.9501,3.9464,3.9476,3.9589,3.9626,3.9501,3.9392,3.9318,3.9271,3.9408,3.9475,3.949,3.9707,3.9788,3.9686,3.9802,3.985,0.0,0.0,0.0,0.0,0.0,-1.7129,0.0,0.0,0.0,0.0,0.0,0.0,0.0,0.0,0.0,0.0,0.0,0.0,0.0,0.0,0.0,0.0,0.0,0.0,0.0,0.0,-3.7418,-3.7336,-3.5641,-3.4902,-3.5375,-3.5505,-3.5041,-3.3895,-3.3334,-3.2169,-3.0371,-2.969,-2.7612,-2.4461,-2.3427,-2.1401,-1.8695,-1.5945,-1.4299,-1.3677,-1.2142,-0.6831,0.0791,0.2555,1.2042,2.4935,1.9366,1.7596,1.9104,2.6365,2.9014,3.0022,3.6643,3.9067,3.9172,3.8956,3.9048,3.9185,3.9138,3.9281,3.9362,3.9281,3.9223,3.918,3.9023,3.909,3.9221,3.9288,3.9376,3.95,3.9626,3.955,3.9499,3.9624,3.9598,3.9474,3.9206,3.9161,3.9233,3.9363,3.941,3.947,3.954,3.9663,3.978,3.9823,3.973,3.9645,3.9624,3.9613,3.9613,3.9613,3.9635,3.968,3.9792,3.9748,3.9655,3.942,3.9437,3.9526,3.9635,3.9674,3.979,3.9973,3.997,4.0006,0.0,0.0,0.0,-1.553,0.0,0.0,0.0,0.0,0.0,0.0,0.0,0.0,0.0,0.0,0.0,0.0,0.0,0.0,0.0,0.0,0.0,0.0,0.0,0.0,0.0,0.0,-3.9548,-3.8915,-3.8337,-3.7735,-3.6944,-3.7017,-3.6696,-3.5844,-3.5168,-3.434,-3.3528,-3.1905,-2.9826,-2.7211,-2.5406,-2.3345,-2.0931,-1.884,-1.7325,-1.6358,-1.4527,-1.1201,-0.6782,-0.1242,0.5444,1.1835,0.8897,0.9991,1.4284,2.3248,2.6596,2.7887,3.6048,3.9067,3.933,3.9189,3.9249,3.9383,3.934,3.9472,3.9526,3.9472,3.9464,3.9443,3.9459,3.9464,3.9514,3.9627,3.9674,3.9674,3.9721,3.9636,3.9577,3.9563,3.9602,3.9588,3.9424,3.9349,3.9414,3.9551,3.9508,3.9496,3.9651,3.9703,3.9765,3.9848,3.9792,3.9767,3.9742,3.9754,3.9767,3.9748,3.9762,3.9807,3.9864,3.9854,3.9779,3.9636,3.9696,3.978,3.984,3.9779,3.9825,3.9932,3.9936,3.9985,0.0,0.0,0.0,0.0,0.0,0.0,-1.9914,-2.0203,0.0,0.0,0.0,0.0,0.0,0.0,0.0,0.0,0.0,0.0,0.0,0.0,0.0,0.0,0.0,0.0,0.0,0.0,-4.0802,-4.0331,-4.0489,-3.9946,-3.8651,-3.8651,-3.8377,-3.7649,-3.6888,-3.6567,-3.6545,-3.4313,-3.2086,-2.9892,-2.7799,-2.5548,-2.3253,-2.2122,-2.0837,-1.948,-1.7342,-1.6042,-1.472,-0.5605,-0.293,-0.4474,-0.2859,0.1945,0.9147,1.984,2.4028,2.5735,3.5376,3.903,3.943,3.9302,3.9355,3.9527,3.9609,3.968,3.9701,3.9711,3.9697,3.9708,3.9843,3.9762,3.9708,3.9822,3.9779,3.9734,3.9855,3.9692,3.9556,3.954,3.9608,3.9702,3.9702,3.9615,3.9588,3.9674,3.9598,3.9598,3.9826,3.9752,3.9734,3.9817,3.9868,3.9852,3.9868,3.9821,3.9826,3.9821,3.9825,3.981,3.9805,3.9816,3.9816,3.9817,3.9902,3.9978,4.0057,3.988,3.9817,3.9843,3.986,3.9918,-1.8149,-1.7759,-1.7881,0.0,0.0,0.0,-2.826,-2.9955,0.0,0.0,0.0,0.0,0.0,0.0,0.0,0.0,0.0,0.0,0.0,0.0,0.0,0.0,0.0,0.0,0.0,0.0,-4.2527,-4.212,-4.2203,-4.1856,-4.0895,-4.0833,-4.0616,-4.0068,-3.9162,-3.8737,-3.8707,-3.7207,-3.497,-3.2102,-3.1224,-2.8681,-2.4603,-2.3831,-2.2463,-2.071,-1.9537,-1.819,-1.6735,-1.4634,-1.4861,-1.6066,-1.318,-1.1642,-0.9067,0.8014,1.4855,1.7806,3.3455,3.914,3.943,3.9302,3.9444,3.9638,3.9653,3.9718,3.983,3.983,3.9816,3.9822,3.9864,3.984,3.9817,3.9843,3.9816,3.9871,3.9978,4.0016,3.9943,3.981,3.9802,3.983,3.9843,3.9805,3.9799,3.9833,3.9822,3.9822,3.984,3.9836,3.9833,3.9843,3.9862,3.9864,3.985,3.975,3.9668,3.9669,3.9685,3.9658,3.9681,3.9665,3.9659,3.9666,3.9676,3.9823,4.0049,3.9768,3.9728,3.9861,3.9863,3.9863,-1.7307,-1.7533,-1.7966,0.0,0.0,0.0,0.0,-2.9972,0.0,0.0,0.0,0.0,0.0,0.0,0.0,0.0,0.0,0.0,0.0,0.0,0.0,0.0,0.0,0.0,0.0,0.0,0.0,-4.3626,-4.3641,-4.3504,-4.33,-4.282,-4.2389,-4.1914,-4.1135,-4.0951,-4.1343,-3.9607,-3.799,-3.6414,-3.499,-3.2441,-2.894,-2.8223,-2.6509,-2.4013,-2.2727,-2.1381,-2.011,-2.0597,-2.0292,-1.9311,-1.7319,-1.6421,-1.3936,0.4984,0.9245,0.8744,3.1027,3.577,3.2799,3.7748,3.9499,3.9662,3.9658,3.9756,3.9811,3.9748,3.9784,3.9864,3.9854,3.9854,3.9862,3.9862,3.9862,3.9901,4.0012,3.9972,3.9897,3.9864,3.9864,3.9858,3.9845,3.985,3.9858,3.9862,3.9852,3.9845,3.9854,3.9852,3.9818,3.975,3.9814,3.9822,3.9746,3.9703,3.9653,3.9641,3.9521,3.9447,3.955,3.9313,3.9187,3.9219,3.9577,3.9786,3.9824,3.955,3.943,3.94,3.95,3.95,-1.7253,0.0,0.0,0.0,0.0,0.0,0.0,0.0,0.0,0.0,0.0,0.0,0.0,0.0,0.0,0.0,0.0,0.0,0.0,0.0,0.0,0.0,0.0,0.0,0.0,0.0,0.0,0.0,-4.4856,-4.4949,-4.5233,-4.4578,-4.3997,-4.3523,-4.3036,-4.3036,-4.3471,-4.188,-4.0692,-3.9902,-3.8114,-3.5662,-3.269,-3.1927,-3.0076,-2.7323,-2.5987,-2.5217,-2.5046,-2.5658,-2.458,-2.2246,-2.059,-1.9423,-1.6651,0.0121,0.2955,0.1443,2.2712,2.8228,2.692,3.317,3.7162,3.9527,3.9621,3.971,3.9773,3.9733,3.9785,3.9848,3.9826,3.9773,3.9817,3.9856,3.9833,3.9874,3.9966,4.0187,4.0243,3.9767,3.975,3.9774,3.9748,3.9786,3.9782,3.9731,3.9747,3.975,3.9745,3.9748,3.9704,3.961,3.9685,3.9726,3.9631,3.9545,3.9496,3.9511,3.9271,3.9206,3.9302,3.904,3.8812,3.8657,3.9168,3.9495,3.9516,3.9269,3.9058,3.89,3.8969,3.8982,0.0,0.0,0.0,-2.6914,0.0,0.0,-3.9689,0.0,0.0,0.0,0.0,0.0,0.0,0.0,0.0,0.0,0.0,0.0,0.0,0.0,0.0,0.0,0.0,0.0,0.0,0.0,0.0,0.0,0.0,-4.6213,-4.657,-4.6096,-4.5523,-4.4892,-4.4811,-4.4811,-4.4846,-4.417,-4.3038,-4.1533,-4.0158,-3.7902,-3.4838,-3.3845,-3.2264,-3.0346,-2.9141,-2.988,-3.1854,-3.0237,-2.8722,-2.7082,-2.4263,-2.2294,-1.9853,-0.9909,-0.5358,-0.2972,0.5566,1.5316,2.4052,2.4427,3.1124,3.9153,3.955,3.9651,3.9697,3.981,3.9864,3.983,3.971,3.9667,3.9697,3.9803,3.9849,3.9838,3.9836,4.0821,4.1262,3.9588,3.9496,3.9598,3.9511,3.957,3.9621,3.9485,3.9493,3.9493,3.9493,3.9493,3.9474,3.9451,3.9464,3.95,3.9459,3.9205,3.9073,3.9073,3.8937,3.8899,3.8899,3.8862,3.8622,3.814,3.84,3.8789,3.929,3.901,3.8754,3.8525,3.8367,3.8314,-2.2859,-2.412,-2.569,-3.0643,-3.4201,-3.7284,-4.0332,0.0,0.0,0.0,0.0,0.0,0.0,0.0,0.0,0.0,0.0,0.0,0.0,0.0,0.0,0.0,0.0,0.0,0.0,0.0,0.0,0.0,0.0,0.0,-4.779,-4.7061,-4.6625,-4.6593,-4.6239,-4.6061,-4.6061,-4.5497,-4.4956,-4.4462,-4.3571,-4.1898,-3.9604,-3.8028,-3.6223,-3.4277,-3.2442,-3.2338,-3.3541,-3.293,-3.1483,-2.9588,-2.8495,-2.6996,-2.4116,-1.3165,-1.1989,-1.3668,0.1708,0.6465,0.7651,1.9385,2.612,3.0832,3.721,3.9335,3.9571,3.9656,3.9647,3.9629,3.9833,3.9504,3.9475,4.0844,4.2006,4.2532,4.1514,4.1416,4.1345,4.069,3.9782,3.9209,3.9401,3.9209,3.9064,3.9201,3.9049,3.8957,3.906,3.9073,3.9041,3.8969,3.9031,3.8994,3.8862,3.8808,3.8657,3.8315,3.8244,3.8174,3.7966,3.7795,3.766,3.7577,3.7305,3.7146,3.706,3.7058,3.7205,3.744,3.7047,3.6928,-2.4996,-2.6738,-2.8649,-3.475,-3.8964,-4.188,-4.2899,-4.5492,0.0,0.0,0.0,0.0,0.0,0.0,0.0,0.0,0.0,0.0,0.0,0.0,0.0,0.0,0.0,0.0,0.0,0.0,0.0,0.0,0.0,0.0,-4.8405,-4.7845,-4.7593,-4.7785,-4.744,-4.7273,-4.7273,-4.6881,-4.6583,-4.6432,-4.5719,-4.4515,-4.2888,-4.0727,-3.8937,-3.7461,-3.6214,-3.6012,-3.6453,-3.5617,-3.4232,-3.2609,-3.2077,-3.0868,-2.856,-2.0958,-2.093,-2.2861,-1.0019,-0.5841,-0.3593,1.2179,2.0339,2.5855,3.5976,3.9175,3.9447,3.9656,3.9632,3.957,3.9779,3.9802,4.0107,4.1352,4.2877,4.3846,4.3156,4.2806,4.2404,4.1751,4.0424,3.9397,3.9251,3.8438,3.7705,3.749,3.7252,3.7117,3.7203,3.7227,3.7421,3.7809,3.7723,3.7759,3.8064,3.7834,3.7584,3.7233,3.6954,3.674,3.6542,3.6175,3.5967,3.6055,3.5749,3.5237,3.4567,3.504,3.5612,3.6251,3.5799,3.5556,-2.5567,-2.8318,-3.1624,-3.9454,-4.2698,-4.4684,0.0,0.0,0.0,0.0,0.0,0.0,0.0,0.0,0.0,0.0,0.0,0.0,0.0,0.0,0.0,0.0,0.0,0.0,0.0,0.0,0.0,0.0,0.0,-4.8321,-4.8446,-4.8446,-4.8446,-4.8446,-4.842,-4.842,-4.842,-4.8159,-4.7857,-4.7498,-4.6701,-4.5878,-4.4792,-4.2136,-4.0587,-4.0072,-4.0443,-4.0658,-4.0473,-3.8318,-3.6925,-3.6113,-3.4893,-3.3878,-3.2984,-3.2572,-3.1409,-2.9926,-2.8466,-2.0957,-1.002,0.2352,1.2835,2.2798,3.4652,3.8307,3.8617,3.9511,3.9685,3.9583,3.9526,4.0391,4.1348,4.1573,4.2615,4.3862,4.4815,4.4725,4.4023,4.245,4.108,3.9885,3.8962,3.7235,3.5672,3.4622,3.4209,3.3951,3.3839,3.3924,3.449,3.5747,3.5343,3.5481,3.6729,3.6064,3.5617,3.5582,3.4978,3.4607,3.464,3.4059,3.3753,3.3732,3.3545,3.2922,3.1899,3.2937,3.3912,3.4764,3.4523,3.4108,-3.1409,-3.5797,-3.9403,-4.5187,-4.7042,-4.7558,-4.8288,0.0,-4.8381,0.0,0.0,0.0,0.0,0.0,0.0,0.0,0.0,0.0,0.0,0.0,0.0,0.0,0.0,0.0,0.0,0.0,0.0,0.0,0.0,-4.9248,-4.9273,-4.9085,-4.8997,-4.8997,-4.879,-4.8672,-4.8672,-4.8609,-4.8514,-4.8312,-4.8084,-4.783,-4.7389,-4.5328,-4.4647,-4.5079,-4.3858,-4.2537,-4.1187,-4.0882,-3.9457,-3.7434,-3.73,-3.6552,-3.5341,-3.4255,-3.3359,-3.2414,-3.0733,-2.7918,-2.3446,-1.3035,-0.6499,0.0661,1.8825,2.5544,2.8608,3.659,3.8819,3.8988,3.9828,4.0071,4.0772,4.3489,4.4277,4.4821,4.6322,4.3884,4.091,3.9486,3.7993,3.7036,3.722,3.5859,3.4235,3.2798,3.16,3.0359,2.9059,2.8898,2.9149,2.9781,2.9665,2.9745,3.007,3.0773,3.1052,3.0758,3.1631,3.2293,3.2624,3.2561,3.253,3.2529,2.9841,2.872,2.9291,3.0296,3.1227,3.2087,3.1536,3.146,-3.139,-3.7014,-4.2294,-4.7337,-4.8615,-4.8615,-4.8615,-4.8631,-4.8633,0.0,0.0,0.0,0.0,0.0,0.0,0.0,0.0,0.0,0.0,0.0,0.0,0.0,0.0,0.0,0.0,0.0,0.0,0.0,0.0,-4.9582,-4.9574,-4.9415,-4.9337,-4.9337,-4.9228,-4.9145,-4.9145,-4.9145,-4.9064,-4.8867,-4.873,-4.8705,-4.8684,-4.6903,-4.6904,-4.8114,-4.6303,-4.4914,-4.387,-4.2534,-4.1112,-3.9617,-3.9038,-3.8324,-3.7564,-3.687,-3.6258,-3.5498,-3.3784,-3.2706,-3.0306,-1.9575,-1.4822,-0.9298,1.2343,1.9914,2.3556,3.5673,3.8085,3.7396,3.8978,3.8642,3.8588,4.1164,4.2071,4.2268,4.1704,3.8824,3.6339,3.6434,3.4545,3.2802,3.2576,3.1119,2.9587,2.8457,2.6644,2.5307,2.4982,2.4383,2.4944,2.7329,2.4639,2.3585,2.5872,2.5656,2.5259,2.5034,2.6743,2.7817,2.801,2.8236,2.8778,2.9646,2.6735,2.5761,2.6787,2.7891,2.8846,2.9653,2.9283,2.9371,-3.015,-3.6027,-4.2695,-4.741,-4.8615,-4.8605,-4.8605,-4.8756,-4.8848,0.0,0.0,0.0,0.0,0.0,0.0,0.0,0.0,0.0,0.0,0.0,0.0,0.0,0.0,0.0,0.0,0.0,0.0,0.0,0.0,0.0,-4.9579,-4.959,-4.9584,-4.9584,-4.9584,-4.9584,-4.9584,-4.9584,-4.9495,-4.9289,-4.9032,-4.9038,-4.9168,-4.7729,-4.8043,-4.9657,-4.8107,-4.7327,-4.7007,-4.3947,-4.2405,-4.1847,-4.0389,-3.9587,-3.9257,-3.9371,-3.9029,-3.8345,-3.6863,-3.6031,-3.3851,-2.3028,-1.918,-1.4756,0.7098,1.4125,1.7459,3.1217,3.3548,3.2403,3.4326,3.4178,3.3932,3.5619,3.5872,3.5089,3.2814,3.074,2.9912,3.2266,2.9909,2.7188,2.6466,2.4946,2.3474,2.2034,1.977,1.8793,2.0211,1.8996,1.9597,2.399,1.8425,1.6496,2.132,2.0296,1.9301,1.9124,2.1056,2.2402,2.2967,2.3147,2.385,2.5233,2.3624,2.3054,2.3647,2.5071,2.609,2.6784,2.6784,2.7064,-3.7575,-4.1185,-4.4132,-4.7705,-4.8681,-4.8744,-4.8744,-4.8834,-4.897,-4.9092,0.0,0.0,0.0,0.0,0.0,0.0,0.0,0.0,0.0,0.0,0.0,0.0,0.0,0.0,0.0,0.0,0.0,0.0,0.0,0.0,-4.9727,-4.9731,-4.9732,-4.9732,-4.9732,-4.9732,-4.9732,-4.9732,-4.9773,-4.9835,-4.9678,-4.9582,-4.9477,-4.9332,-4.9429,-4.9725,-4.9449,-4.8525,-4.7189,-4.6568,-4.4624,-4.197,-4.1657,-4.0622,-3.9249,-3.9055,-3.8989,-3.879,-3.7672,-3.8453,-3.9294,-3.5254,-3.3868,-3.0909,-1.5602,-0.937,-0.5038,0.6892,1.2678,1.5491,1.6597,1.933,2.2887,2.7143,2.2093,1.7282,2.0814,1.9966,1.9661,2.3403,2.108,1.9169,2.1222,2.123,1.8915,1.2706,1.0863,1.0206,1.0146,0.7878,0.6648,0.7846,0.6109,0.6208,0.9373,1.3416,1.5424,1.4421,1.613,1.8755,2.217,2.1041,1.9662,1.8114,1.8709,1.8796,1.8293,1.9512,2.0485,2.1381,2.1667,2.2538,-3.6843,-4.055,-4.4129,-4.5842,-4.7586,-4.8879,-4.8879,-4.897,-4.9408,-5.0547,-5.0254,0.0,0.0,0.0,0.0,0.0,0.0,0.0,0.0,0.0,0.0,0.0,0.0,0.0,0.0,0.0,0.0,0.0,0.0,0.0,0.0,-4.9583,-4.9573,-4.9672,-4.9579,-4.9629,-4.9781,-4.9688,-4.9735,-4.9841,-4.981,-4.9732,-4.9674,-4.9729,-4.9777,-4.9759,-4.947,-4.8977,-4.8278,-4.7239,-4.5847,-4.4215,-4.3345,-4.2481,-4.1682,-4.1579,-4.1466,-4.1327,-4.0817,-4.1187,-4.1742,-4.0514,-3.9812,-3.6954,-2.3573,-1.8372,-1.417,-0.0246,0.4288,0.568,0.902,1.04,1.2154,1.7333,1.16,0.6584,1.2442,1.2204,1.1835,1.5426,1.3721,1.1911,1.2322,1.2506,1.0725,0.5312,0.4407,0.3064,-0.0261,-0.0766,-0.1756,-0.4241,-0.2505,-0.0587,0.0756,0.4946,0.7223,0.6628,0.8763,1.1451,1.4411,1.1858,1.0236,0.997,1.1492,1.3481,1.5793,1.6969,1.7712,1.8033,1.8354,1.9647,-3.64,-4.0137,-4.445,-4.5016,-4.6826,-4.8655,-4.9446,-4.9425,-4.9738,-5.143,-5.0725,-4.9791,0.0,0.0,0.0,0.0,0.0,0.0,0.0,0.0,0.0,0.0,0.0,0.0,0.0,0.0,0.0,0.0,0.0,0.0,0.0,0.0,0.0,-4.9526,-4.943,-4.9461,-4.968,-4.9552,-4.9568,0.0,-4.971,-4.9716,-4.9716,-4.9693,-4.9673,-4.9644,-4.9168,-4.9054,-4.9063,-4.7569,-4.6643,-4.6054,-4.4769,-4.4028,-4.3672,-4.3636,-4.3518,-4.3391,-4.3276,-4.3127,-4.2835,-4.222,-4.1681,-3.926,-2.8219,-2.4452,-2.1205,-0.7866,-0.485,-0.454,0.034,0.119,0.1546,0.4953,0.0913,-0.1792,0.477,0.4603,0.4321,0.7836,0.6433,0.4471,0.3719,0.3643,0.2537,-0.0694,-0.1241,-0.3059,-0.7917,-0.7113,-0.765,-1.1399,-0.8296,-0.5853,-0.5391,-0.2413,-0.0771,-0.1198,0.1606,0.3964,0.56,0.1707,0.0512,0.2451,0.4543,0.766,1.2001,1.3243,1.4163,1.4821,1.5354,1.67,-4.2666,-4.4604,-4.6582,-4.813,-4.7608,-4.7577,-5.0876,-5.0547,-4.965,-5.0076,0.0,-4.9923,-4.9955,0.0,0.0,0.0,0.0,0.0,0.0,0.0,0.0,0.0,0.0,0.0,0.0,0.0,0.0,0.0,0.0,0.0,0.0,0.0,0.0,-4.9376,-4.9376,-4.9376,-4.9392,-4.9392,-4.9394,-4.9415,-4.9533,-4.9602,-4.9592,-4.9474,-4.9392,-4.9392,-4.911,-4.8862,-4.8646,-4.8603,-4.7253,-4.5204,-4.5438,-4.4451,-4.2857,-4.2618,-4.2643,-4.2762,-4.2287,-4.2816,-4.3262,-4.0897,-4.0761,-4.0729,-3.6345,-3.467,-3.3374,-2.929,-2.4813,-2.0678,-1.8184,-1.3064,-0.9236,-1.2053,-1.2392,-1.04,-0.404,-0.4389,-0.4288,0.0746,-0.172,-0.3902,-0.1507,-0.172,-0.2794,-0.4509,-0.6652,-0.833,-0.9019,-1.0232,-1.0917,-1.0491,-1.0709,-1.0162,-0.8474,-0.5796,-0.4997,-0.6863,-0.3323,-0.0937,-0.0598,-0.5446,-0.6379,-0.2668,-0.0257,0.1625,0.2918,0.4444,0.6999,1.0549,1.1938,1.2802,-3.7113,-3.9408,-4.2084,-4.1989,-4.511,-4.8335,-4.8848,-4.9319,-5.0029,-5.1254,-5.068,-4.9951,-4.9867,-4.9856,0.0,0.0,0.0,0.0,0.0,0.0,0.0,0.0,0.0,0.0,0.0,0.0,0.0,0.0,0.0,0.0,0.0,0.0,0.0,0.0,-4.9183,-4.9222,-4.9385,-4.9297,-4.9295,-4.9386,-4.9431,-4.9401,-4.9323,-4.9365,-4.9278,-4.9126,-4.8954,-4.8654,-4.8224,-4.8072,-4.7339,-4.6404,-4.6539,-4.6145,-4.5406,-4.4987,-4.4807,-4.4697,-4.416,-4.3815,-4.3435,-4.2234,-4.131,-4.0278,-3.8332,-3.672,-3.502,-3.2362,-2.9606,-2.677,-2.3742,-2.026,-1.7492,-1.7446,-1.5775,-1.2992,-0.9276,-0.9086,-0.8776,-0.5455,-0.56,-0.6277,-0.6477,-0.5944,-0.607,-0.8037,-0.9508,-1.088,-1.2387,-1.3091,-1.3653,-1.421,-1.368,-1.307,-1.2277,-1.0388,-0.9319,-0.9426,-0.7924,-0.6908,-0.6566,-0.8496,-0.8907,-0.7358,-0.6308,-0.4484,-0.1789,-0.0534,0.1927,0.5399,0.7832,0.9803,-3.4277,-3.6081,-3.8575,-3.8117,-4.2257,-4.6473,-4.6386,-4.7355,-4.897,-5.121,-5.0729,-4.9856,-4.9741,-4.9687,0.0,0.0,0.0,0.0,0.0,0.0,0.0,0.0,0.0,0.0,0.0,0.0,0.0,0.0,0.0,0.0,0.0,0.0,0.0,0.0,-4.9034,-4.9077,-4.926,-4.9163,-4.9163,-4.926,-4.9315,-4.9146,-4.8811,-4.9008,-4.8966,-4.8694,-4.863,-4.8357,-4.7874,-4.745,-4.7169,-4.6987,-4.706,-4.706,-4.6877,-4.642,-4.6096,-4.5878,-4.5235,-4.4461,-4.3537,-4.281,-4.1488,-3.9991,-3.8669,-3.7236,-3.5441,-3.2636,-3.112,-2.9489,-2.6019,-2.4094,-2.2448,-2.0152,-1.7567,-1.5025,-1.2908,-1.2291,-1.1671,-0.9885,-0.8717,-0.841,-0.9839,-0.9091,-0.8884,-1.0312,-1.1337,-1.266,-1.4287,-1.46,-1.5045,-1.6115,-1.5465,-1.4752,-1.4538,-1.3176,-1.1962,-1.1028,-1.0752,-1.0816,-1.1339,-1.1058,-1.0723,-1.0338,-0.977,-0.8278,-0.5801,-0.4755,-0.2749,0.0089,0.2763,0.5483,-3.7483,-3.7203,-3.7702,-3.924,-3.9702,-4.0636,-4.3965,-4.4841,-4.5862,-4.9126,-4.9781,-4.9741,-4.9598,-4.9576,0.0,0.0,0.0,0.0,0.0,0.0,0.0,0.0,0.0,0.0,0.0,0.0,0.0,0.0,0.0,0.0,0.0,0.0,0.0,0.0,-4.8968,-4.8968,-4.8968,-4.8968,-4.8968,-4.8968,-4.9119,-4.8765,-4.8027,-4.827,-4.8243,-4.8057,-4.8142,-4.797,-4.7614,-4.7205,-4.6763,-4.6295,-4.6683,-4.6605,-4.6213,-4.5827,-4.5687,-4.5564,-4.481,-4.4267,-4.3599,-4.1797,-4.0958,-4.02,-3.7863,-3.713,-3.6383,-3.2905,-3.1347,-2.992,-2.6539,-2.4905,-2.3541,-2.1509,-1.9363,-1.728,-1.5381,-1.4366,-1.3447,-1.228,-1.1839,-1.1425,-1.092,-1.1248,-1.146,-1.0929,-1.25,-1.3772,-1.3761,-1.4377,-1.4752,-1.4752,-1.524,-1.522,-1.4473,-1.3313,-1.2474,-1.2275,-1.1359,-1.2033,-1.463,-1.3754,-1.2634,-1.152,-0.9522,-0.8977,-0.9875,-0.8703,-0.7129,-0.5358,-0.3391,-0.0662,-3.402,-3.559,-3.747,-3.8025,-3.9854,-4.2117,-4.4335,-4.5708,-4.6783,-4.7834,-4.803,-4.7974,-4.7844,-4.8721,0.0,0.0,0.0,0.0,0.0,0.0,0.0,0.0,0.0,0.0,0.0,0.0,0.0,0.0,0.0,0.0,0.0,0.0,0.0,0.0,-4.8316,-4.8316,-4.8316,-4.8316,-4.8316,-4.8316,-4.8362,-4.8252,-4.8027,-4.808,-4.805,-4.79,-4.7634,-4.7476,-4.7346,-4.6839,-4.6534,-4.6371,-4.616,-4.5784,-4.5259,-4.4776,-4.4616,-4.4468,-4.3399,-4.2503,-4.1624,-4.0584,-3.9385,-3.8005,-3.6707,-3.5451,-3.3972,-3.1719,-3.0472,-2.9344,-2.7423,-2.6046,-2.4811,-2.3253,-2.1738,-2.0092,-1.8141,-1.7546,-1.6934,-1.5508,-1.4355,-1.3625,-1.3447,-1.3227,-1.3217,-1.3342,-1.5094,-1.6229,-1.6126,-1.6893,-1.7392,-1.7392,-1.7627,-1.7586,-1.7365,-1.7019,-1.6405,-1.561,-1.4522,-1.4298,-1.517,-1.4864,-1.4173,-1.3119,-1.3199,-1.2251,-1.0314,-1.173,-1.1089,-0.8502,-0.8911,-0.6984,-3.3962,-3.5365,-3.6742,-3.8132,-3.9477,-4.1041,-4.333,-4.3184,-4.2885,-4.4191,-4.4413,-4.4715,-4.5857,-4.7752,-4.9129,-4.9032,-4.8928,0.0,0.0,0.0,0.0,0.0,0.0,0.0,0.0,0.0,0.0,0.0,0.0,0.0,0.0,0.0,-4.8027,-4.8027,-4.8027,-4.8027,-4.8027,-4.8027,-4.7905,-4.765,-4.765,-4.765,-4.765,-4.7743,-4.7643,-4.7445,-4.7273,-4.7133,-4.6877,-4.653,-4.6376,-4.6371,-4.6041,-4.5609,-4.5108,-4.4368,-4.4148,-4.3993,-4.3049,-4.2165,-4.1266,-4.0489,-3.9117,-3.7478,-3.6336,-3.4913,-3.3305,-3.1262,-3.0283,-2.9411,-2.7534,-2.6046,-2.4717,-2.3481,-2.195,-2.0505,-1.889,-1.8385,-1.7776,-1.6472,-1.5531,-1.4805,-1.4619,-1.4169,-1.3855,-1.3981,-1.5519,-1.664,-1.6435,-1.7763,-1.8688,-1.8688,-1.8688,-1.8486,-1.8081,-1.8067,-1.7559,-1.6537,-1.6537,-1.664,-1.664,-1.6229,-1.5726,-1.5105,-1.4563,-1.3387,-1.1701,-1.267,-1.2136,-1.0281,-1.1463,-1.0356,-3.6047,-3.6083,-3.5903,-3.9066,-3.8859,-3.868,-4.1664,-3.8646,-3.6015,-3.9016,-3.957,-4.0365,-4.3399,-4.6326,-4.8351,-4.8722,-4.8658,-4.8563,0.0,0.0,0.0,0.0,0.0,0.0,0.0,0.0,0.0,0.0,0.0,0.0,-4.7936,-4.7936,-4.7936,-4.7936,-4.7936,-4.7936,-4.7936,-4.7936,-4.7617,-4.6946,-4.6984,-4.6984,-4.6984,-4.7275,-4.7169,-4.6796,-4.7024,-4.6839,-4.6371,-4.6213,-4.6172,-4.6172,-4.6131,-4.5878,-4.5464,-4.4418,-4.4045,-4.3993,-4.3389,-4.2803,-4.2106,-4.102,-3.975,-3.8268,-3.6531,-3.5352,-3.4076,-3.1431,-3.069,-2.9977,-2.6967,-2.5206,-2.394,-2.2631,-2.0771,-1.9076,-1.8196,-1.7484,-1.6665,-1.567,-1.5463,-1.5347,-1.4723,-1.4295,-1.3876,-1.3342,-1.4574,-1.5611,-1.5611,-1.7356,-1.8688,-1.8688,-1.8688,-1.8284,-1.7254,-1.7267,-1.6742,-1.5611,-1.7559,-1.8688,-1.8688,-1.7776,-1.7165,-1.7062,-1.4333,-1.3207,-1.3876,-1.2184,-1.1239,-1.1239,-1.1921,-1.1312,-3.1461,-3.4271,-3.7092,-3.7803,-4.0581,-4.3308,-4.3986,-4.1222,-3.8361,-3.7881,-3.766,-3.7782,-3.8412,-4.1054,-4.4309,-4.7906,-4.9373,-4.9984,0.0,0.0,0.0,0.0,0.0,0.0,0.0,0.0,0.0,0.0,0.0,0.0,-4.7277,-4.7277,-4.7277,-4.7277,-4.7277,-4.7277,-4.7277,-4.7277,-4.6801,-4.5851,-4.6254,-4.6451,-4.6451,-4.6912,-4.6837,-4.6254,-4.6335,-4.6006,-4.5419,-4.5373,-4.5293,-4.5167,-4.4824,-4.4533,-4.4418,-4.3765,-4.3498,-4.3389,-4.2223,-4.1628,-4.1173,-3.9876,-3.8671,-3.7478,-3.6411,-3.5429,-3.4076,-3.1431,-3.069,-3.026,-2.8077,-2.6733,-2.5487,-2.4035,-2.2728,-2.128,-1.9177,-1.9206,-1.8918,-1.6768,-1.6883,-1.6883,-1.5463,-1.5647,-1.6048,-1.6175,-1.6973,-1.7674,-1.7864,-1.8385,-1.8688,-1.8688,-1.8688,-1.8587,-1.8284,-1.8284,-1.8182,-1.7864,-1.8385,-1.8688,-1.8688,-1.8385,-1.7864,-1.7165,-1.7138,-1.6525,-1.5001,-1.5404,-1.5186,-1.4262,-1.4034,-1.3132,-3.1791,-3.5382,-3.8265,-3.6573,-3.8196,-3.9931,-3.9097,-3.6855,-3.4759,-3.3737,-3.35,-3.4309,-3.7085,-3.8177,-4.0503,-4.6213,0.0,-4.8238,-4.8806,-4.9538,0.0,0.0,0.0,0.0,0.0,0.0,0.0,0.0,0.0,0.0,-4.7021,-4.7021,-4.6946,-4.6683,-4.6683,-4.6605,-4.6335,-4.6335,-4.6054,-4.547,-4.5766,-4.5929,-4.5894,-4.6213,-4.6131,-4.5793,0.0,-4.5475,-4.5083,-4.5049,-4.4967,-4.492,-4.4582,-4.4318,-4.4097,-4.3818,-4.3585,-4.3258,-4.2543,-4.1747,-4.0896,-4.017,-3.8779,-3.719,-3.6411,-3.5429,-3.4076,-3.1431,-3.069,-3.026,-2.8457,-2.6916,-2.5487,-2.432,-2.3018,-2.151,-1.9478,-1.9392,-1.9206,-1.7075,-1.7075,-1.6883,-1.5555,-1.5555,-1.5738,-1.5555,-1.6563,-1.728,-1.7151,-1.8067,-1.8688,-1.8688,-1.8688,-1.8688,-1.8688,-1.8688,-1.8688,-1.8688,-1.8688,-1.8688,-1.8688,-1.8688,-1.8385,-1.7878,-1.7878,-1.7356,-1.6126,-1.6229,-1.6023,-1.5301,-1.4525,-1.3803,-3.4126,-3.7433,-3.927,-3.6294,-3.5449,-3.4921,-3.3214,-3.1332,-2.9839,-2.9439,-2.9337,-3.0935,-3.6192,-3.6656,-3.798,-4.3273,-4.4887,-4.6004,0.0,0.0,-4.8675,-4.9781,0.0,0.0,0.0,0.0,0.0,0.0,0.0,0.0,-4.7021,-4.6984,-4.6722,-4.6295,-4.6213,-4.5886,-4.5281,-4.5246,-4.5246,-4.5246,-4.5371,-4.5416,-4.5416,-4.547,-4.5416,-4.5384,0.0,-4.5061,-4.4892,-4.4728,-4.4679,-4.4679,-4.4679,-4.4418,-4.3993,-4.3993,-4.3659,-4.317,-4.317,-4.2191,-4.0834,-4.0772,-3.9192,-3.719,-3.6411,-3.5429,-3.4076,-3.1431,-3.069,-3.026,-2.8457,-2.6436,-2.4717,-2.4225,-2.2534,-2.0818,-1.9377,-1.9177,-1.8789,-1.7165,-1.687,-1.6563,-1.5762,-1.5036,-1.4619,-1.4295,-1.5439,-1.6266,-1.5817,-1.7457,-1.8688,-1.8688,-1.8688,-1.8688,-1.8688,-1.8688,-1.8688,-1.8688,-1.8688,-1.8688,-1.8688,-1.8688,-1.8688,-1.8688,-1.7776,-1.7356,-1.7356,-1.6332,-1.5817,-1.5817,-1.4794,-1.4514,-3.4435,-3.7373,-3.9735,-3.9088,-3.8899,-3.8397,-3.6594,-3.3874,-3.122,-2.9675,-2.925,-2.9409,-3.0163,-3.569,-3.9468,-3.7454,-4.2755,0.0,-4.9034,-5.1423,-5.2592,-5.148,0.0,0.0,0.0,0.0,0.0,0.0,0.0,-4.7021,-4.7021,-4.6644,-4.6335,-4.6254,-4.5809,-4.519,-4.4368,-4.4368,-4.4368,-4.4368,-4.481,-4.5001,-4.5001,-4.5326,-4.5315,-4.4954,0.0,0.0,-4.3941,-4.3784,-4.3679,-4.3605,-4.3605,-4.3551,-4.3476,-4.3476,-4.3082,-4.2543,-4.2543,-4.154,-4.0071,-3.9578,-3.8465,-3.719,-3.6411,-3.5429,-3.4076,-3.1431,-3.069,-3.026,-2.8166,-2.6324,-2.4717,-2.394,-2.2437,-2.0818,-1.9377,-1.9607,-1.9737,-1.8007,-1.7701,-1.7497,-1.6665,-1.5762,-1.5347,-1.5853,-1.6485,-1.7114,-1.7484,-1.8196,-1.8688,-1.8688,-1.8688,-1.8688,-1.8688,-1.8688,-1.8688,-1.8688,-1.8688,-1.8688,-1.8688,-1.8688,-1.8688,-1.8688,-1.8486,-1.8385,-1.8385,-1.8284,-1.8168,-1.8182,-1.7049,-1.6653,-3.4776,-3.7311,-3.9515,-3.8532,-3.8235,-3.7723,-3.5944,-3.433,-3.2724,-3.0904,-2.9638,-2.9304,-3.0819,-3.277,-3.5337,-3.8896,-4.1074,-4.3712,-4.7815,-5.0285,-5.1955,-5.2836,-5.2836,0.0,0.0,0.0,0.0,0.0,0.0,-4.7472,-4.7472,-4.6426,-4.5758,-4.553,-4.5304,-4.479,-4.4148,-4.4148,-4.4148,-4.4148,-4.4351,-4.4468,-4.4501,-4.4679,-4.4631,0.0,0.0,0.0,-4.3605,-4.3498,-4.3422,-4.3368,-4.3368,-4.3368,-4.3368,-4.3368,-4.317,-4.2859,-4.2486,-4.193,-4.102,-3.9488,-3.8157,-3.7,-3.5886,-3.4784,-3.3385,-3.1347,-3.0369,-2.9674,-2.8188,-2.6804,-2.5394,-2.4225,-2.2921,-2.1608,-2.0122,-2.0138,-2.0038,-1.8789,-1.8196,-1.7599,-1.687,-1.5969,-1.5359,-1.5347,-1.6175,-1.6793,-1.6986,-1.779,-1.8399,-1.8587,-1.8688,-1.8688,-1.8688,-1.8688,-1.8688,-1.8688,-1.8688,-1.8688,-1.8688,-1.8688,-1.8688,-1.8688,-1.8688,-1.8587,-1.8486,-1.8587,-1.8688,-1.8688,-1.7573,-1.7062,-3.697,0.0,-4.0514,-3.9184,-3.8709,-3.8039,0.0,-3.5051,-3.4053,-3.1868,-2.9889,-2.9256,-3.1552,-3.0369,-3.1577,-3.9244,-4.0265,-4.1528,-4.5658,-4.7492,-4.9525,-5.2389,-5.2346,0.0,0.0,0.0,0.0,0.0,0.0,-4.8336,-4.8336,-4.6754,-4.5729,-4.5404,-4.5306,-4.5058,-4.4651,-4.4264,-4.4148,-4.4148,-4.4148,-4.4148,-4.4148,-4.4148,-4.4045,0.0,0.0,0.0,-4.3498,-4.3225,-4.3115,-4.3115,-4.2948,-4.2859,-4.2859,-4.2859,-4.2803,-4.2576,-4.2048,-4.1811,-4.1327,-3.9488,-3.8087,-3.691,-3.5582,-3.4209,-3.2629,-3.1178,-3.0023,-2.9102,-2.8029,-2.6825,-2.56,-2.4244,-2.3035,-2.1821,-2.0636,-2.0452,-2.0237,-1.9492,-1.8688,-1.7891,-1.7075,-1.6266,-1.5451,-1.4827,-1.5543,-1.6163,-1.6485,-1.7191,-1.7993,-1.8587,-1.8688,-1.8688,-1.8688,-1.8688,-1.8688,-1.8688,-1.8688,-1.8789,-1.899,-1.899,-1.9091,-1.9292,-1.9091,-1.889,-1.8601,-1.8688,-1.8688,-1.8688,-1.7878,-1.7471,0.0,-4.4175,-4.4307,-4.4052,-4.3728,-4.2612,-3.9438,-3.7325,0.0,-3.1783,-2.9735,-2.8585,-2.8689,-3.0001,-3.1661,-3.3467,-4.0971,-4.5674,-4.308,-4.4058,0.0,0.0,-5.1439,0.0,0.0,0.0,0.0,0.0,0.0,0.0,-4.9812,-4.799,-4.6904,-4.6904,-4.6391,-4.6159,-4.6106,-4.4766,-4.4148,-4.4148,-4.4148,-4.4148,-4.4148,-4.4148,-4.4045,0.0,0.0,0.0,0.0,-4.2714,-4.2428,-4.2339,-4.1779,-4.154,-4.154,-4.154,-4.1113,-4.0612,-4.0612,-4.0002,-3.9274,-3.8995,-3.8063,-3.6983,-3.6139,-3.4156,-3.1924,-3.0946,-3.0023,-2.9014,-2.7597,-2.5787,-2.4149,-2.3516,-2.2,-2.0552,-2.0452,-2.0452,-2.0353,-2.0337,-1.9607,-1.8688,-1.7905,-1.7178,-1.6369,-1.5463,-1.5324,-1.5841,-1.6909,-1.7088,-1.7573,-1.8587,-1.8688,-1.8688,-1.8688,-1.8688,-1.8688,-1.8688,-1.8688,-1.9091,-2.0023,-2.0107,-2.0521,-2.1313,-2.0275,-1.9777,-1.9722,-1.9005,-1.8688,-1.8688,-1.8587,-1.8587,-4.3965,-4.5491,-4.5933,-4.451,-4.4756,-4.45,-4.1057,-3.8829,-3.654,-3.3257,-3.0279,-2.8337,-2.8251,-2.8721,-3.1035,-3.7048,-4.0714,-4.2745,-4.2417,-4.6775,0.0,-5.0947,0.0,0.0,0.0,0.0,0.0,0.0,0.0,0.0,-5.0468,-4.886,-4.8413,-4.9324,-4.8316,-4.7735,-4.7735,-4.5901,-4.5005,-4.4972,-4.3664,-4.2961,-4.2785,-4.2785,-4.2705,0.0,0.0,0.0,0.0,-4.2339,-4.2165,-4.1779,-4.1989,-4.1779,-4.1419,-4.1419,-4.1236,-4.0927,-4.039,-3.9972,-3.9578,-3.8828,-3.7679,-3.6438,-3.6064,-3.4523,-3.2407,-3.0455,-2.9257,-2.8389,-2.787,-2.6825,-2.5694,-2.4167,-2.3018,-2.1886,-2.0651,-2.0452,-2.0452,-2.0452,-1.9321,-1.8196,-1.7905,-1.6781,-1.5658,-1.4931,-1.492,-1.5024,-1.5451,-1.6163,-1.687,-1.7559,-1.8284,-1.8688,-1.8688,-1.8688,-1.8688,-1.8688,-1.8688,-1.8789,-1.9005,-1.9206,-1.9306,-1.9507,-1.9091,-1.889,-1.8803,-1.8745,-1.8658,-1.8629,-1.8311,-1.8297,-4.584,-4.7062,-4.754,-4.5895,-4.6206,-4.5908,-4.1865,-3.9512,-3.7105,-3.3357,-3.0235,-2.8162,-2.8162,-2.884,-3.1243,-3.6818,-3.9116,-4.0677,-4.2141,-4.6979,0.0,-5.1405,-5.24,-5.31,0.0,0.0,0.0,0.0,0.0,0.0,-5.1489,-5.0081,-4.9947,-5.1456,-5.0048,-4.9162,-4.8896,-4.7054,-4.5776,-4.5085,-4.3642,-4.264,-4.1952,-4.1952,-4.1839,0.0,0.0,0.0,0.0,-4.1692,-4.1511,-4.1113,-4.1358,-4.1175,-4.0802,-4.0802,-4.0802,-4.0677,-4.0068,-3.9806,-3.9542,-3.8828,-3.7607,-3.6438,-3.6064,-3.468,-3.2818,-3.0432,-2.8903,-2.7939,-2.7848,-2.7303,-2.6271,-2.4415,-2.3403,-2.2471,-2.0735,-2.0452,-2.0452,-2.0452,-1.9436,-1.8514,-1.8007,-1.6883,-1.5865,-1.4931,-1.4503,-1.4399,-1.4805,-1.5232,-1.5945,-1.696,-1.7776,-1.7966,-1.7661,-1.7661,-1.7661,-1.7661,-1.7661,-1.7864,-1.8371,-1.8573,-1.8775,-1.9091,-1.8789,-1.8587,-1.8486,-1.8325,-1.8339,-1.8528,-1.8095,-1.8067,-4.9111,-4.9477,-4.9269,-4.8891,-4.8608,-4.7064,0.0,0.0,-3.6526,-3.1709,-2.9359,-2.8197,-2.8197,-3.0728,-3.2343,-3.0965,-3.5965,-4.058,-4.2222,-4.3434,-4.5516,0.0,0.0,-4.9328,0.0,0.0,0.0,0.0,0.0,0.0,-5.3065,-5.159,-5.1489,-5.2998,-5.159,-5.0361,-4.9585,-4.8112,-4.6402,-4.4374,-4.4374,-4.3543,-4.2016,-4.2016,-4.1839,0.0,0.0,0.0,0.0,-4.0708,-4.0421,-4.0357,-3.9704,-3.9468,-3.9468,-3.9468,-3.9468,-3.9468,-3.9468,-3.9199,-3.8887,-3.8887,-3.8063,-3.6983,-3.6214,-3.4733,-3.3,-3.1202,-2.9411,-2.7939,-2.7646,-2.662,-2.53,-2.4035,-2.2824,-2.1723,-2.0651,-2.0452,-2.0452,-2.0452,-2.0452,-1.9838,-1.821,-1.7905,-1.7293,-1.5555,-1.441,-1.4179,-1.5197,-1.4388,-1.4597,-1.6858,-1.7062,-1.6665,-1.5428,-1.5324,-1.5324,-1.5324,-1.5312,-1.632,-1.853,-1.8617,-1.9348,-2.0886,-1.9977,-1.9277,-1.9076,-1.7722,-1.7533,-1.8297,-1.8012,-1.8113,-4.8998,-4.9431,-4.9252,-4.8778,-4.852,-4.6728,0.0,0.0,-3.6276,-3.1426,-2.8951,-2.7634,-2.7634,-2.927,-3.1062,-3.2314,-3.6347,-4.0717,-4.4587,-4.69,-4.9265,-5.2056,0.0,-5.1351,0.0,0.0,0.0,0.0,0.0,0.0,-5.3065,-5.2129,-5.1488,-5.1454,-5.0931,-5.0637,-5.0369,-4.8513,-4.7248,-4.6634,-4.5118,-4.4026,-4.3352,-4.3352,-4.2626,-4.15,-4.15,0.0,0.0,-4.0357,-4.0163,-3.977,-4.0033,-3.9867,-3.9468,-3.9237,-3.9169,-3.9169,-3.8828,-3.8691,-3.8483,-3.785,-3.7028,-3.6139,-3.5275,-3.333,-3.1371,-3.0861,-2.9411,-2.7939,-2.7939,-2.6804,-2.5394,-2.4225,-2.2921,-2.1723,-2.0651,-2.0452,-2.0452,-2.0452,-1.9923,-1.899,-1.7573,-1.6845,-1.5817,-1.397,-1.3457,-1.3247,-1.3037,-1.3457,-1.4075,-1.4701,-1.5316,-1.5841,-1.6285,-1.6285,-1.6285,-1.6285,-1.5949,-1.5956,-1.6454,-1.7141,-1.7661,-1.7979,-1.8587,-1.8789,-1.8486,-1.8108,-1.8034,-1.8293,-1.8034,-1.7817,-4.9101,-4.9252,-4.9053,-4.8596,-4.8399,-4.6544,-4.0097,0.0,-3.6095,-3.1047,-2.8639,-2.7581,-2.8142,-3.018,-3.2336,-3.403,-3.8642,-4.3219,-4.6696,-4.9181,-5.1401,-5.3422,-5.3038,0.0,0.0,0.0,0.0,0.0,0.0,0.0,-5.2624,-5.1883,-5.122,-5.0742,-5.0742,-5.0571,-5.0291,-4.9,-4.7983,-4.7166,-4.5889,-4.4782,-4.3904,-4.3904,-4.3337,-4.2154,-4.2154,0.0,0.0,-4.0866,-4.0889,-4.0937,-4.026,-4.0103,-4.0119,-3.9348,-3.9072,-3.9033,-3.872,-3.8344,-3.7963,-3.7391,-3.6411,-3.5275,-3.4445,-3.2811,-3.1225,-3.0776,-2.9674,-2.8479,-2.8141,-2.7282,-2.6159,-2.4509,-2.3035,-2.1723,-2.0651,-2.0452,-2.0452,-2.0452,-2.0033,-1.9263,-1.7608,-1.7054,-1.6122,-1.4087,-1.3661,-1.3333,-1.2913,-1.3243,-1.378,-1.4207,-1.4254,-1.4576,-1.5258,-1.5373,-1.5373,-1.5373,-1.4994,-1.4948,-1.5272,-1.5973,-1.6253,-1.6155,-1.7296,-1.7697,-1.7165,-1.7599,-1.7844,-1.7987,-1.7959,-1.7742,-4.9306,-4.9073,-4.8751,-4.8457,-4.8195,-4.657,-4.1021,0.0,-3.5905,-3.0412,-2.826,-2.7707,-2.9025,-3.2227,-3.4982,-3.5977,-4.1959,-4.7039,-4.859,-5.0578,-5.2297,-5.3498,0.0,0.0,-5.3625,-5.3507,0.0,0.0,0.0,0.0,-5.2014,-5.122,-5.0673,-5.0533,-5.0533,-5.0149,-4.95,-4.95,-4.8538,-4.6612,-4.6612,-4.5822,-4.4268,-4.4268,-4.3989,-4.35,-4.35,0.0,0.0,-4.2034,-4.2243,-4.3081,-4.0757,-4.0577,-4.1406,-3.9973,-3.9389,-3.936,-3.9094,-3.8349,-3.7433,-3.7247,-3.6016,-3.4497,-3.3699,-3.2754,-3.1756,-3.0946,-3.0023,-2.9014,-2.8209,-2.7939,-2.7282,-2.4792,-2.3078,-2.1706,-2.0839,-2.0638,-2.0638,-2.0638,-2.0826,-2.0272,-1.8118,-1.7983,-1.7407,-1.5142,-1.445,-1.4103,-1.4103,-1.3541,-1.3695,-1.4803,-1.4005,-1.3311,-1.3311,-1.3311,-1.3311,-1.3311,-1.3274,-1.3714,-1.4742,-1.4701,-1.482,-1.4945,-1.603,-1.6205,-1.5475,-1.651,-1.723,-1.7742,-1.7817,-1.7919,-4.8954,-4.8848,-4.8704,-4.8334,-4.8123,-4.674,-4.1836,-3.8825,0.0,-2.8766,-2.7012,-2.6728,-2.7032,-3.0812,-3.4644,-3.694,-4.2643,-4.7669,-5.0244,-5.1824,-5.2999,0.0,-5.3683,0.0,-5.3507,-5.3448,0.0,0.0,0.0,0.0,-5.2846,-5.1521,-5.0252,-4.9075,-4.9106,-4.8956,-4.8804,-4.8804,-4.8452,-4.7823,-4.7823,-4.7516,-4.6825,-4.6825,-4.6097,-4.4876,-4.4876,0.0,0.0,-4.3021,-4.3081,-4.326,-4.2692,-4.2662,-4.2872,-4.2237,-4.1971,-4.1749,-4.0413,-3.9374,-3.8399,-3.679,-3.5684,-3.4877,-3.3793,-3.2316,-3.097,-3.0776,-2.9586,-2.8209,-2.8029,-2.7848,-2.7264,-2.5332,-2.3564,-2.2234,-2.2004,-2.1912,-2.1912,-2.1912,-2.202,-2.1134,-1.8359,-1.7899,-1.6965,-1.4006,-1.3551,-1.3434,-1.3434,-1.3318,-1.3557,-1.4544,-1.4495,-1.4245,-1.4245,-1.4245,-1.4245,-1.4245,-1.3952,-1.3545,-1.3053,-1.2966,-1.3092,-1.3355,-1.4012,-1.5028,-1.6432,-1.6074,-1.6532,-1.764,-1.7422,-1.7319,-4.8667,-4.8534,-4.8352,-4.819,-4.778,-4.6551,-4.3099,0.0,0.0,0.0,-3.024,-2.9398,-2.8728,-3.2582,-3.6468,-3.8313,-4.3972,-4.881,-5.0672,-5.2291,-5.3295,-5.3422,-5.3507,-5.3507,0.0,-5.3362,0.0,0.0,0.0,-5.2176,-5.1454,-5.0641,-4.9677,-4.8606,-4.8606,-4.8606,-4.8606,-4.8606,-4.8452,-4.8172,-4.8172,-4.8016,-4.762,-4.762,-4.7149,-4.6222,-4.6222,0.0,-4.5145,-4.4517,-4.4637,-4.5085,-4.3829,-4.3709,-4.4112,-4.2595,-4.2055,-4.1813,-4.0299,-3.9314,-3.8399,-3.737,-3.6514,-3.5733,-3.4584,-3.3341,-3.2073,-3.153,-3.038,-2.9298,-2.9108,-2.8992,-2.8308,-2.6128,-2.4789,-2.3817,-2.2657,-2.2329,-2.2329,-2.2329,-2.2496,-2.1925,-1.9523,-1.8713,-1.7585,-1.52,-1.4242,-1.3887,-1.3887,-1.3887,-1.4043,-1.4583,-1.462,-1.462,-1.462,-1.462,-1.462,-1.462,-1.3934,-1.307,-1.2195,-1.1621,-1.1194,-1.0685,-1.1484,-1.2591,-1.4051,-1.4133,-1.5253,-1.7153,-1.6336,-1.6539,-4.8205,-4.8101,-4.793,-4.7775,-4.7274,-4.6192,-4.3774,-4.2013,0.0,0.0,-3.4119,-3.278,-3.1842,-3.522,-3.8733,-4.0507,-4.582,-5.0184,-5.1373,-5.2804,-5.3632,0.0,-5.3362,-5.3362,-5.3275,-5.3275,0.0,0.0,0.0,-5.1153,-4.9863,-4.95,-4.9193,-4.8804,-4.8683,-4.8606,-4.8606,-4.8529,-4.8406,-4.8172,-4.8094,-4.7937,-4.762,-4.762,-4.743,-4.7239,-4.7239,0.0,-4.718,-4.6073,-4.6282,-4.703,-4.4846,-4.459,-4.5084,-4.2755,-4.1794,-4.1443,-4.0097,-3.9056,-3.8391,-3.8243,-3.7689,-3.6834,-3.5728,-3.471,-3.3563,-3.2632,-3.151,-3.0584,-3.0363,-3.0042,-2.9234,-2.6868,-2.604,-2.522,-2.3207,-2.27,-2.27,-2.27,-2.3049,-2.2608,-2.0839,-1.979,-1.8501,-1.6754,-1.537,-1.462,-1.462,-1.462,-1.4493,-1.4367,-1.4493,-1.4367,-1.4122,-1.424,-1.424,-1.3986,-1.3094,-1.22,-1.1431,-1.0261,-0.9259,-0.8172,-0.8886,-0.9728,-1.0769,-1.1672,-1.362,-1.6371,-1.4996,-1.5841,-4.7225,-4.7598,-4.7607,-4.673,-4.6686,-4.5864,-4.2088,-4.1048,-3.9804,-3.6134,0.0,-3.3416,-3.4554,-3.6346,-3.9299,-4.455,0.0,-5.1541,-5.4392,-5.4901,-5.4594,-5.3557,-5.3362,-5.3275,-5.3275,-5.3275,-5.2936,-5.2111,-5.132,-5.0779,-5.0571,-4.9416,-4.8925,-4.9458,-4.8849,-4.8606,-4.8606,-4.8375,-4.825,-4.8172,-4.7858,-4.77,-4.762,-4.735,-4.7269,-4.7239,-4.7239,0.0,-4.7239,-4.706,-4.709,-4.721,-4.6851,-4.6338,-4.5686,-4.4868,-4.413,-4.3209,-4.1517,-4.0349,-3.9433,-3.872,-3.8351,-3.8081,-3.6859,-3.5264,-3.3775,-3.3325,-3.188,-3.0363,-3.0104,-2.903,-2.7828,-2.7155,-2.5999,-2.4842,-2.4365,-2.4254,-2.4254,-2.4254,-2.4213,-2.3649,-2.1548,-2.0277,-1.8726,-1.6869,-1.537,-1.462,-1.462,-1.462,-1.424,-1.3358,-1.3986,-1.3859,-1.2087,-1.272,-1.2847,-1.1959,-1.1168,-1.0261,-0.9378,-0.7944,-0.7283,-0.7522,-0.6993,-0.7768,-0.9747,-0.9951,-1.1833,-1.5038,-1.3422,-1.515,-4.4108,-4.5699,-4.699,-4.6224,-4.6006,-4.5444,-4.3546,-4.295,-4.2085,-3.9613,-3.8583,0.0,-3.6731,-3.8483,0.0,0.0,0.0,0.0,-5.363,-5.4066,-5.3797,0.0,-5.3154,0.0,-5.3154,-5.3154,-5.2812,0.0,-5.0811,-4.9935,-4.9563,-4.8956,-4.8759,-4.8969,-4.8728,-4.8606,-4.8606,-4.8452,-4.8328,-4.8172,-4.7907,-4.77,-4.762,-4.735,-4.7239,-4.7239,0.0,-4.7239,-4.7239,-4.7239,-4.7239,-4.7159,-4.6559,-4.6032,-4.5498,-4.3937,-4.3131,-4.2531,-4.1129,-4.0414,-4.0039,-3.9592,-3.9427,-3.9134,-3.7337,-3.6219,-3.523,-3.3694,-3.2582,-3.1767,-3.1386,-3.0728,-2.9819,-2.8195,-2.7269,-2.6325,-2.4828,-2.4533,-2.4533,-2.4533,-2.4533,-2.4039,-2.2791,-2.0832,-1.8986,-1.7754,-1.5874,-1.462,-1.462,-1.462,-1.424,-1.3103,-1.3544,-1.3279,-1.1831,-1.2132,-1.2288,-1.1714,-1.0371,-0.9247,-0.8338,-0.6778,-0.5872,-0.5616,-0.5355,-0.5957,-0.7651,-0.8011,-0.9949,-1.3514,-1.5885,-1.7596,-4.1328,-4.345,-4.5317,-4.5506,-4.5395,-4.5155,-4.4817,-4.4499,-4.3998,-4.2774,-4.2237,-4.1433,0.0,0.0,0.0,-4.5422,-4.7701,0.0,-5.3165,-5.3601,0.0,-5.3098,0.0,-5.3065,-5.3065,-5.2908,0.0,0.0,-5.0571,-4.9643,-4.8637,-4.8945,-4.8975,-4.8637,-4.8606,-4.8606,-4.8606,-4.8606,-4.8452,-4.8172,-4.7828,-4.748,-4.7269,-4.7269,-4.6997,-4.6559,-4.6804,-4.6723,-4.6559,-4.6559,-4.6476,-4.6364,-4.5751,-4.5157,-4.4465,-4.2886,-4.2018,-4.1481,-4.0526,-4.0235,-4.0235,-4.0235,-4.0235,-3.9846,-3.7905,-3.709,-3.6344,-3.4019,-3.3175,-3.2739,-3.2341,-3.1878,-3.108,-2.8701,-2.7895,-2.7082,-2.4995,-2.4533,-2.4533,-2.4533,-2.4533,-2.4294,-2.3814,-2.1334,-1.9233,-1.8626,-1.6252,-1.462,-1.462,-1.4458,-1.3879,-1.2848,-1.2906,-1.2572,-1.1215,-1.1424,-1.1451,-1.0821,-0.944,-0.8142,-0.7321,-0.5862,-0.4805,-0.4277,-0.4008,-0.4538,-0.5726,-0.6597,-0.8646,-1.2012,-1.6492,-1.8284,-4.0202,-4.1184,-4.1984,-4.4061,-4.481,-4.4988,-4.4468,-4.4351,-4.4267,-4.4047,-4.2975,-4.2371,0.0,0.0,-4.3846,-4.9478,-5.0551,-5.169,-5.4674,-5.5076,-5.4573,0.0,0.0,0.0,0.0,0.0,0.0,-4.9791,0.0,-5.0705,-4.8668,-4.9758,-4.9881,-4.8668,-4.8606,-4.8606,-4.8606,-4.8606,-4.8452,-4.8172,-4.759,-4.6916,-4.634,-4.6997,-4.6311,-4.4668,-4.5527,-4.5442,-4.4668,-4.4668,-4.4493,-4.4378,-4.5157,-4.429,-4.2639,-4.3131,-4.2177,-4.0603,-4.0358,-4.0235,-4.0235,-4.0235,-4.0235,-4.0041,-3.8809,-3.7428,-3.6067,-3.4746,-3.3393,-3.223,-3.1939,-3.1007,-2.9728,-2.8472,-2.7181,-2.6028,-2.4772,-2.4533,-2.4533,-2.4533,-2.4533,-2.4414,-2.4414,-2.1686,-1.9233,-1.8626,-1.6252,-1.462,-1.462,-1.3932,-1.3094,-1.2014,-1.2026,-1.1386,-0.9445,-1.0016,-0.9882,-0.8048,-0.7336,-0.6626,-0.5782,-0.4941,-0.4521,-0.4521,-0.339,-0.3388,-0.4521,-0.5896,-0.7958,-1.062,-1.22,-1.4676,-3.8125,-3.9633,-4.0826,-4.3592,-4.4081,-4.3945,-4.4114,-4.4199,-4.4199,-4.4148,-4.3695,-4.3545,-4.4047,-4.3712,-4.4684,-4.874,-4.9377,-5.0417,-5.34,-5.3802,-5.3635,-5.3132,-5.3065,-5.2908,0.0,0.0,0.0,-5.0895,-5.0925,-5.103,-5.1171,-5.1662,-5.1294,-4.9881,-4.9819,-4.942,-4.8606,-4.8606,-4.8452,-4.8172,-4.7078,-4.6506,-4.6257,-4.5696,-4.51,-4.4493,-4.4841,-4.4841,-4.4493,-4.4493,-4.4406,-4.4114,-4.3671,-4.2886,-4.2111,-4.1523,-4.0884,-4.0358,-4.0261,-4.0235,-4.0235,-4.0235,-4.0235,-3.9943,-3.8006,-3.694,-3.5963,-3.3804,-3.2759,-3.223,-3.1939,-3.0895,-2.9842,-2.9387,-2.7762,-2.6145,-2.5674,-2.4995,-2.4533,-2.4533,-2.4533,-2.4533,-2.4533,-2.2428,-1.9948,-1.7619,-1.5748,-1.4722,-1.4861,-1.4104,-1.3072,-1.2336,-1.1654,-1.0692,-0.9412,-0.9259,-0.8841,-0.8129,-0.6816,-0.6048,-0.5665,-0.482,-0.4114,-0.3402,-0.2977,-0.2977,-0.3402,-0.3155,-0.5538,-1.0161,-1.1695,-1.4993,-3.503,-3.6732,-3.8615,-4.182,-4.2901,-4.3333,-4.396,-4.4097,-4.4045,-4.4097,-4.4097,-4.4045,-4.4097,-4.4148,-4.512,-4.8104,-4.8403,-4.9347,-5.2629,-5.2812,-5.2687,-5.2687,-5.2687,0.0,0.0,0.0,0.0,-5.0611,-5.103,-5.1478,-5.1939,-5.283,-5.2707,-5.1324,-5.1263,-5.0833,-4.9942,-4.9451,-4.9049,-4.8733,-4.7449,-4.6723,-4.6588,-4.5442,-4.4406,-4.3519,-4.3876,-4.3876,-4.3519,-4.3429,-4.3222,-4.295,-4.2455,-4.1925,-4.136,-4.0884,-4.0526,-4.0235,-4.0235,-4.0235,-4.0164,-3.9723,-3.9943,-3.9748,-3.709,-3.6344,-3.5673,-3.3305,-3.2341,-3.214,-3.1939,-3.1251,-3.0426,-2.9501,-2.8108,-2.6732,-2.5808,-2.4995,-2.4533,-2.4533,-2.4533,-2.4414,-2.4294,-2.2656,-2.0425,-1.7743,-1.6126,-1.5209,-1.538,-1.4085,-1.2875,-1.1962,-1.1104,-1.0243,-0.9516,-0.8444,-0.7706,-0.7296,-0.5653,-0.458,-0.4215,-0.3634,-0.3053,-0.2181,-0.1744,-0.2035,-0.2906,-0.2094,-0.4522,-0.9912,-1.0728,-1.4518,-3.143,-3.2673,-3.5268,-3.877,-4.1324,-4.3114,-4.3826,-4.386,-4.3841,-4.4063,-4.3993,-4.3941,-4.4097,-4.4148,-4.5068,-4.8048,-4.7932,-4.8778,-5.2473,-5.2401,-5.1883,-5.1883,-5.1883,-5.1521,0.0,-5.0006,-4.9268,-4.8668,-5.114,-5.2092,-5.0741,-5.3229,-5.4089,-5.2799,-5.2737,-5.2737,-5.2676,-5.1324,-5.0346,-4.9938,-4.8494,-4.762,-4.7138,-4.6228,-4.429,-4.1643,-4.2666,-4.2547,-4.1549,-4.136,-4.1075,-4.0884,-4.1643,-4.1265,-4.0332,-4.1265,-4.098,-4.0235,-4.0235,-4.0235,-4.0041,-3.8908,-3.9304,-3.9625,-3.6194,-3.5591,-3.5486,-3.3305,-3.2271,-3.1848,-3.1828,-3.1828,-3.1139,-2.8701,-2.8126,-2.7431,-2.5011,-2.4549,-2.4564,-2.4429,-2.4429,-2.4325,-2.395,-2.2564,-2.0845,-1.9282,-1.7663,-1.6355,-1.5878,-1.4089,-1.2446,-1.099,-1.0202,-0.9754,-0.9754,-0.7752,-0.623,-0.5478,-0.3502,-0.2133,-0.1221,-0.1221,-0.1221,-0.1069,-0.0,-0.061,-0.3047,-0.2895,-0.522,-0.9602,-0.8738,-1.2607,-3.6709,0.0,0.0,-3.8436,-3.9153,-3.9481,-4.0511,-4.0772,-4.1406,-4.3404,-4.3941,-4.4045,-4.3993,-4.4045,-4.4929,-4.7318,-4.8082,-4.9229,-5.1843,-5.2047,-5.1883,-5.1883,-5.1387,-5.0533,-4.9299,-4.9,-4.9206,-4.9912,-5.1662,-5.2922,-5.3475,-5.5133,-5.5471,-5.412,-5.4089,-5.3628,-5.2676,-5.1745,-5.0908,-5.0186,-4.8422,-4.6825,-4.552,-4.4383,-4.3068,-4.1643,-4.1925,-4.1925,-4.1549,-4.136,-4.1075,-4.0814,-4.0936,-4.0648,-4.0235,-4.0526,-4.0429,-4.0235,-4.0235,-4.0235,-4.0138,-3.9846,-3.9846,-3.9453,-3.6814,-3.5859,-3.5253,-3.2957,-3.214,-3.1717,-3.067,-2.9861,-2.9063,-2.8356,-2.6866,-2.5588,-2.569,-2.5527,-2.5016,-2.4266,-2.4435,-2.4646,-2.4259,-2.2847,-2.1472,-2.0331,-1.8692,-1.721,-1.5953,-1.4796,-1.3396,-1.1553,-1.0309,-0.9446,-0.8982,-0.6995,-0.5478,-0.4723,-0.2744,-0.1374,-0.1221,-0.1221,-0.0763,0.0153,0.0458,0.0305,-0.0458,-0.0737,-0.1719,-0.3368,-0.4972,-0.8984,-3.3567,0.0,0.0,0.0,-3.5234,-3.5497,-4.0263,-3.989,-3.9462,-4.2778,-4.3698,-4.3837,-4.3612,-4.3612,-4.4465,0.0,-4.7395,-4.8287,-5.1063,-5.1153,-5.0948,-5.0948,-5.0252,-4.9489,-4.8683,-4.8606,-4.8945,-4.9635,-5.1539,-5.3014,-5.3751,-5.5594,-5.618,-5.5471,-5.544,-5.5072,-5.4335,-5.3235,-5.2203,-5.113,-4.9299,-4.7697,-4.6181,-4.4593,-4.3582,-4.2899,-4.2043,-4.1549,-4.1455,-4.117,-4.091,-4.0744,-4.0577,-4.0383,-4.0235,-4.0235,-4.0235,-4.0235,-4.0235,-3.9943,-3.9428,-3.8784,-3.8485,-3.7982,-3.5568,-3.483,-3.4511,-3.2739,-3.2029,-3.1717,-3.0895,-3.0219,-2.952,-2.8472,-2.7082,-2.6008,-2.5961,-2.5509,-2.5153,-2.4782,-2.4944,-2.4945,-2.4563,-2.3366,-2.2076,-2.1118,-2.0139,-1.8751,-1.6495,-1.5406,-1.4164,-1.2424,-1.1247,-0.9889,-0.8674,-0.6233,-0.4412,-0.3658,-0.1067,0.0305,0.0305,0.0305,0.0763,0.1375,0.1375,0.1069,0.0611,0.0297,-0.0289,-0.1122,-0.5854,-0.9627,-2.5468,-2.4641,0.0,-3.0083,-2.9861,-3.0882,0.0,0.0,-3.6678,-4.0854,-4.2158,-4.2488,-4.2414,-4.2602,-4.3671,-4.649,-4.6269,-4.6796,-4.9924,-4.9911,-4.9573,-4.9427,-4.8925,-4.8606,-4.8606,-4.8606,-4.8606,-4.8606,-5.0956,-5.2522,-5.2676,-5.5041,-5.6364,-5.6518,-5.6518,-5.6518,-5.6337,-5.4878,-5.3433,-5.2116,-5.0489,-4.9075,-4.784,-4.5855,-4.4844,-4.4654,-4.2657,-4.156,-4.1265,-4.0884,-4.0744,-4.0628,-4.0358,-4.0235,-4.0235,-4.0235,-4.0138,-4.0041,-4.0041,-3.9206,-3.8059,-3.6791,-3.6275,-3.5859,-3.3501,-3.3284,-3.3588,-3.254,-3.2029,-3.1828,-3.1717,-3.1605,-3.0895,-2.8472,-2.7966,-2.7408,-2.5789,-2.5306,-2.517,-2.5697,-2.5456,-2.5238,-2.499,-2.4023,-2.2782,-2.1734,-2.1599,-2.0424,-1.7353,-1.5723,-1.4532,-1.3494,-1.2144,-1.0488,-0.8674,-0.5472,-0.3194,-0.2286,0.0763,0.2596,0.2596,0.2596,0.2596,0.2596,0.2596,0.1985,0.0763,0.0299,-0.0436,-0.1403,-0.8687,-1.2175,0.0,0.0,0.0,0.0,0.0,0.0,0.0,0.0,-2.7758,-3.1966,-3.4534,-3.6362,-3.7473,-3.968,-4.2003,-4.3845,-4.5751,-4.7328,-4.8096,-4.8984,-4.9384,-4.888,-4.8683,-4.8606,-4.8606,-4.8606,-4.8606,-4.8606,-5.0034,-5.1447,-5.2645,-5.415,-5.5502,-5.6487,-5.6518,-5.6034,-5.5048,-5.4023,-5.2686,-5.0796,-4.9075,-4.7843,-4.7018,-4.5642,-4.458,-4.3624,-4.3217,-4.2391,-4.1455,-4.098,-4.0744,-4.0628,-4.0358,-4.0235,-4.0235,-4.0235,-3.9625,-3.8784,-3.8784,-3.7958,-3.6688,-3.6482,-3.6067,-3.544,-3.3998,-3.3567,-3.3242,-3.223,-3.1939,-3.1605,-3.0538,-2.9615,-2.8472,-2.6965,-2.6249,-2.5757,-2.5153,-2.5751,-2.6122,-2.5223,-2.5442,-2.5658,-2.5238,-2.4967,-2.4094,-2.1938,-2.1599,-2.0424,-1.7353,-1.5128,-1.3636,-1.3494,-1.1398,-0.9592,-0.8674,-0.502,-0.198,-0.0153,0.1526,0.2596,0.2596,0.2596,0.2596,0.2596,0.2596,0.2443,0.2138,0.0152,-0.1034,-0.1263,-0.687,-1.0468,0.0,0.0,0.0,0.0,0.0,0.0,0.0,0.0,0.0,0.0,0.0,-3.1808,0.0,0.0,-3.8978,-4.1923,-4.4386,-4.6254,-4.6907,-4.8204,-4.9,-4.8606,-4.8606,-4.8606,-4.8606,-4.8606,-4.8606,-4.8606,-4.9789,-5.1171,-5.2615,-5.3905,-5.5225,-5.6487,-5.6246,-5.5544,-5.467,-5.365,-5.2335,-5.0562,-4.9545,-4.8591,-4.7709,-4.6549,-4.5388,-4.4228,-4.3621,-4.2602,-4.136,-4.098,-4.0648,-4.0383,-4.0261,-4.0235,-4.0138,-3.9625,-3.9008,-3.8385,-3.7655,-3.6608,-3.5486,-3.5147,-3.4511,-3.3783,-3.3066,-3.2759,-3.254,-3.205,-3.1848,-3.1717,-3.1139,-2.9861,-2.8562,-2.7647,-2.6609,-2.5854,-2.5637,-2.5901,-2.6225,-2.5983,-2.5971,-2.6049,-2.5756,-2.5756,-2.4862,-2.1997,-2.1599,-2.0424,-1.7353,-1.5426,-1.3954,-1.3047,-1.1135,-0.9389,-0.8222,-0.5138,-0.2524,-0.1066,0.122,0.2596,0.2596,0.29,0.29,0.2596,0.29,0.29,0.2596,0.0452,-0.0733,-0.1263,-0.6252,-0.8474,0.0,0.0,0.0,0.0,0.0,0.0,0.0,0.0,0.0,0.0,0.0,0.0,0.0,0.0,0.0,-3.9537,-4.2547,-4.4817,-4.5919,-4.727,-4.8206,-4.8206,-4.8452,-4.8606,-4.8606,-4.8606,-4.8606,-4.8606,-4.9543,-5.0772,-5.2215,-5.326,-5.455,-5.6088,-5.5335,-5.4685,-5.4163,-5.3132,-5.1829,-5.0169,0.0,0.0,-4.8236,-4.7313,-4.6127,-4.468,-4.3779,-4.2505,-4.117,-4.0884,-4.0622,-4.0358,-4.0235,-4.0235,-4.0138,-3.8908,-3.8284,-3.7857,-3.6505,-3.5275,-3.4256,-3.3696,-3.2957,-3.212,-3.1939,-3.1848,0.0,-3.1848,-3.1828,-3.1717,-3.1717,-3.0538,-2.9229,-2.8592,-2.7444,-2.6419,-2.6243,-2.607,-2.6195,-2.6563,-2.6523,-2.6226,-2.6226,-2.6226,-2.5136,-2.1901,-2.147,-2.0358,-1.7136,-1.5629,-1.4319,-1.2925,-1.102,-0.9173,-0.7461,-0.5262,-0.3325,-0.1975,0.0907,0.2555,0.2542,0.3286,0.3428,0.2524,0.3114,0.313,0.2561,0.0738,-0.0288,-0.0975,-0.5308,-0.5945,0.0,0.0,0.0,0.0,0.0,0.0,0.0,0.0,0.0,0.0,0.0,0.0,0.0,0.0,0.0,0.0,-4.0492,-4.4449,-4.4716,-4.5888,-4.6717,-4.6717,-4.7792,-4.8606,-4.8606,-4.8606,-4.8606,-4.8606,-4.876,-4.9359,-5.071,0.0,0.0,0.0,0.0,-5.2826,-5.2593,-5.142,-5.0196,-4.8798,-4.8825,-4.8187,-4.7076,-4.6944,-4.5678,-4.3568,-4.341,-4.2505,-4.117,-4.0884,-4.0744,-4.0603,-4.0358,-4.0235,-4.0138,-3.8908,-3.7655,-3.6378,-3.5297,0.0,0.0,-3.243,-3.223,-3.1939,-3.1848,-3.1848,-3.1848,-3.1848,-3.1585,-3.1323,-3.1323,-3.02,-2.8901,-2.837,-2.7703,-2.6887,-2.6078,-2.6297,-2.6578,-2.6367,-2.6226,-2.6226,-2.6226,-2.6226,-2.5002,-2.1049,-2.1153,-2.0257,-1.6344,-1.458,-1.3614,-1.3391,0.0,0.0,-0.5885,-0.4643,-0.2747,-0.0,0.1612,0.2547,0.2902,0.359,0.3551,0.2665,0.2796,0.2727,0.2287,0.0142,-0.0701,-0.0,-0.2147,-0.2691,0.0,0.0,0.0,0.0,0.0,0.0,0.0,0.0,0.0,0.0,0.0,0.0,0.0,0.0,0.0,0.0,-3.66,-3.9859,-3.9809,-4.2294,-4.465,-4.6287,-4.6994,-4.7669,-4.8545,-4.8606,-4.8606,-4.8606,-4.7955,-4.8293,-4.9868,-4.957,-5.0107,-5.167,-5.113,-5.0348,-4.9348,-4.8378,-4.7486,-4.6601,-4.6601,-4.6364,-4.5785,-4.5785,-4.4966,-4.3357,-4.3161,-4.2337,-4.1006,-4.0744,-4.0577,0.0,0.0,0.0,0.0,0.0,-3.7247,-3.5297,-3.3825,-3.2869,-3.223,-3.214,-3.1939,-3.1848,-3.1848,-3.1848,-3.1848,-3.1848,-3.1585,-3.1323,-3.1323,-3.0087,-2.868,-2.8418,-2.7561,-2.6553,-2.6166,-2.6336,-2.6382,-2.6226,-2.6226,0.0,-2.6226,-2.6226,-2.504,-2.1588,-2.1317,-2.0124,-1.5865,-1.4203,-1.3051,-1.2102,-1.0055,-0.774,-0.5255,-0.3719,0.0,0.0,0.0,0.2506,0.2626,0.3497,0.0,0.0,0.0,0.0,0.0,0.0,0.0,0.0,-0.0842,-0.1414,0.0,0.0,0.0,0.0,0.0,0.0,0.0,0.0,0.0,0.0,0.0,0.0,0.0,0.0,0.0,0.0,0.0,-3.5671,-3.5341,-3.8485,-4.1838,-4.4506,-4.5489,-4.6195,-4.6883,-4.7547,-4.7977,-4.7977,-4.7507,-4.7709,-4.8751,-4.8533,-4.8621,-4.9032,-4.876,-4.7897,-4.6345,-4.5926,-4.5664,-4.5364,-4.4943,-4.468,-4.4575,-4.4707,-4.3922,-4.2786,-4.2494,-4.1758,-4.0744,-4.0699,-4.048,-4.0235,-3.9943,-3.923,-3.8485,-3.8184,-3.6655,-3.4599,-3.2869,-3.223,-3.212,-3.1939,-3.1848,-3.1848,-3.1848,-3.1848,-3.1828,-3.1717,-3.1474,-3.1231,-3.1119,-2.9955,-2.8931,-2.8678,-2.7606,-2.6421,-2.6266,-2.5991,-2.5771,-2.5941,-2.5827,-2.5714,-2.5714,-2.5856,-2.4862,-2.1564,-2.1317,0.0,-1.587,-1.4266,-1.3015,-1.1693,-0.966,-0.7365,-0.5198,-0.3275,-0.1445,0.0457,0.181,0.2552,0.2722,0.3259,0.4194,0.5772,0.4788,0.4224,0.0,0.0,0.0,0.0,0.0,0.0,0.0,0.0,0.0,0.0,0.0,0.0,0.0,0.0,0.0,0.0,0.0,0.0,0.0,0.0,0.0,0.0,0.0,0.0,-3.2628,-3.5097,-3.7829,-4.0331,-4.2939,-4.4076,-4.2878,-4.5059,-4.6533,-4.6533,-4.7564,-4.7828,-4.7027,-4.751,-4.754,-4.6926,-4.6718,-4.5787,-4.4063,-4.4755,-4.5546,-4.6154,-4.4702,-4.3779,-4.341,-4.356,-4.2709,-4.1222,-4.1032,-4.077,-4.0603,-4.0628,-4.048,-4.0138,-3.9008,-3.8509,-3.8409,-3.7318,-3.6077,-3.4599,-3.2869,-3.214,-3.1939,-3.1848,-3.1848,-3.1848,-3.1848,-3.1848,-3.1828,-3.1454,-3.1119,-3.0822,-3.0577,-3.0219,-2.9707,-2.9106,-2.811,-2.6975,-2.6411,-2.5295,-2.459,-2.5202,-2.4818,-2.4391,-2.4391,-2.4903,-2.3945,-2.0152,-2.0637,0.0,-1.625,-1.4403,-1.3329,-1.3315,-1.0453,-0.7744,-0.5618,-0.3632,-0.159,0.0457,0.1752,0.273,0.3388,0.3016,0.3759,0.5919,0.5093,0.433,0.3735,0.0,0.0,0.0,0.0,0.0,0.0,0.0,0.0,0.0,0.0,0.0,0.0,0.0,0.0,0.0,0.0,0.0,0.0,0.0,0.0,0.0,0.0,0.0,0.0,0.0,-3.7321,-4.0584,-4.1863,-4.2268,-4.1737,-4.2988,-4.3861,-4.373,-4.423,-4.455,-4.4741,-4.4474,-4.4244,-4.3917,-4.3485,-4.298,-4.2408,-4.2698,-4.2962,-4.3226,-4.2672,-4.2355,-4.2223,-4.2286,-4.1858,-4.117,-4.0814,-4.0622,-4.0648,-4.0455,-4.0358,-4.0138,-3.8908,-3.8107,-3.7295,-3.624,-3.4768,-3.3326,-3.2671,-3.2251,-3.1848,-3.1848,-3.1848,-3.1848,-3.1848,-3.1848,-3.1828,-3.1717,-3.127,-3.0934,-3.0822,-3.0332,-2.9821,-2.9088,-2.8665,-2.8019,-2.6605,-2.5857,-2.5411,-2.4751,-2.3936,-2.3087,-2.2135,-2.3803,-2.3818,-1.9332,-2.0673,-2.0634,-1.6622,-1.4955,-1.3472,-1.1517,-0.9722,-0.7458,-0.4876,-0.3301,-0.1647,0.0457,0.2073,0.3355,0.4116,0.4935,0.5847,0.6881,0.6627,0.5712,0.4249,0.0,0.0,0.0,0.0,0.0,0.0,0.0,0.0,0.0,0.0,0.0,0.0,0.0,0.0,0.0,0.0,0.0,0.0,0.0,0.0,0.0,0.0,0.0,0.0,0.0,0.0,-4.0134,-4.0193,0.0,-3.8155,-3.8544,-3.8639,-3.8057,-3.9391,-4.0451,-4.1095,-4.1511,-4.1763,-4.1846,-4.1181,-4.1089,-4.1643,-4.1643,-4.1643,-4.1643,-4.1643,-4.1643,-4.1549,-4.1265,-4.1075,-4.098,-4.0622,-4.0526,-4.0429,-4.0332,-3.9777,-3.885,-3.7435,-3.6004,-3.4586,-3.3897,-3.2735,-3.1823,-3.2552,-3.2671,-3.2499,-3.219,-3.1427,-3.05,-3.0021,-2.9474,-2.9192,-3.0033,-2.9867,-2.9672,-3.0588,-3.0332,-2.986,-2.9437,-2.8975,-2.8283,-2.6554,-2.5713,-2.5122,-2.5004,-2.4233,-2.308,-2.1188,-2.2255,-2.2243,-1.8718,-1.9504,-1.9692,-1.7572,-1.5473,-1.3322,-1.1217,-0.9269,-0.731,-0.503,-0.3177,-0.1506,-0.0151,0.1767,0.3182,0.3578,0.5064,0.595,0.6441,0.6931,0.6353,0.0,0.0,0.0,0.0,0.0,0.0,0.0,0.0,0.0,0.0,0.0,0.0,0.0,0.0,0.0,0.0,0.0,0.0,0.0,0.0,0.0,0.0,0.0,0.0,0.0,0.0,0.0,-3.8909,-3.7841,0.0,0.0,0.0,0.0,-2.9848,-3.3316,-3.5542,-3.5845,-3.8344,-3.9999,-4.0715,-3.9658,-3.9913,-4.1473,-4.1432,-4.1459,-4.1485,-4.159,-4.1643,-4.1549,-4.0718,-4.0429,-4.0622,-4.0332,-4.0235,-4.0235,-4.0006,-3.8538,-3.6379,-3.4398,-3.2412,-3.0525,-3.0522,-3.0154,-2.9982,-3.2101,-3.3139,-3.346,-3.2639,-3.046,-2.7927,-2.658,-2.5008,0.0,0.0,-2.6944,-2.7276,-2.9707,-3.0028,-2.9803,-2.9917,-2.9045,-2.7895,-2.6598,-2.4905,-2.401,0.0,-2.5248,-2.3713,-2.085,0.0,-1.9489,-1.8042,-1.7359,-1.754,-1.8667,-1.5724,-1.3172,-1.213,-0.9274,-0.701,-0.5949,-0.2984,-0.1324,-0.1177,0.1148,0.2378,0.2317,0.3648,0.4546,0.4893,0.6117,0.0,0.0,0.0,0.0,0.0,0.0,0.0,0.0,0.0,0.0,0.0,0.0,0.0,0.0,0.0,0.0,0.0,0.0,0.0,0.0,0.0,0.0,0.0,0.0,0.0,0.0,-2.9273,-3.2356,-3.6725,-3.3949,-3.0493,0.0,0.0,0.0,0.0,0.0,0.0,-2.8977,-3.1351,-3.38,-3.6151,-3.5408,-3.6394,-3.9407,-3.9231,-3.9138,-3.9164,-4.0826,-4.1643,-4.1643,-4.136,-4.0884,-4.0332,-4.0235,-4.0235,-3.9981,-3.6619,-3.4803,-3.3927,-3.0521,-2.8867,-2.8323,-2.7634,-2.6775,-2.6349,-2.9584,-3.0256,-2.9482,-2.8897,-2.8004,-2.6645,-2.3797,0.0,0.0,0.0,0.0,-2.2983,-2.6649,-2.7427,-2.7677,-2.9518,-2.9728,-2.9159,-2.7895,-2.7275,-2.5889,0.0,-2.1248,-1.9547,-1.5209,0.0,0.0,0.0,0.0,-1.7084,-1.7232,-1.5964,-1.4078,-1.1486,-0.9712,-0.7143,-0.3198,-0.1341,-0.0147,0.0881,0.2681,0.4251,0.5298,0.5404,0.6231,0.781,0.0,0.0,0.0,0.0,0.0,0.0,0.0,0.0,0.0,0.0,0.0,0.0,0.0,0.0,0.0,0.0,0.0,0.0,0.0,0.0,0.0,0.0,0.0,0.0,0.0,0.0,0.0,-2.8392,-3.0501,-3.2492,-2.9392,-2.6126,0.0,0.0,0.0,0.0,0.0,0.0,0.0,0.0,0.0,-3.0076,-2.9119,-3.0927,-3.6013,-3.4898,-3.4792,-3.5866,-3.945,-4.0832,-4.0166,-3.9867,-3.9682,-3.9362,-3.9362,-3.9005,-3.802,-3.427,-3.1298,-2.8719,0.0,0.0,0.0,0.0,-2.186,-2.1591,-2.467,-2.5439,0.0,-2.4896,0.0,0.0,0.0,0.0,0.0,0.0,0.0,0.0,0.0,0.0,-2.7739,-2.9176,-2.9506,-2.9072,-2.7425,-2.6072,-2.4051,0.0,-1.9582,-1.7994,-1.4026,0.0,0.0,0.0,0.0,-1.5163,-1.6212,-1.4926,-1.3047,-1.0868,-0.8135,-0.5166,-0.1979,0.0442,0.2019,0.2596,0.3715,0.484,0.5582,0.5473,0.5773,0.0,0.0,0.0,0.0,0.0,0.0,0.0,0.0,0.0,0.0,0.0,0.0,0.0,0.0,0.0,0.0,0.0,0.0,0.0,0.0,0.0,0.0,0.0,0.0,0.0,0.0,0.0,0.0,0.0,-2.9265,-2.7319,0.0,0.0,0.0,0.0,0.0,0.0,0.0,0.0,0.0,0.0,0.0,0.0,0.0,-2.4924,-3.1248,-2.934,-2.9528,-3.1946,-3.6698,-3.8369,-3.7344,-3.6555,-3.6569,-3.7371,-3.674,0.0,-3.5191,-3.1781,0.0,0.0,0.0,0.0,0.0,0.0,0.0,0.0,0.0,0.0,0.0,0.0,0.0,0.0,0.0,0.0,0.0,0.0,0.0,0.0,0.0,0.0,-2.7988,-2.7989,-2.8289,-2.7847,0.0,-2.2584,-2.0445,-1.9283,-1.8388,0.0,0.0,0.0,0.0,0.0,0.0,0.0,-1.5113,-1.3281,-1.1303,-1.0072,-0.5808,-0.2418,-0.0908,0.2608,0.4502,0.4346,0.4628,0.4871,0.4905,0.4778,0.0,0.0,0.0,0.0,0.0,0.0,0.0,0.0,0.0,0.0,0.0,0.0,0.0,0.0,0.0,0.0,0.0,0.0,0.0,0.0,0.0,0.0,0.0,0.0,0.0,0.0,0.0,0.0,0.0,0.0,0.0,0.0,0.0,0.0,0.0,0.0,0.0,0.0,0.0,0.0,0.0,0.0,0.0,0.0,0.0,0.0,0.0,0.0,0.0,0.0,-2.9326,-3.0937,-3.2459,-3.0089,-3.0307,-3.2291,-2.8656,-2.9576,-3.3082,-2.5767,0.0,0.0,0.0,0.0,0.0,0.0,0.0,0.0,0.0,0.0,0.0,0.0,0.0,0.0,0.0,0.0,0.0,0.0,0.0,0.0,0.0,0.0,0.0,0.0,-2.5044,-2.5462,0.0,0.0,0.0,0.0,0.0,0.0,0.0,0.0,0.0,0.0,0.0,0.0,-1.3174,-1.3684,-1.248,-0.812,-0.4817,-0.1025,0.3972,0.5724,0.6834,0.7381,0.6426,0.6103,0.0,0.0,0.0,0.0,0.0,0.0,0.0,0.0,0.0,0.0,0.0,0.0,0.0,0.0,0.0,0.0,0.0,0.0,0.0,0.0,0.0,0.0,0.0,0.0,0.0,0.0,0.0,0.0,0.0,0.0,0.0,0.0,0.0,0.0,0.0,0.0,0.0,0.0,0.0,0.0,0.0,0.0,0.0,0.0,0.0,0.0,0.0,0.0,0.0,0.0,0.0,0.0,0.0,0.0,0.0,0.0,0.0,0.0,0.0,-2.296,0.0,0.0,0.0,0.0,0.0,0.0,0.0,0.0,0.0,0.0,0.0,0.0,0.0,0.0,0.0,0.0,0.0,0.0,0.0,0.0,0.0,0.0,0.0,0.0,0.0,0.0,0.0,0.0,0.0,0.0,0.0,0.0,0.0,0.0,0.0,0.0,0.0,0.0,0.0,0.0,-1.1673,-1.1792,-1.0474,-0.6409,-0.1833,0.2982,0.7808,1.0801,1.1932,1.0888,0.973,0.0,0.0,0.0,0.0,0.0,0.0,0.0,0.0,0.0,0.0,0.0,0.0,0.0,0.0,0.0,0.0,0.0,0.0,0.0,0.0,0.0,0.0,0.0,0.0,0.0,0.0,0.0,0.0,0.0,0.0,0.0,0.0,0.0,0.0,0.0,0.0,0.0,0.0,0.0,0.0,0.0,0.0,0.0,0.0,0.0,0.0,0.0,0.0,0.0,0.0,0.0,0.0,0.0,0.0,0.0,0.0,0.0,0.0,0.0,-2.2989,0.0,0.0,0.0,0.0,0.0,0.0,0.0,0.0,0.0,0.0,0.0,0.0,0.0,0.0,0.0,0.0,0.0,0.0,0.0,0.0,0.0,0.0,0.0,0.0,0.0,0.0,0.0,0.0,0.0,0.0,0.0,0.0,0.0,0.0,0.0,0.0,0.0,0.0,0.0,0.0,0.0,-1.0352,-0.9849,-0.7973,-0.3748,0.2583,0.81,1.2273,1.6558,1.7604,1.4622,1.3241,0.0,0.0,0.0,0.0,0.0,0.0,0.0,0.0,0.0,0.0,0.0,0.0,0.0,0.0,0.0,0.0,0.0,0.0,0.0,0.0,0.0,0.0,0.0,0.0,0.0,0.0,0.0,0.0,0.0,0.0,0.0,0.0,0.0,0.0,0.0,0.0,0.0,0.0,0.0,0.0,0.0,0.0,0.0,0.0,0.0,0.0,0.0,0.0,0.0,0.0,0.0,0.0,0.0,0.0,0.0,0.0,0.0,0.0,0.0,0.0,0.0,0.0,0.0,0.0,0.0,0.0,0.0,0.0,0.0,0.0,0.0,0.0,0.0,0.0,0.0,0.0,0.0,0.0,0.0,0.0,0.0,0.0,0.0,0.0,0.0,0.0,0.0,0.0,0.0,0.0,0.0,0.0,0.0,0.0,0.0,0.0,0.0,0.0,0.0,0.0,0.0,-0.9134,-0.9277,-0.6778,0.0795,0.8055,1.4181,1.8818,2.2633,2.2959,1.8446,0.0,0.0,0.0,0.0,0.0,0.0,0.0,0.0,0.0,0.0,0.0,0.0,0.0,0.0,0.0,0.0,0.0,0.0,0.0,0.0,0.0,0.0,0.0,0.0,0.0,0.0,0.0,0.0,0.0,0.0,0.0,0.0,0.0,0.0,0.0,0.0,0.0,0.0,0.0,0.0,0.0,0.0,0.0,0.0,0.0,0.0,0.0,0.0,0.0,0.0,0.0,0.0,0.0,0.0,0.0,0.0,0.0,0.0,0.0,0.0,0.0,0.0,0.0,0.0,0.0,0.0,0.0,0.0,0.0,0.0,0.0,0.0,0.0,0.0,0.0,0.0,0.0,0.0,0.0,0.0,0.0,0.0,0.0,0.0,0.0,0.0,0.0,0.0,0.0,0.0,0.0,0.0,0.0,0.0,0.0,0.0,0.0,0.0,0.0,0.0,0.0,0.0,-0.823,-0.6412,-0.2458,0.5326,1.313,2.0211,2.6125,2.9645,2.875,2.2029,0.0,0.0,0.0,0.0,0.0,0.0,0.0,0.0,0.0,0.0,0.0,0.0,0.0,0.0,0.0,0.0,0.0,0.0,0.0,0.0,0.0,0.0,0.0,0.0,0.0,0.0,0.0,0.0,0.0,0.0,0.0,0.0,0.0,0.0,0.0,0.0,0.0,0.0,0.0,0.0,0.0,0.0,0.0,0.0,0.0,0.0,0.0,0.0,0.0,0.0,0.0,0.0,0.0,0.0,0.0,0.0,0.0,0.0,0.0,0.0,0.0,0.0,0.0,0.0,0.0,0.0,0.0,0.0,0.0,0.0,0.0,0.0,0.0,0.0,0.0,0.0,0.0,0.0,0.0,0.0,0.0,0.0,0.0,0.0,0.0,0.0,0.0,0.0,0.0,0.0,0.0,0.0,0.0,0.0,0.0,0.0,0.0,0.0,0.0,0.0,0.0,0.0,-0.6419,-0.307,0.228,1.0665,1.8588,2.6023,3.2689,3.5926,3.4003,2.5715,0.0,0.0,0.0,0.0,0.0,0.0,0.0,0.0,0.0,0.0,0.0,0.0,0.0,0.0,0.0,0.0,0.0,0.0,0.0,0.0,0.0,0.0,0.0,0.0,0.0,0.0,0.0,0.0,0.0,0.0,0.0,0.0,0.0,0.0,0.0,0.0,0.0,0.0,0.0,0.0,0.0,0.0,0.0,0.0,0.0,0.0,0.0,0.0,0.0,0.0,0.0,0.0,0.0,0.0,0.0,0.0,0.0,0.0,0.0,0.0,0.0,0.0,0.0,0.0,0.0,0.0,0.0,0.0,0.0,0.0,0.0,0.0,0.0,0.0,0.0,0.0,0.0,0.0,0.0,0.0,0.0,0.0,0.0,0.0,0.0,0.0,0.0,0.0,0.0,0.0,0.0,0.0,0.0,0.0,0.0,0.0,0.0,0.0,0.0,0.0,0.0,0.0,-0.3273,0.0729,0.6837,1.6927,2.4678,3.1683,3.8225,4.0798,3.8425,0.0,0.0,0.0,0.0,0.0,0.0,0.0,0.0,0.0,0.0,0.0,0.0,0.0,0.0,0.0,0.0,0.0,0.0,0.0,0.0,0.0,0.0,0.0,0.0,0.0,0.0,0.0,0.0,0.0,0.0,0.0,0.0,0.0,0.0,0.0,0.0,0.0,0.0,0.0,0.0,0.0,0.0,0.0,0.0,0.0,0.0,0.0,0.0,0.0,0.0,0.0,0.0,0.0,0.0,0.0,0.0,0.0,0.0,0.0,0.0,0.0,0.0,0.0,0.0,0.0,0.0,0.0,0.0,0.0,0.0,0.0,0.0,0.0,0.0,0.0,0.0,0.0,0.0,0.0,0.0,0.0,0.0,0.0,0.0,0.0,0.0,0.0,0.0,0.0,0.0,0.0,0.0,0.0,0.0,0.0,0.0,0.0,0.0,0.0,0.0,0.0,0.0,0.0,-0.2114,0.3598,1.1086,0.0,2.8972,3.6338,4.2807,4.4529,4.1533,3.2838,0.0,0.0,0.0,0.0,0.0,0.0,0.0,0.0,0.0,0.0,0.0,0.0,0.0,0.0,0.0,0.0,0.0,0.0,0.0,0.0,0.0,0.0,0.0,0.0,0.0,0.0,0.0,0.0,0.0,0.0,0.0,0.0,0.0,0.0,0.0,0.0,0.0,0.0,0.0,0.0,0.0,0.0,0.0,0.0,0.0,0.0,0.0,0.0,0.0,0.0,0.0,0.0,0.0,0.0,0.0,0.0,0.0,0.0,0.0,0.0,0.0,0.0,0.0,0.0,0.0,0.0,0.0,0.0,0.0,0.0,0.0,0.0,0.0,0.0,0.0,0.0,0.0,0.0,0.0,0.0,0.0,0.0,0.0,0.0,0.0,0.0,0.0,0.0,0.0,0.0,0.0,0.0,0.0,0.0,0.0,0.0,0.0,0.0,0.0,0.0,0.0,0.0,0.0,0.6372,1.4599,0.0,3.2229,3.9372,4.5432,4.6715,4.3157,3.3924,0.0,0.0,0.0,0.0,0.0,0.0,0.0,0.0,0.0,0.0,0.0,0.0,0.0,0.0,0.0,0.0,0.0,0.0,0.0,0.0,0.0,0.0,0.0,0.0,0.0,0.0,0.0,0.0,0.0,0.0,0.0,0.0,0.0,0.0,0.0,0.0,0.0,0.0,0.0,0.0,0.0,0.0,0.0,0.0,0.0,0.0,0.0,0.0,0.0,0.0,0.0,0.0,0.0,0.0,0.0,0.0,0.0,0.0,0.0,0.0,0.0,0.0,0.0,0.0,0.0,0.0,0.0,0.0,0.0,0.0,0.0,0.0,0.0,0.0,0.0,0.0,0.0,0.0,0.0,0.0,0.0,0.0,0.0,0.0,0.0,0.0,0.0,0.0,0.0,0.0,0.0,0.0,0.0,0.0,0.0,0.0,0.0,0.0,0.0,0.0,0.0,0.0,0.0,0.8659,1.7169,2.6781,3.4446,4.1118,4.6648,4.7458,4.3548,3.3694,3.0455,0.0,0.0,0.0,0.0,0.0,0.0,0.0,0.0,0.0,0.0,0.0,0.0,0.0,0.0,0.0,0.0,0.0,0.0,0.0,0.0,0.0,0.0,0.0,0.0,0.0,0.0,0.0,0.0,0.0,0.0,0.0,0.0,0.0,0.0,0.0,0.0,0.0,0.0,0.0,0.0,0.0,0.0,0.0,0.0,0.0,0.0,0.0,0.0,0.0,0.0,0.0,0.0,0.0,0.0,0.0,0.0,0.0,0.0,0.0,0.0,0.0,0.0,0.0,0.0,0.0,0.0,0.0,0.0,0.0,0.0,0.0,0.0,0.0,0.0,0.0,0.0,0.0,0.0,0.0,0.0,0.0,0.0,0.0,0.0,0.0,0.0,0.0,0.0,0.0,0.0,0.0,0.0,0.0,0.0,0.0,0.0,0.0,0.0,0.0,0.0,0.0,0.0,0.8337,1.7252,2.8375,3.5318,4.1986,4.9049,4.7604,4.3257,3.6125,3.0486,0.0,0.0,0.0,0.0,0.0,0.0,0.0,0.0,0.0,0.0,0.0,0.0,0.0,0.0,0.0,0.0,0.0,0.0,0.0,0.0,0.0,0.0,0.0,0.0,0.0,0.0,0.0,0.0,0.0,0.0,0.0,0.0,0.0,0.0,0.0,0.0,0.0,0.0,0.0,0.0,0.0,0.0,0.0,0.0,0.0,0.0,0.0,0.0,0.0,0.0,0.0,0.0,0.0,0.0,0.0,0.0,0.0,0.0,0.0,0.0,0.0,0.0,0.0,0.0,0.0,0.0,0.0,0.0,0.0,0.0,0.0,0.0,0.0,0.0,0.0,0.0,0.0,0.0,0.0,0.0,0.0,0.0,0.0,0.0,0.0,0.0,0.0,0.0,0.0,0.0,0.0,0.0,0.0,0.0,0.0,0.0,0.0,0.0,0.0,0.0,0.0,0.0,0.5144,1.4019,2.7801,3.5493,4.2065,4.8247,4.7251,4.291,3.5,2.9396,0.0,0.0,0.0,0.0,0.0,0.0,0.0,0.0,0.0,0.0,0.0,0.0,0.0,0.0,0.0,0.0,0.0,0.0,0.0,0.0,0.0,0.0,0.0,0.0,0.0,0.0,0.0,0.0,0.0,0.0,0.0,0.0,0.0,0.0,0.0,0.0,0.0,0.0,0.0,0.0,0.0,0.0,0.0,0.0,0.0,0.0,0.0,0.0,0.0,0.0,0.0,0.0,0.0,0.0,0.0,0.0,0.0,0.0,0.0,0.0,0.0,0.0,0.0,0.0,0.0,0.0,0.0,0.0,0.0,0.0,0.0,0.0,0.0,0.0,0.0,0.0,0.0,0.0,0.0,0.0,0.0,0.0,0.0,0.0,0.0,0.0,0.0,0.0,0.0,0.0,0.0,0.0,0.0,0.0,0.0,0.0,0.0,0.0,0.0,0.0,0.0,0.0,0.0,0.9834,2.4767,3.453,4.176,4.6301,4.6392,4.219,3.2605,0.0,0.0,0.0,0.0,0.0,0.0,0.0,0.0,0.0,0.0,0.0,0.0,0.0,0.0,0.0,0.0,0.0,0.0,0.0,0.0,0.0,0.0,0.0,0.0,0.0,0.0,0.0,0.0,0.0,0.0,0.0,0.0,0.0,0.0,0.0,0.0,0.0,0.0,0.0,0.0,0.0,0.0,0.0,0.0,0.0,0.0,0.0,0.0,0.0,0.0,0.0,0.0,0.0,0.0,0.0,0.0,0.0,0.0,0.0,0.0,0.0,0.0,0.0,0.0,0.0,0.0,0.0,0.0,0.0,0.0,0.0,0.0,0.0,0.0,0.0,0.0,0.0,0.0,0.0,0.0,0.0,0.0,0.0,0.0,0.0,0.0,0.0,0.0,0.0,0.0,0.0,0.0,0.0,0.0,0.0,0.0,0.0,0.0,0.0,0.0,0.0,0.0,0.0,0.0,0.0,1.6021,3.0455,4.152,4.6428,4.4826,4.015,3.2282,0.0,0.0,0.0,0.0,0.0,0.0,0.0,0.0,0.0,0.0,0.0,0.0,0.0,0.0]}],[{"header":{"parameterUnit":"kt","parameterCategory":2,"dx":1,"dy":1,"la1":29.285339999999998,"la2":30.599998999999997,"lo1":-89.70041500000002,"lo2":-87.6738589999976,"nx":112,"ny":82,"refTime":"2022-10-05T00:00:00:Z","depth":0,"parameterNumber":2,"parameterNumberName":"V-component_of_WINDS"},"data":[2.879,3.0622,0.0,2.3735,2.3385,0.0,1.601,0.0,0.0,0.0,0.0,0.0,0.0,0.0,0.0,0.0,0.0,0.0,0.0,0.0,0.0,0.0,0.0,0.0,0.0,0.0,0.0,0.0,0.0,0.0,0.0,0.0,4.2675,4.5492,4.3835,4.3477,4.468,4.2546,4.2092,4.3281,4.2798,4.2133,4.1254,3.9044,3.6988,3.4949,3.1932,3.0372,2.9885,2.9158,2.8801,2.8621,2.7888,2.779,2.7905,2.6727,2.5881,2.5198,2.4405,2.3712,2.31,2.2385,2.1398,2.0398,1.9687,1.9098,1.8656,1.8442,1.8305,1.8227,1.8227,1.8435,1.8604,1.892,1.9142,1.9379,1.9693,1.8872,1.8061,1.8225,1.8626,1.8705,1.7906,1.5911,1.48,1.5701,1.5876,1.5941,1.6086,1.626,1.6499,1.68,1.5284,1.3742,1.259,1.2033,1.1521,1.1176,1.1093,1.126,1.1688,1.1616,1.181,1.2353,1.181,1.1631,1.188,1.1631,1.1543,1.1543,1.1543,1.0579,0.0,0.0,2.6059,1.8416,0.0,0.0,0.0,0.0,0.0,0.0,0.0,0.0,0.0,0.0,0.0,0.0,0.0,0.0,0.0,0.0,0.0,0.0,0.0,0.0,0.0,0.0,0.0,0.0,0.0,0.0,0.0,4.1119,4.2823,4.5366,4.4271,4.4168,4.5211,4.3249,4.2802,4.3809,4.3019,4.2253,4.1457,3.9086,3.7168,3.5499,3.2591,3.0377,2.8815,2.8102,2.7345,2.656,2.5814,2.6303,2.7109,2.4371,2.2822,2.2072,2.2179,2.1835,2.1191,2.0359,1.9461,1.8473,1.7392,1.6894,1.6689,1.6452,1.6468,1.6721,1.6879,1.68,1.6753,1.7309,1.7322,1.7366,1.8094,1.7291,1.6483,1.6753,1.6974,1.6958,1.6658,1.4557,1.318,1.4327,1.4489,1.4489,1.4489,1.4489,1.4476,1.4407,1.2389,1.0936,1.06,1.061,1.0441,0.9991,0.9991,1.0243,1.0747,1.0673,1.0852,1.1271,1.0778,1.0525,1.062,1.0094,1.0,1.0253,0.9831,0.8628,0.0,0.0,0.0,1.308,0.0,0.0,0.0,0.0,1.2025,0.0,0.0,0.0,0.0,0.0,0.0,0.0,0.0,0.0,0.0,0.0,0.0,0.0,0.0,0.0,0.0,0.0,0.0,0.0,0.0,0.0,3.8897,4.054,4.1998,4.3811,4.3604,4.4115,4.5426,4.4184,4.3528,4.3485,4.0605,3.9184,3.9012,3.647,3.5752,3.6433,3.4977,3.2145,2.8558,2.7933,2.6292,2.3978,2.3397,2.4192,2.5188,2.0745,1.8829,1.848,1.9489,1.9126,1.7977,1.6937,1.6578,1.6073,1.4352,1.4379,1.4891,1.4326,1.4502,1.5014,1.5656,1.5416,1.5014,1.5525,1.527,1.5189,1.6021,1.543,1.5094,1.5941,1.5299,1.4652,1.4652,1.4069,1.3484,1.3484,1.3484,1.3484,1.3389,1.3402,1.2059,0.8645,0.8312,0.8312,0.8312,0.9087,0.952,0.9248,0.9248,0.9408,0.9653,0.9653,0.9662,0.969,0.9426,0.9426,0.969,0.8288,0.794,0.8535,0.7436,0.65,1.4684,0.0,0.0,0.0,0.0,0.0,0.0,0.0,0.0,0.0,0.0,0.0,0.0,0.0,0.0,0.0,0.0,0.0,0.0,0.0,0.0,0.0,0.0,0.0,0.0,0.0,0.0,0.0,0.0,0.0,3.8683,3.9671,4.0709,4.2024,4.2056,4.2755,4.4363,4.4019,4.3634,4.3274,4.3002,4.1699,3.9453,3.8287,3.7201,3.6118,3.4022,3.0286,2.5655,2.5559,2.2841,1.8682,1.92,1.8866,1.7978,1.6873,1.6353,1.6199,1.5921,1.5605,1.524,1.4951,1.4834,1.4716,1.3907,1.3174,1.2625,1.2789,1.2884,1.313,1.3716,1.3879,1.3892,1.3673,1.3824,1.3798,1.32,1.226,1.1423,1.0915,0.9439,0.8195,0.8195,1.0149,1.1772,1.1772,1.1772,1.0841,0.8195,0.8381,0.8474,0.7464,0.7385,0.7206,0.685,0.7535,0.797,0.7885,0.7721,0.7978,0.873,0.8908,0.9078,0.9154,0.8815,0.8653,0.8738,0.8304,0.8211,0.8381,0.6001,0.4092,0.0,0.0,0.0,0.0,0.0,0.0,1.2243,0.0,1.1731,0.0,0.0,0.0,0.0,0.0,0.0,0.0,0.0,0.0,0.0,0.0,0.0,0.0,0.0,0.0,0.0,0.0,0.0,0.0,0.0,3.1803,3.7907,3.8347,3.9102,4.0616,4.0616,4.1318,4.2897,4.3093,4.3025,4.2608,4.2569,4.1424,3.9213,3.8406,3.7478,3.6485,3.5524,3.2178,2.7265,2.5222,2.1802,1.7873,1.7493,1.5277,1.2396,1.2456,1.2306,1.2143,1.2565,1.2237,1.1709,1.2634,1.2577,1.1953,1.1113,1.0727,1.0589,1.0318,1.0475,1.0727,1.13,1.1644,1.1655,1.1228,1.1561,1.1478,0.9616,0.9701,0.9532,0.7762,0.71,0.6598,0.5909,0.8389,1.0357,1.001,0.9408,0.804,0.5396,0.6001,0.6518,0.6174,0.6087,0.6082,0.6162,0.6592,0.6764,0.6757,0.6518,0.6777,0.7535,0.797,0.8227,0.8296,0.797,0.7799,0.7799,0.6935,0.6322,0.5967,0.3915,0.2356,0.0,0.0,0.0,0.0,1.1175,0.0,0.0,0.0,0.0,0.0,0.0,0.0,0.0,0.0,0.0,0.0,0.0,0.0,0.0,0.0,0.0,0.0,0.0,0.0,0.0,0.0,0.0,3.48,3.076,3.0684,3.6747,3.6651,3.7321,3.9102,3.9162,3.9755,4.1077,4.162,4.1652,4.1223,4.0386,3.9345,3.8236,3.7423,3.711,3.7202,3.806,3.5744,3.0979,2.6579,2.2588,1.9122,1.7759,1.43,0.9965,0.9558,0.9058,0.8663,1.0017,0.9315,0.8288,1.0288,1.0046,0.8645,0.7464,0.7985,0.8677,0.7807,0.7885,0.8381,0.8959,0.9052,0.8891,0.8511,0.8773,0.8458,0.6174,0.7535,0.8543,0.6087,0.7035,0.7792,0.6414,0.7877,0.9002,0.804,0.6843,0.5645,0.453,0.5218,0.5559,0.4785,0.4781,0.5127,0.5903,0.5903,0.5898,0.5812,0.5564,0.5569,0.5903,0.6592,0.7021,0.7278,0.6949,0.6783,0.6697,0.4963,0.3481,0.2254,0.139,0.1044,0.0,0.0,0.0,0.0,0.0,1.1608,0.0,0.0,0.0,0.0,0.0,0.0,0.0,0.0,0.0,0.0,0.0,0.0,0.0,0.0,0.0,0.0,0.0,0.0,0.0,0.0,3.0709,3.2742,3.3091,3.3705,3.5068,3.5044,3.5348,3.6189,3.6859,3.7831,3.9049,3.9759,3.9434,3.8029,3.823,3.7445,3.5723,3.6453,3.7008,3.7323,3.793,3.5144,3.021,2.996,2.4286,1.6115,1.9879,2.0421,1.8692,1.5608,1.4387,1.3682,1.0076,0.8304,0.7792,0.8636,0.8211,0.7528,0.7963,0.7635,0.7206,0.7635,0.7535,0.735,0.7762,0.7421,0.6916,0.6751,0.5973,0.5376,0.5569,0.6087,0.6168,0.5305,0.6272,0.7227,0.7001,0.6817,0.639,0.5532,0.5188,0.5021,0.4767,0.3994,0.3568,0.3922,0.4088,0.4517,0.5305,0.5391,0.5391,0.5391,0.4604,0.3821,0.2957,0.3041,0.408,0.642,0.607,0.5467,0.4604,0.4257,0.2434,-0.0611,-0.0785,-0.0873,0.0,0.0,0.0,0.8787,0.0,0.0,0.0,0.0,0.0,0.0,0.0,0.0,0.0,0.0,0.0,0.0,0.0,0.0,0.0,0.0,0.0,0.0,0.0,0.0,0.0,0.0,3.0346,3.1093,3.1743,3.2515,3.3411,3.333,3.3626,3.4314,3.5168,3.5872,3.6271,3.7855,3.7497,3.5302,3.6622,3.5948,3.3659,3.4699,3.5522,3.6103,3.6878,3.5798,3.3334,3.1601,2.7369,2.2258,2.5123,2.4421,2.1277,1.7281,1.5588,1.4672,1.0507,0.8304,0.7378,0.7706,0.7186,0.6414,0.6672,0.634,0.5995,0.634,0.5634,0.493,0.5107,0.4758,0.4327,0.434,0.4257,0.4257,0.4526,0.5218,0.565,0.5472,0.5742,0.6093,0.6156,0.6144,0.5715,0.4332,0.5026,0.5112,0.3295,0.3125,0.3304,0.3662,0.2957,0.2781,0.3564,0.2954,0.2781,0.3041,0.2258,0.1216,0.0,0.087,0.2607,0.5218,0.3211,0.1911,0.1391,0.0868,-0.0261,-0.1918,-0.1831,-0.1571,0.0,0.0,0.0,0.0,0.0,0.0,1.0256,1.0686,0.0,0.0,0.0,0.0,0.0,0.0,0.0,0.0,0.0,0.0,0.0,0.0,0.0,0.0,0.0,0.0,0.0,0.0,2.8703,2.9168,2.9014,2.9693,3.1299,3.1299,3.1635,3.244,3.336,3.3655,3.3341,3.5687,3.548,3.2908,3.4792,3.437,3.2005,3.2797,3.3672,3.4606,3.5556,3.6244,3.6433,3.3052,3.1146,3.0387,3.1115,2.8712,2.4304,1.9243,1.6982,1.577,1.1154,0.8474,0.7041,0.7107,0.6586,0.5731,0.5127,0.4872,0.4699,0.4612,0.3648,0.2516,0.2175,0.2258,0.2516,0.2523,0.3131,0.3651,0.3137,0.4084,0.4944,0.4767,0.4513,0.4348,0.4348,0.4776,0.4685,0.3471,0.4599,0.4599,0.1739,0.2431,0.3214,0.3134,0.1654,0.0957,0.1654,0.0608,0.0087,0.0608,-0.0261,-0.1129,-0.2173,-0.0869,0.0869,0.3134,-0.0087,-0.1745,-0.1661,-0.2789,-0.3134,-0.2786,-0.2525,-0.2179,0.895,0.871,0.8721,0.0,0.0,0.0,1.3328,1.4449,0.0,0.0,0.0,0.0,0.0,0.0,0.0,0.0,0.0,0.0,0.0,0.0,0.0,0.0,0.0,0.0,0.0,0.0,2.5933,2.6447,2.6243,2.6794,2.8238,2.8327,2.8704,2.9784,3.0597,3.0951,3.0927,3.2774,3.2753,3.0866,3.1913,3.1854,3.093,3.1339,3.238,3.3795,3.4356,3.513,3.5888,3.5771,3.5225,3.465,3.5968,3.6097,3.4438,2.6213,2.2766,2.094,1.2094,0.8141,0.7041,0.7107,0.6512,0.5483,0.4781,0.3824,0.296,0.296,0.261,0.1826,0.0087,0.1391,0.3134,0.2786,0.261,0.2351,0.1745,0.1747,0.1657,0.1129,0.139,0.1652,0.1304,0.1303,0.1477,0.1565,0.1826,0.1826,0.1391,0.1478,0.1565,0.1304,0.0348,0.0087,0.1044,-0.0,-0.0692,-0.0606,-0.1473,-0.2078,-0.234,-0.3122,-0.2686,-0.0779,-0.2427,-0.3047,-0.2537,-0.4443,-0.479,-0.3926,-0.3488,-0.3488,0.7706,0.7852,0.8093,0.0,0.0,0.0,0.0,1.3423,0.0,0.0,0.0,0.0,0.0,0.0,0.0,0.0,0.0,0.0,0.0,0.0,0.0,0.0,0.0,0.0,0.0,0.0,0.0,2.3564,2.3695,2.3867,2.4002,2.4847,2.5722,2.6702,2.7616,2.7752,2.7235,2.9576,2.9815,2.8068,2.9884,3.012,2.894,2.9482,3.0228,3.1295,3.2009,3.2923,3.3803,3.3285,3.3605,3.4483,3.5314,3.5824,3.5152,2.7224,2.5401,2.5217,1.3571,1.0511,1.1214,0.7937,0.6168,0.531,0.5045,0.3828,0.2697,0.3041,0.1824,0.0174,-0.087,-0.087,-0.0348,0.0348,0.0348,0.0261,0.0524,0.0698,0.0609,-0.0174,0.0174,0.0696,0.1217,0.1044,0.0696,0.0348,0.0957,0.1217,0.087,0.0957,0.0782,-0.0087,-0.0956,-0.1826,-0.2518,-0.2602,-0.2773,-0.2946,-0.3892,-0.4582,-0.4681,-0.5613,-0.542,-0.3863,-0.4772,-0.5238,-0.5243,-0.6796,-0.7041,-0.6064,-0.5376,-0.5376,0.6753,0.0,0.0,0.0,0.0,0.0,0.0,0.0,0.0,0.0,0.0,0.0,0.0,0.0,0.0,0.0,0.0,0.0,0.0,0.0,0.0,0.0,0.0,0.0,0.0,0.0,0.0,0.0,2.1395,2.1199,2.0495,2.1622,2.2781,2.3754,2.4472,2.4472,2.3849,2.6043,2.6426,2.5054,2.7438,2.7737,2.6354,2.7389,2.7924,2.8293,2.9373,2.9788,2.9585,2.9258,3.0218,3.2068,3.3111,3.3984,3.3951,2.7753,2.6984,2.7525,1.673,1.392,1.4389,1.0062,0.7392,0.5731,0.504,0.3911,0.2694,0.2082,0.0521,-0.113,-0.1739,-0.2694,-0.3134,-0.1914,-0.1565,-0.148,-0.0959,-0.1228,-0.1757,-0.2171,-0.1736,-0.1042,-0.0434,-0.0434,-0.0694,-0.1214,-0.052,-0.0173,-0.0607,-0.0434,-0.078,-0.2249,-0.2862,-0.3738,-0.4954,-0.5031,-0.5112,-0.5289,-0.6396,-0.7001,-0.7107,-0.7677,-0.7457,-0.6382,-0.6995,-0.732,-0.7413,-0.8976,-0.9377,-0.8713,-0.784,-0.7577,0.0,0.0,0.0,0.894,0.0,0.0,1.4055,0.0,0.0,0.0,0.0,0.0,0.0,0.0,0.0,0.0,0.0,0.0,0.0,0.0,0.0,0.0,0.0,0.0,0.0,0.0,0.0,0.0,0.0,1.8789,1.7993,1.8976,2.0031,2.1053,2.1134,2.1134,2.1151,2.2022,2.2404,2.2084,2.4129,2.4379,2.3168,2.5044,2.5549,2.4904,2.6586,2.552,2.2617,2.4376,2.5975,2.768,3.0231,3.1988,3.2717,2.9192,2.7888,2.7135,2.2324,1.8173,1.4811,1.4032,1.0945,0.708,0.4681,0.3731,0.2689,-0.1129,-0.174,-0.1652,-0.3038,-0.3558,-0.3648,-0.3307,-0.2699,-0.2262,-0.2873,-0.4922,-0.6443,-0.6093,-0.5112,-0.4599,-0.5289,-0.4508,-0.3641,-0.3455,-0.3368,-0.3368,-0.3368,-0.3368,-0.3975,-0.572,-0.5634,-0.5376,-0.5107,-0.6561,-0.7507,-0.7507,-0.8365,-0.8891,-0.8891,-0.8883,-0.8739,-0.8281,-0.8689,-0.8688,-0.8351,-1.0635,-1.1664,-1.1503,-1.0821,-1.0446,0.7538,0.7837,0.8162,0.9368,1.0456,1.1666,1.3105,0.0,0.0,0.0,0.0,0.0,0.0,0.0,0.0,0.0,0.0,0.0,0.0,0.0,0.0,0.0,0.0,0.0,0.0,0.0,0.0,0.0,0.0,0.0,1.4043,1.6089,1.7201,1.6958,1.8214,1.8961,1.8961,1.9901,2.0369,2.0263,2.1605,2.2044,2.1503,2.2288,2.2415,2.2154,2.3034,2.2122,1.9955,2.0378,2.2353,2.5159,2.5545,2.7232,2.9125,2.6695,2.7906,2.9819,2.2982,2.2001,2.2702,1.6411,1.338,1.1527,0.7909,0.5179,0.2854,0.1212,-0.1471,-0.3554,-0.2349,-0.4414,-0.6783,-0.6652,-0.6091,-0.5317,-0.4547,-0.619,-0.7756,-0.7541,-0.7015,-0.6298,-0.5537,-0.6298,-0.6712,-0.5859,-0.6097,-0.6432,-0.6274,-0.6189,-0.6621,-0.784,-0.7322,-0.7315,-0.8172,-0.8426,-0.8925,-0.9998,-1.0696,-1.1217,-1.1517,-1.2189,-1.2237,-1.1489,-1.1852,-1.27,-1.3948,-1.4691,-1.4937,-1.4654,-1.4407,-1.4083,0.7582,0.7984,0.835,0.98,1.1081,1.2207,1.2911,1.3908,0.0,0.0,0.0,0.0,0.0,0.0,0.0,0.0,0.0,0.0,0.0,0.0,0.0,0.0,0.0,0.0,0.0,0.0,0.0,0.0,0.0,0.0,1.2069,1.3719,1.4437,1.3928,1.5186,1.5817,1.5817,1.6832,1.7533,1.7823,1.9289,1.9587,1.876,1.9644,1.9413,1.8372,1.8154,1.7273,1.604,1.6326,1.8106,2.0675,2.0732,2.2427,2.4609,2.3277,2.5503,2.8484,2.404,2.4328,2.5565,1.9025,1.5962,1.3965,0.8554,0.5506,0.3451,0.1212,-0.1817,-0.4159,-0.3131,-0.5682,-0.8525,-0.8507,-0.8432,-0.8424,-0.8389,-0.9686,-1.0868,-1.0507,-0.9705,-0.9096,-0.8882,-0.9673,-1.0368,-1.0573,-1.1123,-1.1436,-1.1285,-1.1204,-1.1085,-1.0841,-1.0728,-1.0738,-1.0915,-1.1297,-1.185,-1.2911,-1.3908,-1.4565,-1.4857,-1.5729,-1.5826,-1.4842,-1.5083,-1.6244,-1.8283,-1.795,-1.7659,-1.7388,-1.7364,-1.7342,0.697,0.7258,0.7812,1.0295,1.0943,1.1452,0.0,0.0,0.0,0.0,0.0,0.0,0.0,0.0,0.0,0.0,0.0,0.0,0.0,0.0,0.0,0.0,0.0,0.0,0.0,0.0,0.0,0.0,0.0,1.1936,1.1743,1.1743,1.1743,1.1743,1.1848,1.1848,1.1848,1.3017,1.3949,1.4748,1.6883,1.6812,1.5096,1.7024,1.6295,1.3408,1.198,1.1085,1.075,1.2174,1.3439,1.4499,1.5902,1.7636,1.9332,1.9282,2.0987,2.3486,2.5407,2.5087,2.3463,2.1474,1.8589,1.4524,0.6971,0.5128,0.4485,-0.0948,-0.2862,-0.3637,-0.5467,-0.7486,-0.9072,-0.8931,-0.9839,-1.1446,-1.3915,-1.5291,-1.5915,-1.5241,-1.3745,-1.3249,-1.5348,-1.4761,-1.4776,-1.7262,-1.7903,-1.8147,-1.8277,-1.8038,-1.7102,-1.499,-1.5828,-1.5704,-1.3641,-1.5216,-1.6326,-1.6403,-1.7822,-1.8692,-1.871,-1.9368,-1.9291,-1.8315,-1.8499,-1.9586,-2.1415,-2.0581,-2.0075,-1.997,-1.9932,-2.0191,0.8343,0.9424,1.019,1.1476,1.1729,1.1857,1.2376,0.0,1.2625,0.0,0.0,0.0,0.0,0.0,0.0,0.0,0.0,0.0,0.0,0.0,0.0,0.0,0.0,0.0,0.0,0.0,0.0,0.0,0.0,0.747,0.7035,0.7774,0.8309,0.8309,0.9043,0.9461,0.9461,0.9779,1.0423,1.1487,1.21,1.2481,1.2809,1.3534,1.1443,0.7342,0.7044,0.7118,0.7355,0.7117,0.8657,1.1177,1.096,1.2675,1.555,1.6893,1.8207,1.9766,2.2741,2.3014,2.1673,1.9509,1.9564,1.8933,1.0597,0.9297,0.8883,0.0798,-0.3226,-0.574,-0.8557,-1.149,-1.3346,-1.1958,-1.2801,-1.4024,-1.4939,-1.9884,-2.3978,-2.3028,-2.2046,-2.1275,-2.0951,-2.0808,-2.1082,-2.1915,-2.1922,-2.2159,-2.3114,-2.3193,-2.2877,-2.2239,-2.2456,-2.2414,-2.1847,-2.1647,-2.1844,-2.245,-2.1943,-2.1782,-2.1902,-2.186,-2.1633,-2.1429,-2.4381,-2.5521,-2.4687,-2.4424,-2.4288,-2.4289,-2.4198,-2.3923,0.8118,0.9572,1.0839,1.1802,1.2009,1.2009,1.2009,1.1787,1.1451,0.0,0.0,0.0,0.0,0.0,0.0,0.0,0.0,0.0,0.0,0.0,0.0,0.0,0.0,0.0,0.0,0.0,0.0,0.0,0.0,0.4774,0.4446,0.563,0.6277,0.6277,0.6809,0.7126,0.7126,0.7126,0.7661,0.8837,0.9362,0.9688,0.9794,0.9969,0.8165,0.4951,0.4357,0.4523,0.4998,0.4283,0.5048,0.663,0.566,0.6757,0.8932,0.9966,1.1258,1.292,1.6386,1.6845,1.5945,1.6065,1.5348,1.328,0.7019,0.4873,0.3154,-0.3828,-0.8356,-1.1433,-1.3326,-1.7003,-1.9768,-1.8435,-1.9284,-2.073,-2.2408,-2.6559,-2.969,-2.8722,-2.8225,-2.7769,-2.6973,-2.6932,-2.7111,-2.7481,-2.7471,-2.7739,-2.8739,-2.8803,-2.8318,-2.7329,-2.7727,-2.7737,-2.6791,-2.6683,-2.6851,-2.7319,-2.6626,-2.6282,-2.6465,-2.6446,-2.6026,-2.5209,-2.8173,-2.9117,-2.786,-2.7409,-2.7017,-2.67,-2.6599,-2.6446,0.7447,0.8983,1.0645,1.1821,1.2009,1.1893,1.1893,1.1256,1.0494,0.0,0.0,0.0,0.0,0.0,0.0,0.0,0.0,0.0,0.0,0.0,0.0,0.0,0.0,0.0,0.0,0.0,0.0,0.0,0.0,0.0,0.2815,0.3794,0.4338,0.4338,0.4338,0.4338,0.4338,0.4338,0.4875,0.6052,0.7109,0.7329,0.6691,0.6284,0.5262,0.3908,0.2626,0.2273,0.2566,0.2207,0.1851,0.1553,0.0705,0.095,0.1714,0.1719,0.2986,0.5133,0.8426,0.865,0.7971,1.0984,0.8539,0.3747,0.0155,-0.2938,-0.6312,-1.1362,-1.5644,-1.8897,-1.9818,-2.36,-2.7112,-2.6477,-2.79,-3.0235,-3.2958,-3.4291,-3.4715,-3.3705,-3.3658,-3.3724,-3.3572,-3.3256,-3.3061,-3.3448,-3.3563,-3.3729,-3.414,-3.4094,-3.3268,-3.1265,-3.2237,-3.2202,-3.0307,-3.0956,-3.1497,-3.1516,-3.1364,-3.1261,-3.1179,-3.1424,-3.0942,-2.9675,-3.1067,-3.1586,-3.1097,-3.0011,-2.9231,-2.8596,-2.8596,-2.8645,0.9368,1.0269,1.1003,1.1894,1.1575,1.1141,1.1141,1.038,0.9519,0.8656,0.0,0.0,0.0,0.0,0.0,0.0,0.0,0.0,0.0,0.0,0.0,0.0,0.0,0.0,0.0,0.0,0.0,0.0,0.0,0.0,-0.0868,-0.0651,-0.0543,-0.0543,-0.0543,-0.0543,-0.0543,-0.0543,0.0,0.1196,0.2386,0.3902,0.5419,0.1507,-0.0431,-0.0976,-0.1403,-0.1801,-0.1957,-0.2237,-0.2339,-0.22,-0.2365,-0.1774,-0.0771,-0.0937,-0.034,0.0931,0.28,0.1847,0.0171,0.2543,0.3187,0.2094,-0.3103,-0.4519,-0.6277,-1.5757,-2.0995,-2.4791,-2.9039,-3.139,-3.2686,-3.2781,-3.6952,-4.0961,-4.1293,-4.1625,-4.1687,-4.1154,-4.1371,-4.1581,-4.1426,-4.0353,-3.9435,-3.9104,-3.8197,-3.7435,-3.7215,-3.7062,-3.6762,-3.6137,-3.6509,-3.6608,-3.6242,-3.5881,-3.5686,-3.5694,-3.4788,-3.401,-3.3495,-3.3187,-3.3714,-3.517,-3.5373,-3.4982,-3.4046,-3.3626,-3.3265,-3.2923,-3.2735,-3.2188,0.8845,0.9829,1.0696,1.0373,1.0223,1.0167,1.0167,0.9519,0.8157,0.5759,0.4065,0.0,0.0,0.0,0.0,0.0,0.0,0.0,0.0,0.0,0.0,0.0,0.0,0.0,0.0,0.0,0.0,0.0,0.0,0.0,0.0,-0.3359,-0.2923,-0.2495,-0.2815,-0.2601,-0.1738,-0.2169,-0.1954,-0.087,-0.0326,0.0543,0.1518,-0.076,-0.1847,-0.2281,-0.4328,-0.4716,-0.4012,-0.5278,-0.5731,-0.5919,-0.6381,-0.6254,-0.5673,-0.529,-0.5275,-0.5166,-0.3481,-0.5057,-0.7266,-0.4258,-0.533,-0.8193,-1.0434,-1.2276,-1.513,-2.2512,-2.7074,-3.0648,-3.4568,-3.7184,-3.8842,-3.9161,-4.2918,-4.6116,-4.5246,-4.5547,-4.5762,-4.5121,-4.5589,-4.6056,-4.5987,-4.4716,-4.3419,-4.2495,-4.1071,-4.0051,-3.9863,-3.9021,-3.8305,-3.7957,-3.8225,-3.8455,-3.849,-3.8216,-3.8045,-3.8076,-3.7214,-3.6596,-3.6352,-3.6226,-3.6599,-3.7537,-3.7298,-3.6788,-3.6105,-3.5778,-3.5331,-3.4827,-3.4702,-3.403,0.8236,0.9266,1.016,0.9159,0.9208,0.9348,0.883,0.8049,0.6438,0.3033,0.1882,0.1413,0.0,0.0,0.0,0.0,0.0,0.0,0.0,0.0,0.0,0.0,0.0,0.0,0.0,0.0,0.0,0.0,0.0,0.0,0.0,0.0,0.0,-0.4115,-0.476,-0.4436,-0.3039,-0.3791,-0.3575,0.0,-0.2496,-0.2388,-0.2388,-0.2822,-0.3147,-0.358,-0.6691,-0.7222,-0.6024,-0.7641,-0.875,-0.9579,-1.013,-1.0469,-1.0485,-0.9974,-1.0147,-1.0517,-0.9495,-1.1254,-1.3506,-1.0821,-1.3744,-1.8307,-1.8238,-2.0884,-2.4828,-2.91,-3.2941,-3.6316,-3.8989,-4.1935,-4.4279,-4.4334,-4.6499,-4.8297,-4.7369,-4.7805,-4.8175,-4.746,-4.8053,-4.8657,-4.8606,-4.7622,-4.6477,-4.544,-4.3757,-4.2411,-4.1701,-4.0343,-3.9355,-3.911,-3.903,-3.9163,-3.9613,-3.9448,-3.9249,-3.92,-3.873,-3.8522,-3.8625,-3.9105,-3.9139,-3.8685,-3.8381,-3.8076,-3.7776,-3.7398,-3.6897,-3.6228,-3.6171,-3.5611,0.9264,0.9278,0.9266,0.9465,0.9362,0.8711,0.6811,0.5759,0.4453,0.1967,0.0,0.0436,-0.0872,0.0,0.0,0.0,0.0,0.0,0.0,0.0,0.0,0.0,0.0,0.0,0.0,0.0,0.0,0.0,0.0,0.0,0.0,0.0,0.0,-0.7379,-0.7379,-0.7379,-0.7272,-0.7272,-0.6722,-0.563,-0.4879,-0.4558,-0.4666,-0.6404,-0.7272,-0.7272,-0.8549,-0.9277,-0.9787,-0.9999,-1.1345,-1.3283,-1.2601,-1.2746,-1.3307,-1.4053,-1.3856,-1.3483,-1.4561,-1.6008,-1.7479,-1.8102,-1.9661,-2.1656,-2.4056,-2.6724,-2.9657,-3.3546,-3.7846,-4.1701,-4.363,-4.5939,-4.7517,-4.6607,-4.7068,-4.7898,-4.8618,-4.8931,-4.9016,-4.8818,-4.9249,-4.9582,-4.9332,-4.9249,-4.92,-4.9073,-4.7334,-4.4945,-4.1981,-4.1037,-4.0743,-4.0933,-3.9619,-3.9293,-4.0738,-3.9977,-3.9282,-3.8922,-3.8963,-3.9055,-3.9176,-4.0678,-4.085,-3.9394,-3.9218,-3.9185,-3.9262,-3.9004,-3.8705,-3.8364,-3.8154,-3.7712,0.6627,0.6949,0.7515,0.6463,0.7145,0.7656,0.6214,0.4315,0.2184,0.0,-0.0663,-0.109,-0.2395,-0.2613,0.0,0.0,0.0,0.0,0.0,0.0,0.0,0.0,0.0,0.0,0.0,0.0,0.0,0.0,0.0,0.0,0.0,0.0,0.0,0.0,-0.9005,-0.879,-0.7822,-0.836,-0.8139,-0.7051,-0.6727,-0.6943,-0.7481,-0.7708,-0.8246,-0.9105,-0.9405,-1.0675,-1.2472,-1.3332,-1.436,-1.5302,-1.5009,-1.4994,-1.5413,-1.6374,-1.6753,-1.7046,-1.8292,-1.9852,-2.1538,-2.222,-2.3971,-2.6157,-2.8235,-3.054,-3.3087,-3.61,-3.8584,-4.0831,-4.3053,-4.4714,-4.5867,-4.6047,-4.6807,-4.7654,-4.8283,-4.8434,-4.853,-4.8824,-4.9151,-4.9337,-4.9197,-4.9302,-4.944,-4.9351,-4.8353,-4.6661,-4.3921,-4.2487,-4.1711,-4.1564,-4.1182,-4.1141,-4.178,-4.1664,-4.1605,-4.1658,-4.1738,-4.1841,-4.205,-4.271,-4.282,-4.2266,-4.2205,-4.1788,-4.0964,-4.081,-4.0121,-3.9037,-3.8932,-3.8601,0.4894,0.5151,0.5679,0.4511,0.5376,0.6221,0.5388,0.3104,0.0748,-0.0782,-0.1771,-0.2613,-0.3806,-0.402,0.0,0.0,0.0,0.0,0.0,0.0,0.0,0.0,0.0,0.0,0.0,0.0,0.0,0.0,0.0,0.0,0.0,0.0,0.0,0.0,-0.9976,-0.9762,-0.8575,-0.9112,-0.9112,-0.8575,-0.8253,-0.8998,-1.0486,-0.9526,-0.974,-1.1018,-1.0781,-1.1945,-1.4295,-1.5647,-1.6472,-1.6986,-1.6781,-1.6781,-1.7178,-1.8168,-1.8976,-1.9592,-2.0854,-2.2289,-2.3885,-2.5091,-2.6943,-2.9055,-3.1035,-3.2799,-3.4676,-3.7378,-3.8601,-3.9671,-4.2252,-4.3466,-4.4296,-4.5262,-4.6367,-4.7292,-4.7756,-4.7957,-4.8151,-4.8588,-4.8811,-4.8942,-4.8907,-4.9051,-4.9128,-4.9042,-4.8621,-4.7665,-4.6011,-4.4277,-4.3083,-4.2816,-4.249,-4.2542,-4.3137,-4.3096,-4.3134,-4.3421,-4.3529,-4.3787,-4.4243,-4.4353,-4.424,-4.3902,-4.4071,-4.3603,-4.2622,-4.256,-4.1938,-4.0813,-4.0795,-4.029,0.5268,0.4486,0.4129,0.4384,0.4348,0.4181,0.3653,0.1762,0.02,0.0322,-0.1738,-0.3806,-0.4994,-0.5211,0.0,0.0,0.0,0.0,0.0,0.0,0.0,0.0,0.0,0.0,0.0,0.0,0.0,0.0,0.0,0.0,0.0,0.0,0.0,0.0,-1.0297,-1.0297,-1.0297,-1.0297,-1.0297,-1.0297,-0.9548,-1.0699,-1.3772,-1.2596,-1.2701,-1.3667,-1.2787,-1.3416,-1.5013,-1.6254,-1.7484,-1.8587,-1.7803,-1.8007,-1.8789,-1.9808,-2.0222,-2.0406,-2.2098,-2.3167,-2.4167,-2.6885,-2.8281,-2.9476,-3.2482,-3.3432,-3.4076,-3.7192,-3.8367,-3.9347,-4.2062,-4.3138,-4.3811,-4.4843,-4.5894,-4.6839,-4.7337,-4.7734,-4.808,-4.8352,-4.8383,-4.8522,-4.8755,-4.8719,-4.867,-4.8792,-4.8335,-4.8027,-4.7991,-4.6301,-4.5066,-4.5066,-4.3337,-4.2981,-4.4877,-4.3888,-4.3146,-4.3164,-4.3532,-4.4138,-4.5026,-4.5341,-4.4798,-4.3372,-4.3854,-4.4123,-4.4087,-4.4256,-4.4382,-4.444,-4.4328,-4.3352,0.3576,0.3114,0.2949,0.2659,0.2612,0.2299,0.0871,-0.0499,-0.1634,-0.1984,-0.3253,-0.4831,-0.598,-0.6306,0.0,0.0,0.0,0.0,0.0,0.0,0.0,0.0,0.0,0.0,0.0,0.0,0.0,0.0,0.0,0.0,0.0,0.0,0.0,0.0,-1.2721,-1.2721,-1.2721,-1.2721,-1.2721,-1.2721,-1.2395,-1.2816,-1.3772,-1.3447,-1.3552,-1.4075,-1.4563,-1.5197,-1.5957,-1.728,-1.7979,-1.85,-1.912,-1.9907,-2.0984,-2.2081,-2.2488,-2.278,-2.4679,-2.6046,-2.729,-2.8815,-3.0495,-3.2316,-3.3783,-3.499,-3.6272,-3.8308,-3.9355,-4.0203,-4.1628,-4.2503,-4.3192,-4.3964,-4.4817,-4.5662,-4.6349,-4.6618,-4.6844,-4.7375,-4.7697,-4.7911,-4.808,-4.8101,-4.8065,-4.8109,-4.7509,-4.7133,-4.7168,-4.6414,-4.5905,-4.5905,-4.5327,-4.5221,-4.5834,-4.5519,-4.538,-4.566,-4.6057,-4.6405,-4.6687,-4.6785,-4.6721,-4.6516,-4.6414,-4.6124,-4.5583,-4.5357,-4.4893,-4.4256,-4.4292,-4.4098,0.2524,0.2008,0.1845,0.1332,0.0775,-0.009,-0.1513,-0.2263,-0.2811,-0.3187,-0.4179,-0.5292,-0.6241,-0.7456,-0.8442,-0.9198,-0.9732,0.0,0.0,0.0,0.0,0.0,0.0,0.0,0.0,0.0,0.0,0.0,0.0,0.0,0.0,0.0,-1.3772,-1.3772,-1.3772,-1.3772,-1.3772,-1.3772,-1.419,-1.5024,-1.5024,-1.5024,-1.5024,-1.4597,-1.4794,-1.5416,-1.5817,-1.6344,-1.7178,-1.8095,-1.8385,-1.85,-1.9306,-2.0306,-2.1395,-2.2973,-2.3474,-2.3762,-2.5358,-2.6733,-2.7965,-2.9014,-3.0838,-3.2868,-3.4182,-3.5528,-3.6988,-3.8779,-3.9644,-4.0295,-4.16,-4.2503,-4.3246,-4.3929,-4.4756,-4.552,-4.6172,-4.6376,-4.6612,-4.7169,-4.7448,-4.7679,-4.7816,-4.7832,-4.7924,-4.7967,-4.7411,-4.699,-4.7062,-4.6577,-4.6254,-4.6254,-4.6254,-4.6335,-4.6495,-4.646,-4.6654,-4.7026,-4.7026,-4.699,-4.699,-4.7133,-4.7343,-4.7545,-4.7634,-4.7466,-4.6931,-4.6876,-4.6507,-4.5902,-4.5974,-4.5768,0.2047,0.126,0.094,0.0256,-0.1187,-0.2535,-0.3371,-0.3466,-0.3468,-0.3585,-0.4508,-0.5493,-0.6003,-0.8377,-1.0277,-1.0356,-1.1345,-1.2221,0.0,0.0,0.0,0.0,0.0,0.0,0.0,0.0,0.0,0.0,0.0,0.0,-1.4086,-1.4086,-1.4086,-1.4086,-1.4086,-1.4086,-1.4086,-1.4086,-1.5128,-1.7319,-1.7217,-1.7217,-1.7217,-1.6048,-1.6242,-1.7613,-1.6883,-1.728,-1.85,-1.8789,-1.889,-1.889,-1.899,-1.9592,-2.0719,-2.2877,-2.3666,-2.3762,-2.4925,-2.5846,-2.6825,-2.8324,-2.9954,-3.1827,-3.3917,-3.5198,-3.6383,-3.8642,-3.9281,-3.9781,-4.1925,-4.3006,-4.3637,-4.4416,-4.5315,-4.6054,-4.6491,-4.6763,-4.7061,-4.7522,-4.759,-4.7587,-4.7784,-4.7874,-4.7997,-4.8109,-4.7671,-4.7341,-4.7341,-4.673,-4.6254,-4.6254,-4.6254,-4.6416,-4.6768,-4.6803,-4.6953,-4.7341,-4.6654,-4.6254,-4.6254,-4.6612,-4.6841,-4.6878,-4.7625,-4.8028,-4.7997,-4.8415,-4.8682,-4.8682,-4.8715,-4.8041,0.1786,0.0897,0.0162,-0.0907,-0.186,-0.2744,-0.3848,-0.4424,-0.471,-0.4567,-0.5377,-0.6323,-0.7119,-0.8446,-0.9925,-1.1391,-1.2424,-1.3393,0.0,0.0,0.0,0.0,0.0,0.0,0.0,0.0,0.0,0.0,0.0,0.0,-1.6279,-1.6279,-1.6279,-1.6279,-1.6279,-1.6279,-1.6279,-1.6279,-1.7382,-1.9463,-1.8688,-1.8297,-1.8297,-1.7191,-1.7395,-1.8688,-1.8486,-1.9292,-2.0818,-2.0917,-2.1,-2.1182,-2.1983,-2.2568,-2.2877,-2.4259,-2.4735,-2.4925,-2.6641,-2.7423,-2.8034,-2.9913,-3.1455,-3.2868,-3.4102,-3.5121,-3.6383,-3.8642,-3.9281,-3.9614,-4.1236,-4.2165,-4.284,-4.3585,-4.4366,-4.512,-4.6013,-4.6083,-4.6243,-4.7025,-4.7024,-4.7024,-4.759,-4.745,-4.7275,-4.7312,-4.6951,-4.6651,-4.6538,-4.6376,-4.6254,-4.6254,-4.6254,-4.6295,-4.6416,-4.6416,-4.6455,-4.6538,-4.6376,-4.6254,-4.6254,-4.6376,-4.6538,-4.6841,-4.677,-4.699,-4.7578,-4.7409,-4.744,-4.7765,-4.8149,-4.8167,0.1249,0.0386,-0.0584,-0.2157,-0.2922,-0.3581,-0.4627,-0.5098,-0.5272,-0.5419,-0.5907,-0.6747,-0.8306,-0.8639,-0.9537,-1.2059,0.0,-1.4403,-1.5272,-1.5977,0.0,0.0,0.0,0.0,0.0,0.0,0.0,0.0,0.0,0.0,-1.7114,-1.7114,-1.7319,-1.7803,-1.7803,-1.8007,-1.8486,-1.8486,-1.9076,-2.0244,-1.9663,-1.9377,-1.9363,-1.8789,-1.899,-1.9792,0.0,-2.0604,-2.1624,-2.1608,-2.169,-2.1788,-2.2471,-2.307,-2.357,-2.4164,-2.4659,-2.5227,-2.6198,-2.7241,-2.837,-2.9454,-3.1262,-3.3193,-3.4102,-3.5121,-3.6383,-3.8642,-3.9281,-3.9614,-4.1021,-4.2048,-4.284,-4.3427,-4.4216,-4.5096,-4.5886,-4.5963,-4.6083,-4.6914,-4.6914,-4.7024,-4.752,-4.752,-4.7379,-4.752,-4.7097,-4.6839,-4.6805,-4.646,-4.6254,-4.6254,-4.6254,-4.6254,-4.6254,-4.6254,-4.6254,-4.6254,-4.6254,-4.6254,-4.6254,-4.6254,-4.6376,-4.6573,-4.6573,-4.673,-4.7168,-4.7133,-4.7203,-4.7443,-4.7884,-4.8137,0.0596,-0.0327,-0.1371,-0.3335,-0.4117,-0.4675,-0.5558,-0.5525,-0.5463,-0.6123,-0.6236,-0.6929,-0.9108,-0.897,-0.9469,-1.2306,-1.3938,-1.5059,0.0,0.0,-1.6998,-1.7628,0.0,0.0,0.0,0.0,0.0,0.0,0.0,0.0,-1.7114,-1.7217,-1.7701,-1.8587,-1.8789,-1.9478,-2.0755,-2.0739,-2.0739,-2.0739,-2.0557,-2.0458,-2.0458,-2.0244,-2.0458,-2.0803,0.0,-2.1493,-2.2017,-2.2179,-2.2276,-2.2276,-2.2276,-2.2877,-2.3762,-2.3762,-2.445,-2.5302,-2.5302,-2.662,-2.846,-2.8549,-3.062,-3.3193,-3.4102,-3.5121,-3.6383,-3.8642,-3.9281,-3.9614,-4.1021,-4.2306,-4.3246,-4.348,-4.4465,-4.5419,-4.5929,-4.6013,-4.6213,-4.6841,-4.6988,-4.7097,-4.7451,-4.7687,-4.7816,-4.7874,-4.7517,-4.7241,-4.7273,-4.6692,-4.6254,-4.6254,-4.6254,-4.6254,-4.6254,-4.6254,-4.6254,-4.6254,-4.6254,-4.6254,-4.6254,-4.6254,-4.6254,-4.6254,-4.6612,-4.673,-4.673,-4.7098,-4.7273,-4.7273,-4.7643,-4.7848,0.0,-0.1305,-0.2691,-0.4022,-0.469,-0.5311,-0.6288,-0.5973,-0.5716,-0.6105,-0.6284,-0.679,-0.8153,-0.923,-1.0391,-1.163,-1.3378,0.0,-1.7004,-1.8336,-1.9012,-1.8737,0.0,0.0,0.0,0.0,0.0,0.0,0.0,-1.7114,-1.7114,-1.7905,-1.8486,-1.8688,-1.9563,-2.0952,-2.2973,-2.2973,-2.2973,-2.2973,-2.2098,-2.1706,-2.1706,-2.0656,-2.0771,-2.1804,0.0,0.0,-2.3858,-2.4145,-2.4336,-2.4545,-2.4545,-2.464,-2.4849,-2.4849,-2.5377,-2.6198,-2.6198,-2.7625,-2.9651,-3.0369,-3.1708,-3.3193,-3.4102,-3.5121,-3.6383,-3.8642,-3.9281,-3.9614,-4.1175,-4.2332,-4.3246,-4.3637,-4.4514,-4.5419,-4.5929,-4.5913,-4.594,-4.6605,-4.6722,-4.6799,-4.7061,-4.7451,-4.7587,-4.7381,-4.7205,-4.7021,-4.6763,-4.6491,-4.6254,-4.6254,-4.6254,-4.6254,-4.6254,-4.6254,-4.6254,-4.6254,-4.6254,-4.6254,-4.6254,-4.6254,-4.6254,-4.6254,-4.6335,-4.6376,-4.6376,-4.6416,-4.642,-4.6455,-4.6843,-4.7025,-0.0152,-0.1874,-0.3544,-0.4561,-0.5374,-0.5975,-0.6257,-0.644,-0.6732,-0.7064,-0.7458,-0.8127,-0.957,-0.9941,-1.0635,-1.2732,-1.3644,-1.4732,-1.6464,-1.7683,-1.8654,-1.9231,-1.9231,0.0,0.0,0.0,0.0,0.0,0.0,-1.9421,-1.9421,-1.9468,-1.9777,-2.039,-2.0886,-2.1967,-2.3474,-2.3474,-2.3474,-2.3474,-2.3088,-2.278,-2.2797,-2.2276,-2.2374,0.0,0.0,0.0,-2.4545,-2.4735,-2.4944,-2.5038,-2.5038,-2.5038,-2.5038,-2.5038,-2.5302,-2.5752,-2.6291,-2.71,-2.8324,-3.03,-3.2018,-3.3462,-3.4654,-3.5707,-3.6916,-3.871,-3.9578,-4.0102,-4.1206,-4.2074,-4.2896,-4.348,-4.4267,-4.5049,-4.5731,-4.5766,-4.581,-4.6213,-4.6491,-4.676,-4.6988,-4.7382,-4.7623,-4.7587,-4.7312,-4.7096,-4.6987,-4.6648,-4.6411,-4.6295,-4.6254,-4.6254,-4.6254,-4.6254,-4.6254,-4.6254,-4.6254,-4.6254,-4.6254,-4.6254,-4.6254,-4.6254,-4.6254,-4.6295,-4.6335,-4.6295,-4.6254,-4.6254,-4.6689,-4.6878,-0.0807,0.0,-0.4258,-0.5159,-0.6304,-0.705,0.0,-0.7291,-0.794,-0.8242,-0.8571,-0.9225,-1.0634,-1.0457,-1.0796,-1.3131,-1.3668,-1.4198,-1.5499,-1.6585,-1.7781,-1.9457,-1.9571,0.0,0.0,0.0,0.0,0.0,0.0,-2.1647,-2.1647,-2.1184,-2.1324,-2.2268,-2.2466,-2.2958,-2.3741,-2.366,-2.3474,-2.3474,-2.3474,-2.3474,-2.3474,-2.3474,-2.3666,0.0,0.0,0.0,-2.4735,-2.5208,-2.5397,-2.5397,-2.5678,-2.5752,-2.5752,-2.5752,-2.5846,-2.6218,-2.6916,-2.7282,-2.7875,-3.03,-3.2101,-3.3674,-3.4966,-3.6206,-3.7535,-3.8847,-3.9841,-4.0612,-4.136,-4.2106,-4.2817,-4.3513,-4.425,-4.4988,-4.5544,-4.5668,-4.5722,-4.5921,-4.6254,-4.6609,-4.6914,-4.7241,-4.7554,-4.7752,-4.7484,-4.7276,-4.7205,-4.6912,-4.657,-4.6295,-4.6254,-4.6254,-4.6254,-4.6254,-4.6254,-4.6254,-4.6254,-4.6213,-4.6131,-4.6131,-4.6089,-4.6006,-4.6089,-4.6172,-4.633,-4.6254,-4.6254,-4.6254,-4.6573,-4.6728,0.0,-0.3865,-0.4852,-0.5995,-0.7809,-0.9155,-0.8383,-0.8789,0.0,-0.9264,-0.9091,-0.9081,-0.9739,-1.0477,-1.1134,-1.1605,-1.2722,-1.3964,-1.4939,-1.5818,0.0,0.0,-2.0652,0.0,0.0,0.0,0.0,0.0,0.0,0.0,-2.2439,-2.2761,-2.3003,-2.3003,-2.4021,-2.4543,-2.4644,-2.3928,-2.3474,-2.3474,-2.3474,-2.3474,-2.3474,-2.3474,-2.3666,0.0,0.0,0.0,0.0,-2.5919,-2.6384,-2.6456,-2.7262,-2.7625,-2.7625,-2.7625,-2.8256,-2.9102,-2.9102,-2.9871,-3.0823,-3.1297,-3.2365,-3.3593,-3.4445,-3.6308,-3.8384,-3.908,-3.9841,-4.0675,-4.1695,-4.2705,-4.3566,-4.3996,-4.4858,-4.5623,-4.5668,-4.5668,-4.5713,-4.5678,-4.5913,-4.6254,-4.6644,-4.6877,-4.7205,-4.759,-4.7515,-4.7345,-4.7095,-4.695,-4.6689,-4.6295,-4.6254,-4.6254,-4.6254,-4.6254,-4.6254,-4.6254,-4.6254,-4.6089,-4.5775,-4.5697,-4.5554,-4.5189,-4.5539,-4.5758,-4.5905,-4.6166,-4.6254,-4.6254,-4.6295,-4.6295,-0.3653,-0.448,-0.5335,-0.7748,-0.9106,-0.9764,-0.9668,-1.0132,-1.0305,-0.9772,-0.9765,-0.9827,-1.0073,-1.0667,-1.1526,-1.2396,-1.3524,-1.451,-1.5334,-1.6564,0.0,-1.9302,0.0,0.0,0.0,0.0,0.0,0.0,0.0,0.0,-2.53,-2.503,-2.5068,-2.554,-2.542,-2.5381,-2.5381,-2.5182,-2.5075,-2.5057,-2.5209,-2.5433,-2.5581,-2.5581,-2.5787,0.0,0.0,0.0,0.0,-2.6456,-2.6733,-2.7262,-2.7008,-2.7262,-2.7806,-2.7806,-2.8077,-2.8525,-2.9345,-2.9849,-3.0369,-3.1443,-3.2754,-3.4128,-3.4524,-3.5906,-3.7777,-3.9512,-4.0454,-4.1114,-4.1513,-4.2106,-4.2761,-4.3599,-4.4216,-4.4872,-4.5578,-4.5668,-4.5668,-4.5668,-4.6076,-4.6491,-4.6644,-4.706,-4.7486,-4.7719,-4.7683,-4.765,-4.7554,-4.7276,-4.6988,-4.6654,-4.6416,-4.6254,-4.6254,-4.6254,-4.6254,-4.6254,-4.6254,-4.6213,-4.6166,-4.6083,-4.6041,-4.5956,-4.6089,-4.6172,-4.6249,-4.6395,-4.6471,-4.6401,-4.6486,-4.6451,-0.4414,-0.5154,-0.6259,-0.9025,-1.0138,-1.0599,-1.0827,-1.1237,-1.1344,-1.0358,-1.0263,-1.032,-1.032,-1.0999,-1.1837,-1.2948,-1.3852,-1.5007,-1.66,-1.7448,0.0,-2.012,-2.2108,-2.392,0.0,0.0,0.0,0.0,0.0,0.0,-2.7377,-2.6629,-2.6557,-2.736,-2.6611,-2.6416,-2.6825,-2.6622,-2.6562,-2.669,-2.6875,-2.6904,-2.6855,-2.6855,-2.717,0.0,0.0,0.0,0.0,-2.7464,-2.7737,-2.8256,-2.7896,-2.8166,-2.8703,-2.8703,-2.8703,-2.8881,-2.9784,-3.0132,-3.0479,-3.1443,-3.2836,-3.4128,-3.4524,-3.5755,-3.7421,-3.9481,-4.0708,-4.1421,-4.1482,-4.1843,-4.2454,-4.3374,-4.4014,-4.4582,-4.5499,-4.5668,-4.5668,-4.5668,-4.6068,-4.6406,-4.6605,-4.7024,-4.7417,-4.7719,-4.7811,-4.7843,-4.7679,-4.7584,-4.731,-4.6915,-4.6612,-4.6499,-4.6615,-4.6615,-4.6615,-4.6615,-4.6615,-4.6538,-4.634,-4.626,-4.6178,-4.6089,-4.6213,-4.6295,-4.6335,-4.6522,-4.6557,-4.6441,-4.653,-4.646,-0.527,-0.6075,-0.7583,-0.9725,-1.1222,-1.1953,0.0,0.0,-1.2399,-1.0996,-1.0469,-1.0333,-1.0333,-1.126,-1.2254,-1.2747,-1.3626,-1.5374,-1.8578,-1.8549,-1.9086,0.0,0.0,-2.366,0.0,0.0,0.0,0.0,0.0,0.0,-2.8215,-2.7431,-2.7377,-2.8179,-2.7431,-2.7629,-2.8772,-2.8058,-2.7743,-2.7998,-2.7998,-2.7607,-2.6896,-2.6896,-2.717,0.0,0.0,0.0,0.0,-2.8903,-2.9367,-2.9455,-3.0329,-3.0697,-3.0697,-3.0697,-3.0697,-3.0697,-3.0697,-3.1041,-3.149,-3.149,-3.2365,-3.3593,-3.4366,-3.581,-3.7464,-3.8876,-4.0295,-4.1421,-4.1571,-4.2191,-4.2951,-4.3585,-4.4316,-4.5036,-4.5578,-4.5668,-4.5668,-4.5668,-4.5668,-4.5897,-4.6526,-4.6644,-4.6875,-4.752,-4.7879,-4.7869,-4.7476,-4.7807,-4.7743,-4.6952,-4.6878,-4.7061,-4.7481,-4.7515,-4.7515,-4.7515,-4.7479,-4.7062,-4.6154,-4.6078,-4.5859,-4.5304,-4.5671,-4.5971,-4.6054,-4.647,-4.6583,-4.6451,-4.6318,-4.6279,-0.6233,-0.6727,-0.7691,-1.0814,-1.1761,-1.2193,0.0,0.0,-1.3114,-1.1672,-1.155,-1.1659,-1.1659,-1.2274,-1.3105,-1.4134,-1.5522,-1.7178,-1.9041,-1.9908,-2.1039,-2.2905,0.0,-2.4356,0.0,0.0,0.0,0.0,0.0,0.0,-2.8215,-2.8747,-2.9577,-3.0612,-3.0451,-3.0426,-3.0866,-3.0758,-3.083,-3.0866,-3.1009,-3.1115,-3.1209,-3.1209,-3.1112,-3.0848,-3.0848,0.0,0.0,-2.9455,-2.9719,-3.0242,-2.9894,-3.0178,-3.0697,-3.0932,-3.1017,-3.1017,-3.1443,-3.1612,-3.1864,-3.2614,-3.3487,-3.4445,-3.5275,-3.7017,-3.874,-3.9147,-4.0295,-4.1421,-4.1421,-4.2074,-4.2896,-4.348,-4.4267,-4.5036,-4.5578,-4.5668,-4.5668,-4.5668,-4.5819,-4.6131,-4.6689,-4.6917,-4.7273,-4.793,-4.8116,-4.8175,-4.8232,-4.8116,-4.79,-4.7711,-4.9707,-5.1015,-5.0875,-5.0875,-5.0875,-5.0875,-4.9826,-4.9106,-4.8821,-4.7415,-4.6615,-4.6534,-4.6295,-4.6213,-4.6335,-4.6566,-4.6676,-4.6738,-4.6676,-4.6719,-0.6901,-0.7691,-0.887,-1.1443,-1.2404,-1.3017,-1.3807,0.0,-1.3495,-1.2544,-1.2304,-1.2352,-1.2677,-1.3044,-1.3893,-1.5688,-1.7003,-1.8569,-2.1035,-2.1897,-2.2885,-2.4769,-2.4873,0.0,0.0,0.0,0.0,0.0,0.0,0.0,-2.8871,-2.9955,-3.0929,-3.1707,-3.1707,-3.1908,-3.2348,-3.2587,-3.2671,-3.272,-3.2884,-3.2986,-3.3084,-3.3084,-3.2954,-3.2934,-3.2934,0.0,0.0,-3.0934,-3.1092,-3.184,-3.0476,-3.0495,-3.1344,-3.1159,-3.1079,-3.1188,-3.1636,-3.2032,-3.2424,-3.3081,-3.4102,-3.5275,-3.6139,-3.7579,-3.8906,-3.9214,-4.0102,-4.1052,-4.133,-4.1811,-4.2479,-4.332,-4.425,-4.5036,-4.5578,-4.5668,-4.5668,-4.5668,-4.635,-4.7086,-4.7729,-4.8494,-4.9252,-4.995,-5.0108,-5.0196,-5.0384,-5.0299,-5.0115,-4.9956,-5.1835,-5.3007,-5.2775,-5.2742,-5.2742,-5.2742,-5.1863,-5.1284,-5.1148,-4.9898,-4.8929,-4.8281,-4.7844,-4.7332,-4.6841,-4.676,-4.679,-4.6857,-4.6786,-4.6828,-0.7589,-0.8763,-1.0585,-1.1857,-1.3027,-1.4016,-1.4728,0.0,-1.3783,-1.3461,-1.2879,-1.2627,-1.3304,-1.3762,-1.4849,-1.7257,-1.8136,-1.9967,-2.3962,-2.4125,-2.4665,-2.6965,0.0,0.0,-2.6883,-2.7116,0.0,0.0,0.0,0.0,-2.9728,-3.0929,-3.1818,-3.2039,-3.2039,-3.2567,-3.3545,-3.3545,-3.3672,-3.4022,-3.4022,-3.3752,-3.3358,-3.3358,-3.3601,-3.3986,-3.3986,0.0,0.0,-3.284,-3.3004,-3.3659,-3.17,-3.156,-3.235,-3.1654,-3.1472,-3.1448,-3.1658,-3.2321,-3.3264,-3.3244,-3.4629,-3.6352,-3.6938,-3.7679,-3.8523,-3.908,-3.9841,-4.0675,-4.1237,-4.1421,-4.1811,-4.3378,-4.457,-4.5507,-4.5993,-4.6084,-4.6084,-4.6084,-4.733,-4.8641,-4.9443,-5.0783,-5.2025,-5.2808,-5.3002,-5.3095,-5.3095,-5.332,-5.3437,-5.3377,-5.3671,-5.3886,-5.3886,-5.3886,-5.3886,-5.3886,-5.3739,-5.3511,-5.3158,-5.3011,-5.2111,-5.0453,-5.0079,-4.9144,-4.7626,-4.7277,-4.7019,-4.6828,-4.6719,-4.668,-0.9405,-0.9938,-1.0797,-1.2951,-1.3572,-1.3845,-1.3998,-1.4323,0.0,-1.3414,-1.3467,-1.3692,-1.3848,-1.4945,-1.6524,-1.8822,-2.0914,-2.2993,-2.5325,-2.6406,-2.6859,0.0,-2.6765,0.0,-2.7116,-2.7233,0.0,0.0,0.0,0.0,-2.8544,-3.05,-3.2478,-3.4363,-3.4385,-3.4599,-3.4812,-3.4812,-3.5042,-3.5387,-3.5387,-3.5482,-3.5768,-3.5768,-3.5531,-3.5061,-3.5061,0.0,0.0,-3.3612,-3.3659,-3.3799,-3.3355,-3.3331,-3.3495,-3.3747,-3.3836,-3.3808,-3.3462,-3.3927,-3.4575,-3.4308,-3.6154,-3.8228,-3.7366,-3.8005,-3.9109,-3.9214,-4.0167,-4.1237,-4.136,-4.1482,-4.2185,-4.4774,-4.7262,-4.9071,-4.9133,-4.9216,-4.9216,-4.9216,-4.9458,-5.0091,-5.1133,-5.1617,-5.2211,-5.3199,-5.3356,-5.3386,-5.3386,-5.3415,-5.4373,-5.6747,-5.7073,-5.7136,-5.7136,-5.7136,-5.7136,-5.7136,-5.5957,-5.5353,-5.5432,-5.4009,-5.3002,-5.2584,-5.2294,-5.1142,-4.9109,-4.9107,-4.8354,-4.6867,-4.6908,-4.6946,-1.0789,-1.154,-1.228,-1.3477,-1.4608,-1.5463,-1.59,0.0,0.0,0.0,-1.5826,-1.5631,-1.5275,-1.6334,-1.7984,-2.0051,-2.2163,-2.4203,-2.6238,-2.7076,-2.7448,-2.7367,-2.7116,-2.7116,0.0,-2.7483,0.0,0.0,0.0,-2.952,-3.0612,-3.1798,-3.335,-3.5153,-3.5153,-3.5153,-3.5153,-3.5153,-3.5364,-3.5809,-3.5809,-3.6018,-3.654,-3.654,-3.6343,-3.6113,-3.6113,0.0,-3.5271,-3.478,-3.4874,-3.5225,-3.4243,-3.4149,-3.462,-3.5113,-3.5288,-3.5398,-3.5811,-3.65,-3.7244,-3.7046,-3.831,-3.986,-3.9609,-4.0267,-4.1236,-4.1653,-4.2592,-4.3435,-4.3563,-4.3595,-4.4222,-4.6417,-4.813,-4.9378,-5.0005,-5.0152,-5.0152,-5.0152,-5.0826,-5.1652,-5.2567,-5.3585,-5.4525,-5.5276,-5.557,-5.5699,-5.5699,-5.5699,-5.6325,-5.7951,-5.8098,-5.8098,-5.8098,-5.8098,-5.8098,-5.8098,-5.7486,-5.7182,-5.7375,-5.6487,-5.5644,-5.497,-5.4615,-5.3474,-5.1537,-5.1396,-5.0679,-4.9465,-4.9541,-4.9073,-1.2242,-1.3227,-1.397,-1.4492,-1.5932,-1.7385,-1.8132,-1.8486,0.0,0.0,-1.8237,-1.7521,-1.702,-1.7849,-1.9312,-2.1425,-2.322,-2.5021,-2.7029,-2.7488,-2.7622,0.0,-2.7483,-2.7483,-2.7733,-2.7733,0.0,0.0,0.0,-3.104,-3.3004,-3.3545,-3.4127,-3.4812,-3.5047,-3.5153,-3.5153,-3.5259,-3.5493,-3.5809,-3.5914,-3.6123,-3.654,-3.654,-3.6724,-3.6908,-3.6908,0.0,-3.6861,-3.5996,-3.616,-3.6744,-3.5038,-3.4995,-3.6022,-3.6517,-3.6814,-3.7152,-3.8217,-3.9226,-3.9929,-4.0124,-4.0593,-4.1269,-4.1832,-4.2483,-4.3347,-4.41,-4.5001,-4.5773,-4.5874,-4.604,-4.6557,-4.8222,-4.8717,-4.9232,-5.063,-5.0984,-5.0984,-5.0984,-5.2075,-5.326,-5.3936,-5.55,-5.6941,-5.748,-5.7865,-5.8098,-5.8098,-5.8098,-5.813,-5.8162,-5.813,-5.8162,-5.8261,-5.8193,-5.8193,-5.8254,-5.8461,-5.8654,-5.8809,-5.8947,-5.846,-5.7241,-5.6904,-5.588,-5.4141,-5.376,-5.3143,-5.2321,-5.2297,-5.1412,-1.4213,-1.4552,-1.4782,-1.7356,-1.7688,-1.7606,-1.841,-1.8599,-1.8667,-1.881,0.0,-1.7861,-1.847,-1.9224,-2.0786,-2.3688,0.0,-2.7117,-2.8466,-2.8885,-2.8571,-2.7436,-2.7483,-2.7733,-2.7733,-2.7733,-2.8295,-2.9633,-3.0836,-3.1576,-3.1908,-3.3804,-3.4577,-3.3675,-3.4683,-3.5153,-3.5153,-3.547,-3.5703,-3.5809,-3.6228,-3.6436,-3.654,-3.6828,-3.6931,-3.6908,-3.6908,0.0,-3.6908,-3.6767,-3.6791,-3.6884,-3.6604,-3.719,-3.8166,-3.8661,-3.9387,-4.0117,-3.9918,-4.0349,-4.1192,-4.207,-4.2407,-4.2293,-4.1297,-4.2025,-4.3231,-4.3627,-4.4694,-4.5874,-4.6135,-4.6684,-4.7718,-4.9755,-5.0752,-5.1792,-5.3774,-5.4157,-5.4157,-5.4157,-5.4383,-5.4714,-5.5412,-5.6091,-5.6788,-5.7407,-5.7865,-5.8098,-5.8098,-5.8098,-5.8193,-5.8441,-5.8254,-5.8285,-5.8755,-5.8583,-5.8555,-5.8781,-5.8821,-5.8947,-5.921,-5.9342,-5.9312,-5.9129,-5.908,-5.8025,-5.5992,-5.5725,-5.4502,-5.2443,-5.237,-5.1976,-1.4865,-1.5847,-1.6525,-1.8559,-1.9292,-1.9642,-2.0075,-2.0716,-2.1098,-2.0842,-2.0515,0.0,-1.9633,-2.0462,0.0,0.0,0.0,0.0,-2.8365,-2.8596,-2.8454,0.0,-2.7966,0.0,-2.7966,-2.7966,-2.8526,0.0,-3.1596,-3.2895,-3.3588,-3.4599,-3.494,-3.4448,-3.4918,-3.5153,-3.5153,-3.5364,-3.5598,-3.5809,-3.61,-3.6436,-3.654,-3.6828,-3.6908,-3.6908,0.0,-3.6908,-3.6908,-3.6908,-3.6908,-3.701,-3.7702,-3.8284,-3.8859,-4.0615,-4.147,-4.1978,-4.2405,-4.2774,-4.3125,-4.3588,-4.3788,-4.3846,-4.43,-4.4926,-4.5706,-4.6803,-4.763,-4.8223,-4.8562,-4.8936,-4.9628,-5.1393,-5.2105,-5.28,-5.4481,-5.4781,-5.4781,-5.4781,-5.4781,-5.4958,-5.5364,-5.609,-5.6742,-5.7179,-5.7729,-5.8098,-5.8098,-5.8098,-5.8193,-5.8498,-5.9255,-5.9898,-6.0162,-6.0993,-6.1078,-6.0262,-6.0354,-6.0076,-5.9327,-5.9487,-5.9621,-5.9684,-5.9708,-5.9155,-5.8117,-5.7916,-5.7152,-5.5752,-5.5399,-5.4561,-1.5864,-1.7006,-1.7965,-1.9786,-2.0688,-2.1296,-2.1738,-2.2551,-2.3026,-2.2743,-2.2458,-2.203,0.0,0.0,0.0,-2.4151,-2.5363,0.0,-2.8269,-2.85,0.0,-2.8233,0.0,-2.8215,-2.8215,-2.8428,0.0,0.0,-3.2684,-3.4278,-3.5175,-3.5397,-3.542,-3.5175,-3.5153,-3.5153,-3.5153,-3.5153,-3.5364,-3.5809,-3.6205,-3.6598,-3.6931,-3.6931,-3.7216,-3.7702,-3.7397,-3.7499,-3.7702,-3.7702,-3.7804,-3.7881,-3.856,-3.9255,-4.0037,-4.1778,-4.2758,-4.3331,-4.4226,-4.449,-4.449,-4.449,-4.449,-4.484,-4.6394,-4.7048,-4.7579,-4.9268,-4.9886,-5.0173,-5.0521,-5.0769,-5.1218,-5.2587,-5.3019,-5.3439,-5.453,-5.4781,-5.4781,-5.4781,-5.4781,-5.4887,-5.5097,-5.5942,-5.6658,-5.6901,-5.7624,-5.8098,-5.8098,-5.853,-5.8943,-5.9176,-6.0717,-6.1795,-6.2017,-6.3175,-6.3325,-6.2164,-6.2235,-6.1844,-6.0723,-6.0881,-6.105,-6.1165,-6.1145,-6.107,-6.0856,-6.0233,-5.9628,-5.9042,-5.799,-5.6693,-1.7794,-1.8014,-1.8364,-2.1729,-2.2098,-2.1821,-2.278,-2.3088,-2.3167,-2.342,-2.285,-2.2529,0.0,0.0,-2.3314,-2.6308,-2.6878,-2.7484,-2.9071,-2.9284,-2.9017,0.0,0.0,0.0,0.0,0.0,0.0,-3.3112,0.0,-3.5012,-3.5197,-3.6151,-3.6241,-3.5197,-3.5153,-3.5153,-3.5153,-3.5153,-3.5364,-3.5809,-3.6517,-3.7318,-3.803,-3.7216,-3.8006,-3.9868,-3.8884,-3.8983,-3.9868,-3.9868,-4.0062,-4.0134,-3.9255,-4.023,-4.2084,-4.147,-4.2547,-4.431,-4.4431,-4.449,-4.449,-4.449,-4.449,-4.4666,-4.5641,-4.6634,-4.7646,-4.8712,-4.974,-5.0591,-5.0866,-5.135,-5.2014,-5.2712,-5.3346,-5.3961,-5.4673,-5.4781,-5.4781,-5.4781,-5.4781,-5.4834,-5.4834,-5.5766,-5.6658,-5.6901,-5.7624,-5.8098,-5.8098,-5.975,-6.0949,-6.1094,-6.26,-6.3761,-6.4154,-6.4144,-6.4203,-6.4382,-6.4391,-6.4391,-6.4473,-6.4581,-6.4649,-6.4649,-6.4681,-6.4643,-6.4649,-6.267,-6.1485,-6.1005,-5.8654,-5.7262,-1.7778,-1.9117,-2.0133,-2.2572,-2.3438,-2.3612,-2.3456,-2.3378,-2.3378,-2.3474,-2.3355,-2.3153,-2.342,-2.3242,-2.3759,-2.5916,-2.6254,-2.6807,-2.8393,-2.8607,-2.8518,-2.8251,-2.8215,-2.8428,0.0,0.0,0.0,-3.4329,-3.5493,-3.6399,-3.7178,-3.7535,-3.7267,-3.6241,-3.6196,-3.5906,-3.5153,-3.5153,-3.5364,-3.5809,-3.7113,-3.7828,-3.8131,-3.8685,-3.9378,-4.0062,-3.9672,-3.9672,-4.0062,-4.0062,-4.0159,-4.0423,-4.0902,-4.1778,-4.2666,-4.3186,-4.3843,-4.4431,-4.4519,-4.449,-4.449,-4.449,-4.449,-4.4753,-4.6311,-4.7069,-4.7725,-4.9416,-5.0205,-5.0591,-5.0866,-5.1418,-5.1949,-5.2207,-5.3046,-5.3904,-5.413,-5.453,-5.4781,-5.4781,-5.4781,-5.4781,-5.4781,-5.5512,-5.633,-5.7181,-5.7764,-5.8503,-5.9604,-6.0489,-6.1497,-6.2733,-6.4446,-6.5651,-6.5923,-6.6941,-6.7151,-6.6208,-6.6242,-6.5821,-6.475,-6.4856,-6.4943,-6.4908,-6.4929,-6.4929,-6.4908,-6.283,-6.175,-6.1544,-5.8796,-5.7454,-1.7465,-1.9224,-2.0857,-2.2353,-2.3781,-2.4641,-2.3744,-2.357,-2.3666,-2.357,-2.357,-2.3666,-2.357,-2.3474,-2.3991,-2.5577,-2.6144,-2.6793,-2.7983,-2.8526,-2.8756,-2.8756,-2.8756,0.0,0.0,0.0,0.0,-3.4947,-3.6399,-3.7401,-3.7736,-3.8383,-3.8294,-3.7289,-3.7245,-3.6932,-3.6285,-3.5928,-3.5964,-3.6391,-3.7071,-3.7499,-3.7726,-3.8983,-4.0159,-4.1118,-4.0737,-4.0737,-4.1118,-4.1213,-4.1376,-4.1658,-4.227,-4.2849,-4.3394,-4.3843,-4.4226,-4.449,-4.449,-4.449,-4.4606,-4.4898,-4.4753,-4.4927,-4.7048,-4.7579,-4.799,-4.9845,-5.0521,-5.0694,-5.0866,-5.1247,-5.1653,-5.2143,-5.2864,-5.3615,-5.4108,-5.453,-5.4781,-5.4781,-5.4781,-5.4834,-5.4887,-5.5379,-5.6118,-5.7143,-5.7659,-5.881,-6.1117,-6.2247,-6.3283,-6.4543,-6.6352,-6.7528,-6.7711,-6.8771,-6.8972,-6.7986,-6.8028,-6.7614,-6.6534,-6.6569,-6.6598,-6.6632,-6.6607,-6.6599,-6.6566,-6.3976,-6.2708,-6.2585,-5.9327,-5.7693,-1.7065,-1.858,-2.0465,-2.105,-2.3024,-2.4642,-2.3672,-2.369,-2.3804,-2.3552,-2.3762,-2.3858,-2.357,-2.3474,-2.4089,-2.5682,-2.6843,-2.7738,-2.8195,-2.9196,-2.9955,-2.9955,-2.9955,-3.05,0.0,-3.2786,-3.4019,-3.5197,-3.7156,-3.7847,-3.6865,-3.8673,-3.9298,-3.8361,-3.8316,-3.8316,-3.8271,-3.7289,-3.7084,-3.7631,-3.6709,-3.654,-3.716,-3.8107,-4.023,-4.3123,-4.2111,-4.2177,-4.3214,-4.3394,-4.3664,-4.3843,-4.3123,-4.3485,-4.4402,-4.3485,-4.3754,-4.449,-4.449,-4.449,-4.4666,-4.5556,-4.5214,-4.4985,-4.7598,-4.8098,-4.8175,-4.9845,-5.0655,-5.0967,-5.0935,-5.0935,-5.1315,-5.2587,-5.2897,-5.3261,-5.4565,-5.4816,-5.485,-5.4869,-5.4869,-5.4957,-5.508,-5.5498,-5.6126,-5.6802,-5.7326,-5.8975,-6.2519,-6.489,-6.6346,-6.6564,-6.8263,-6.9402,-6.9402,-6.9387,-6.9464,-6.9604,-6.9731,-6.9824,-6.996,-6.996,-6.996,-6.9962,-6.9971,-6.993,-6.979,-6.6301,-6.4521,-6.4246,-6.0267,-5.8063,-2.2495,0.0,0.0,-2.2191,-2.3294,-2.4075,-2.2455,-2.2137,-2.2481,-2.3812,-2.3858,-2.3666,-2.3762,-2.3666,-2.4268,-2.6771,-2.6652,-2.7008,-2.9182,-2.9747,-2.9955,-2.9955,-3.0724,-3.2039,-3.4041,-3.447,-3.5098,-3.6263,-3.7535,-3.845,-3.8852,-4.0057,-4.0302,-3.932,-3.9298,-3.8963,-3.8271,-3.864,-3.924,-4.0099,-3.9563,-4.0169,-4.1529,-4.1028,-4.159,-4.3123,-4.2849,-4.2849,-4.3214,-4.3394,-4.3664,-4.396,-4.3899,-4.4166,-4.449,-4.4226,-4.4314,-4.449,-4.449,-4.449,-4.4578,-4.484,-4.484,-4.5186,-4.712,-4.7803,-4.8299,-5.003,-5.0694,-5.1004,-5.1552,-5.1982,-5.2431,-5.2774,-5.3591,-5.4254,-5.4164,-5.5372,-5.6187,-5.5149,-5.5863,-5.6682,-5.6807,-5.7267,-5.8201,-5.9894,-6.0664,-6.1535,-6.2813,-6.4732,-6.6586,-6.8125,-6.8977,-6.9407,-6.9392,-6.9467,-6.9604,-6.9735,-6.9841,-6.9957,-6.996,-6.996,-6.9966,-6.997,-6.9969,-6.997,-6.9931,-6.7537,-6.5658,-6.4264,-6.1455,-5.9232,-2.1077,0.0,0.0,0.0,-2.1486,-2.2073,-2.2433,-2.1771,-2.1762,-2.408,-2.4222,-2.405,-2.4299,-2.4299,-2.5029,0.0,-2.7779,-2.8585,-3.0379,-3.104,-3.1374,-3.1374,-3.2478,-3.3696,-3.5047,-3.5153,-3.5397,-3.6062,-3.7446,-3.8517,-3.9052,-4.0391,-4.1005,-4.0302,-4.028,-4.0012,-3.9476,-3.9753,-4.042,-4.1589,-4.1184,-4.1829,-4.3442,-4.2689,-4.2641,-4.3275,-4.3158,-4.3214,-4.3304,-4.3574,-4.3871,-4.4077,-4.4282,-4.4459,-4.449,-4.449,-4.449,-4.449,-4.449,-4.4753,-4.5157,-4.5612,-4.5864,-4.6282,-4.8067,-4.8605,-4.8832,-5.0173,-5.0764,-5.1004,-5.1418,-5.1818,-5.2176,-5.2712,-5.3439,-5.4223,-5.5044,-5.6299,-5.7164,-5.6995,-5.7711,-5.8413,-5.8575,-5.894,-6.0244,-6.3114,-6.3872,-6.4332,-6.4948,-6.6072,-6.7359,-6.8705,-6.9061,-6.9268,-6.9393,-6.9502,-6.9641,-6.9799,-6.9887,-6.997,-6.997,-6.997,-6.9966,-6.9995,-6.9995,-6.9962,-6.9968,-6.8148,-6.6211,-6.4266,-6.2217,-5.9939,-1.5914,-1.6079,0.0,-1.7897,-1.812,-1.8924,0.0,0.0,-2.0752,-2.3469,-2.4095,-2.4284,-2.4488,-2.4845,-2.5724,-2.7521,-2.9335,-3.0827,-3.1652,-3.2723,-3.3437,-3.3653,-3.4577,-3.5153,-3.5153,-3.5153,-3.5153,-3.5153,-3.7022,-3.816,-3.8271,-3.999,-4.1139,-4.1251,-4.1251,-4.1251,-4.1497,-4.0979,-4.1559,-4.2961,-4.2365,-4.2849,-4.4223,-4.3896,-4.3685,-4.35,-4.3408,-4.3414,-4.3485,-4.3843,-4.4077,-4.4338,-4.4431,-4.449,-4.449,-4.449,-4.4578,-4.4666,-4.4666,-4.53,-4.6169,-4.709,-4.7488,-4.7803,-4.9667,-4.9813,-4.9563,-5.0347,-5.0764,-5.0935,-5.1004,-5.1074,-5.1418,-5.2712,-5.3154,-5.4083,-5.6588,-5.7512,-5.8234,-5.9454,-5.997,-6.0186,-6.033,-6.0599,-6.2169,-6.591,-6.6474,-6.6804,-6.7706,-6.8103,-6.8367,-6.8619,-6.887,-6.9142,-6.9393,-6.9528,-6.967,-6.9819,-6.9929,-6.996,-6.996,-6.996,-6.996,-6.996,-6.996,-6.998,-6.9966,-6.8451,-6.6552,-6.4298,-6.2805,-6.052,0.0,0.0,0.0,0.0,0.0,0.0,0.0,0.0,-1.5625,-1.8363,-2.014,-2.1526,-2.2405,-2.3373,-2.5113,-2.8473,-2.8589,-2.9145,-3.1683,-3.2885,-3.3783,-3.4705,-3.5047,-3.5153,-3.5153,-3.5153,-3.5153,-3.5153,-3.6352,-3.7379,-3.8249,-3.9342,-4.0324,-4.1229,-4.1251,-4.1842,-4.3008,-4.3747,-4.4998,-4.6955,-4.657,-4.681,-4.7638,-4.6648,-4.5563,-4.4586,-4.4558,-4.4089,-4.3304,-4.3754,-4.4077,-4.4338,-4.4431,-4.449,-4.449,-4.449,-4.4985,-4.5612,-4.5612,-4.6252,-4.717,-4.733,-4.7646,-4.8114,-4.9237,-4.9531,-4.975,-5.0591,-5.0866,-5.1074,-5.1586,-5.2078,-5.2712,-5.3498,-5.5033,-5.6519,-5.7164,-5.9223,-6.08,-6.0151,-6.1046,-6.1944,-6.2075,-6.2185,-6.3178,-6.6043,-6.6474,-6.6804,-6.7706,-6.8238,-6.8552,-6.8619,-6.9036,-6.9348,-6.9393,-6.96,-6.9791,-6.9933,-6.9954,-6.996,-6.996,-6.996,-6.996,-6.996,-6.996,-6.9966,-6.9976,-6.9629,-6.7723,-6.4339,-6.4022,-6.1724,0.0,0.0,0.0,0.0,0.0,0.0,0.0,0.0,0.0,0.0,0.0,-1.9302,0.0,0.0,-2.4951,-2.8145,-2.9378,-3.0615,-3.2693,-3.3753,-3.447,-3.5153,-3.5153,-3.5153,-3.5153,-3.5153,-3.5153,-3.5153,-3.6174,-3.7178,-3.8227,-3.9164,-4.0124,-4.1229,-4.162,-4.2428,-4.3487,-4.4621,-4.6099,-4.7982,-4.8055,-4.8591,-4.9404,-4.8202,-4.7001,-4.5799,-4.5171,-4.4308,-4.3394,-4.3754,-4.4166,-4.4459,-4.4519,-4.449,-4.4578,-4.4985,-4.5471,-4.5948,-4.65,-4.728,-4.8175,-4.8376,-4.8832,-4.9384,-4.9958,-5.0205,-5.0347,-5.0796,-5.0967,-5.1004,-5.1315,-5.1982,-5.2879,-5.426,-5.5787,-5.7393,-5.9314,-6.1018,-6.2159,-6.2343,-6.3088,-6.3671,-6.3749,-6.3749,-6.4348,-6.6223,-6.6474,-6.6804,-6.7706,-6.8171,-6.7829,-6.6346,-6.654,-6.6808,-6.6962,-6.7155,-6.8026,-6.9773,-6.9922,-6.996,-6.996,-6.9911,-6.9911,-6.996,-6.9911,-6.9911,-6.996,-6.9134,-6.7233,-6.4339,-6.3475,-6.1263,0.0,0.0,0.0,0.0,0.0,0.0,0.0,0.0,0.0,0.0,0.0,0.0,0.0,0.0,0.0,-2.6794,-2.9654,-3.1968,-3.3362,-3.4344,-3.4864,-3.4864,-3.5042,-3.5153,-3.5153,-3.5153,-3.5153,-3.5153,-3.5995,-3.6888,-3.7937,-3.8695,-3.9633,-4.0938,-4.1887,-4.2917,-4.4057,-4.5179,-4.6667,-4.8447,0.0,0.0,-4.995,-4.8994,-4.7766,-4.647,-4.5335,-4.4401,-4.3574,-4.3843,-4.4138,-4.4431,-4.449,-4.449,-4.4578,-4.5556,-4.6032,-4.6335,-4.736,-4.833,-4.915,-4.9489,-5.003,-5.0662,-5.0866,-5.0967,0.0,-5.0967,-5.0935,-5.1004,-5.1004,-5.1586,-5.273,-5.4925,-5.6269,-5.797,-6.1451,-6.2553,-6.3241,-6.4527,-6.4831,-6.4911,-6.4911,-6.4911,-6.5056,-6.5455,-6.6077,-6.6586,-6.6861,-6.7696,-6.7365,-6.4977,-6.4981,-6.5267,-6.5485,-6.505,-6.6205,-6.9601,-6.9281,-6.886,-6.8519,-6.8411,-6.8252,-6.8026,-6.7925,-6.8266,-6.9012,-6.7613,-6.5908,-6.3813,-5.9179,-5.6561,0.0,0.0,0.0,0.0,0.0,0.0,0.0,0.0,0.0,0.0,0.0,0.0,0.0,0.0,0.0,0.0,-2.6801,-2.942,-3.2043,-3.334,-3.3942,-3.3942,-3.4723,-3.5153,-3.5153,-3.5153,-3.5153,-3.5153,-3.5264,-3.5861,-3.6843,0.0,0.0,0.0,0.0,-4.3353,-4.592,-4.7118,-4.8474,-5.0093,-5.012,-4.9681,-4.8749,-4.8612,-4.7301,-4.5116,-4.4953,-4.4401,-4.3574,-4.3843,-4.4077,-4.431,-4.4431,-4.449,-4.4578,-4.5556,-4.65,-4.7409,-4.836,0.0,0.0,-5.0418,-5.0591,-5.0866,-5.0967,-5.0967,-5.0967,-5.0967,-5.1041,-5.1114,-5.1114,-5.1785,-5.2954,-5.5083,-5.7115,-5.9342,-6.1809,-6.3487,-6.4562,-6.4853,-6.4911,-6.4911,-6.4911,-6.4911,-6.4293,-6.2457,-6.4622,-6.5744,-6.3771,-6.6454,-6.844,-6.8097,0.0,0.0,-6.8999,-6.6392,-6.6231,-6.9743,-6.7142,-6.4833,-6.3298,-6.3225,-6.2543,-6.1029,-6.0985,-6.247,-6.5489,-6.5301,-6.4272,-6.2074,-4.6838,-4.2474,0.0,0.0,0.0,0.0,0.0,0.0,0.0,0.0,0.0,0.0,0.0,0.0,0.0,0.0,0.0,0.0,-2.5037,-2.7266,-2.8658,-3.0729,-3.2589,-3.363,-3.4143,-3.4634,-3.5108,-3.5153,-3.5153,-3.5153,-3.5973,-3.6723,-3.7408,-3.7865,-3.8972,-4.0916,-4.1589,-4.3001,-4.522,-4.6312,-4.7279,-4.8257,-4.8257,-4.8011,-4.762,-4.762,-4.6564,-4.4898,-4.5087,-4.4614,-4.3781,-4.4077,-4.4282,0.0,0.0,0.0,0.0,0.0,-4.6826,-4.836,-4.9447,-5.0133,-5.0591,-5.0694,-5.0866,-5.0967,-5.0967,-5.0967,-5.0967,-5.0967,-5.1041,-5.1114,-5.1114,-5.1851,-5.3376,-5.638,-5.8109,-5.9991,-6.3171,-6.4374,-6.4889,-6.4911,-6.4911,0.0,-6.4911,-6.4911,-6.4808,-6.4519,-6.5607,-6.634,-6.6081,-6.7544,-6.7931,-6.61,-6.6289,-6.6637,-6.6765,-6.5499,0.0,0.0,0.0,-6.7532,-6.6844,-6.6728,0.0,0.0,0.0,0.0,0.0,0.0,0.0,0.0,-4.2855,-4.0485,0.0,0.0,0.0,0.0,0.0,0.0,0.0,0.0,0.0,0.0,0.0,0.0,0.0,0.0,0.0,0.0,0.0,-2.4977,-2.5442,-2.7833,-3.0258,-3.2335,-3.3049,-3.3563,-3.3907,-3.4545,-3.4857,-3.4857,-3.6125,-3.7107,-3.7747,-3.8089,-3.9197,-4.1325,-4.1645,-4.275,-4.4755,-4.5726,-4.6468,-4.7182,-4.6744,-4.647,-4.6361,-4.6498,-4.5882,-4.45,-4.4779,-4.4585,-4.4077,-4.4221,-4.437,-4.449,-4.4753,-4.5329,-4.5864,-4.6115,-4.734,-4.8956,-5.0133,-5.0591,-5.0662,-5.0866,-5.0967,-5.0967,-5.0967,-5.0967,-5.0935,-5.1004,-5.111,-5.1214,-5.1282,-5.1883,-5.3284,-5.6589,-5.7877,-5.9343,-6.2636,-6.3531,-6.3784,-6.4207,-6.3925,-6.3644,-6.3644,-6.3996,-6.4348,-6.4447,-6.5607,0.0,-6.6743,-6.7842,-6.7745,-6.548,-6.5619,-6.5916,-6.6046,-6.5219,-6.6234,-6.9779,-6.9112,-6.8784,-6.9272,-6.7842,-6.6193,-6.4359,-5.7623,-5.3669,0.0,0.0,0.0,0.0,0.0,0.0,0.0,0.0,0.0,0.0,0.0,0.0,0.0,0.0,0.0,0.0,0.0,0.0,0.0,0.0,0.0,0.0,0.0,0.0,-2.3166,-2.4804,-2.6859,-2.9168,-3.1197,-3.2023,-3.1153,-3.2737,-3.3808,-3.3808,-3.5035,-3.6205,-3.7239,-3.6621,-3.7815,-4.1153,-4.1333,-4.2697,-4.543,-4.6345,-4.7165,-4.8003,-4.6291,-4.5335,-4.4953,-4.5703,-4.5203,-4.363,-4.3809,-4.4105,-4.431,-4.4338,-4.437,-4.4578,-4.5471,-4.5894,-4.5977,-4.6916,-4.7876,-4.8956,-5.0133,-5.0694,-5.0866,-5.0967,-5.0967,-5.0967,-5.0967,-5.0967,-5.0935,-5.1078,-5.1282,-5.155,-5.1652,-5.1818,-5.2506,-5.4741,-5.577,-5.6874,-5.8974,-5.9955,-6.0863,-6.2376,-6.1426,-6.037,-6.037,-6.1637,-6.1975,-5.9794,-6.3513,0.0,-6.3404,-6.6337,-6.8573,-6.8499,-6.8917,-6.9312,-6.944,-6.6531,-6.6231,-6.9779,-6.691,-6.5814,-6.7456,-6.2799,-5.9335,-5.7518,-5.4128,-5.0766,-4.7462,0.0,0.0,0.0,0.0,0.0,0.0,0.0,0.0,0.0,0.0,0.0,0.0,0.0,0.0,0.0,0.0,0.0,0.0,0.0,0.0,0.0,0.0,0.0,0.0,0.0,-2.5055,-2.8154,-2.9041,-2.9323,-2.9089,-3.0805,-3.1867,-3.1918,-3.3786,-3.5596,-3.7046,-3.7484,-3.8972,-4.1858,-4.2361,-4.298,-4.3915,-4.4215,-4.4488,-4.4761,-4.4188,-4.386,-4.3724,-4.398,-4.3917,-4.3574,-4.396,-4.4138,-4.4166,-4.4342,-4.4431,-4.4578,-4.5556,-4.6228,-4.6886,-4.7658,-4.8743,-4.9876,-5.0308,-5.0623,-5.0967,-5.0967,-5.0967,-5.0967,-5.0967,-5.0967,-5.0935,-5.1004,-5.1279,-5.1483,-5.155,-5.1752,-5.2441,-5.4707,-5.5359,-5.6198,-5.8719,-5.9467,-5.9865,-6.0879,-5.8875,-5.6433,-5.4443,-5.7822,-5.97,-5.6545,-6.0901,-6.4949,-6.6051,-6.746,-6.8507,-6.8824,-6.9177,-6.9496,-6.9724,-6.8714,-6.8622,-6.9893,-6.7851,-6.6811,-6.7301,-6.4505,-6.2141,-6.0392,-5.8167,-5.2157,-4.2194,0.0,0.0,0.0,0.0,0.0,0.0,0.0,0.0,0.0,0.0,0.0,0.0,0.0,0.0,0.0,0.0,0.0,0.0,0.0,0.0,0.0,0.0,0.0,0.0,0.0,0.0,-2.7198,-2.7111,0.0,-2.6593,-2.7621,-2.8202,-2.7905,-3.0363,-3.2757,-3.4483,-3.5926,-3.8269,-4.1482,-4.2089,-4.2549,-4.3123,-4.3123,-4.3123,-4.3123,-4.3123,-4.3123,-4.3214,-4.3485,-4.3664,-4.3754,-4.4138,-4.4226,-4.4314,-4.4402,-4.3984,-4.3337,-4.4416,-4.466,-4.4668,-4.6656,-4.8077,-4.9003,-4.9887,-5.0308,-5.0284,-4.9805,-4.8626,-4.7417,-4.7811,-4.7168,-4.6717,-4.8296,-4.8978,-4.9628,-5.1159,-5.1752,-5.2244,-5.3656,-5.4208,-5.4915,-5.6946,-5.7081,-5.7095,-5.7851,-5.6405,-5.3719,-4.9614,-5.275,-5.5055,-5.2859,-5.7047,-6.1982,-6.6158,-6.7693,-6.8536,-6.8873,-6.9239,-6.955,-6.9752,-6.929,-6.9005,-6.9059,-6.748,-6.625,-6.5545,-6.4343,-6.1788,-5.7653,-5.6449,-4.994,0.0,0.0,0.0,0.0,0.0,0.0,0.0,0.0,0.0,0.0,0.0,0.0,0.0,0.0,0.0,0.0,0.0,0.0,0.0,0.0,0.0,0.0,0.0,0.0,0.0,0.0,0.0,-2.5753,-2.5165,0.0,0.0,0.0,0.0,-2.2086,-2.4992,-2.7768,-2.9812,-3.2032,-3.5233,-3.949,-4.018,-4.1151,-4.2759,-4.2904,-4.2932,-4.2959,-4.3068,-4.3123,-4.3214,-4.4049,-4.4314,-4.4138,-4.4402,-4.449,-4.449,-4.4237,-4.2801,-4.0759,-4.2101,-4.1115,-3.9602,-4.3793,-4.5557,-4.6169,-4.873,-4.9362,-4.8685,-4.7268,-4.4113,-4.1016,-4.1722,-4.002,0.0,0.0,-4.4402,-4.562,-5.0181,-5.149,-5.162,-5.1818,-5.2398,-5.3019,-5.3639,-5.3107,-5.2685,0.0,-5.3533,-5.1735,-4.5488,0.0,-4.7937,-4.8257,-5.1881,-5.6927,-6.3526,-6.6778,-6.8565,-6.8795,-6.9277,-6.9619,-6.9755,-6.8349,-6.7414,-6.7417,-6.5784,-6.408,-6.2448,-6.1852,-5.7757,-4.9684,-4.8937,0.0,0.0,0.0,0.0,0.0,0.0,0.0,0.0,0.0,0.0,0.0,0.0,0.0,0.0,0.0,0.0,0.0,0.0,0.0,0.0,0.0,0.0,0.0,0.0,0.0,0.0,-1.6647,-1.8213,-2.2176,-2.1111,-1.9333,0.0,0.0,0.0,0.0,0.0,0.0,-2.4531,-2.6895,-3.0036,-3.4157,-3.4493,-3.5764,-3.8222,-3.9748,-4.0528,-4.0556,-4.2276,-4.3123,-4.3123,-4.3394,-4.3843,-4.4402,-4.449,-4.449,-4.4209,-4.0492,-3.8653,-3.8012,-3.7523,-3.6948,-3.6745,-4.002,-4.0645,-4.038,-4.3654,-4.4023,-4.2896,-4.1269,-4.018,-3.895,-3.6469,0.0,0.0,0.0,0.0,-3.8631,-4.5241,-4.703,-4.7938,-5.1127,-5.2014,-5.2335,-5.3019,-5.2957,-5.1362,0.0,-4.4799,-4.1446,-3.3373,0.0,0.0,0.0,0.0,-5.2971,-5.8645,-6.3437,-6.695,-6.8637,-6.9102,-6.9414,-6.9746,-6.8287,-6.7313,-6.7307,-6.4638,-6.2765,-6.2114,-5.6119,-5.1677,-4.931,0.0,0.0,0.0,0.0,0.0,0.0,0.0,0.0,0.0,0.0,0.0,0.0,0.0,0.0,0.0,0.0,0.0,0.0,0.0,0.0,0.0,0.0,0.0,0.0,0.0,0.0,0.0,-1.5017,-1.6389,-1.9044,-1.7573,-1.5932,0.0,0.0,0.0,0.0,0.0,0.0,0.0,0.0,0.0,-2.7924,-2.7392,-2.9348,-3.4026,-3.4145,-3.4792,-3.5866,-3.8937,-4.0832,-4.1593,-4.1828,-4.2368,-4.3335,-4.3335,-4.2941,-4.2041,-3.8061,-3.476,-3.2177,0.0,0.0,0.0,0.0,-3.2561,-3.2467,-3.5562,-3.5996,0.0,-3.3954,0.0,0.0,0.0,0.0,0.0,0.0,0.0,0.0,0.0,0.0,-4.6625,-4.904,-4.9594,-4.985,-5.0775,-4.8269,-4.4528,0.0,-3.864,-3.5699,-2.8133,0.0,0.0,0.0,0.0,-4.7726,-5.3443,-6.0996,-6.6346,-6.7661,-6.8732,-6.9513,-6.9753,-6.7501,-6.6067,-6.6085,-6.2989,-5.9828,-5.6674,-5.2068,-4.5383,0.0,0.0,0.0,0.0,0.0,0.0,0.0,0.0,0.0,0.0,0.0,0.0,0.0,0.0,0.0,0.0,0.0,0.0,0.0,0.0,0.0,0.0,0.0,0.0,0.0,0.0,0.0,0.0,0.0,-1.5315,-1.5932,0.0,0.0,0.0,0.0,0.0,0.0,0.0,0.0,0.0,0.0,0.0,0.0,0.0,-2.3039,-2.9395,-2.76,-2.7899,-3.0315,-3.4072,-3.6892,-3.8671,-3.869,-3.956,-4.0783,-3.9919,0.0,-3.8404,-3.4988,0.0,0.0,0.0,0.0,0.0,0.0,0.0,0.0,0.0,0.0,0.0,0.0,0.0,0.0,0.0,0.0,0.0,0.0,0.0,0.0,0.0,0.0,-4.5008,-4.523,-4.5714,-4.6118,0.0,-4.0743,-3.5235,-3.3232,-3.3172,0.0,0.0,0.0,0.0,0.0,0.0,0.0,-4.8299,-5.8692,-6.578,-6.6402,-6.8091,-6.9245,-6.9395,-6.6389,-6.4384,-6.4167,-6.0492,-5.5673,-4.9798,-4.8513,0.0,0.0,0.0,0.0,0.0,0.0,0.0,0.0,0.0,0.0,0.0,0.0,0.0,0.0,0.0,0.0,0.0,0.0,0.0,0.0,0.0,0.0,0.0,0.0,0.0,0.0,0.0,0.0,0.0,0.0,0.0,0.0,0.0,0.0,0.0,0.0,0.0,0.0,0.0,0.0,0.0,0.0,0.0,0.0,0.0,0.0,0.0,0.0,0.0,0.0,-2.9198,-3.1344,-3.3466,-3.1846,-3.2786,-3.555,-3.0066,-2.9966,-3.3227,-2.6682,0.0,0.0,0.0,0.0,0.0,0.0,0.0,0.0,0.0,0.0,0.0,0.0,0.0,0.0,0.0,0.0,0.0,0.0,0.0,0.0,0.0,0.0,0.0,0.0,-4.0668,-4.1347,0.0,0.0,0.0,0.0,0.0,0.0,0.0,0.0,0.0,0.0,0.0,0.0,-4.3771,-5.438,-6.2743,-6.6133,-6.6798,-6.7115,-6.7348,-6.5431,-6.3682,-6.236,-5.5324,-5.0621,0.0,0.0,0.0,0.0,0.0,0.0,0.0,0.0,0.0,0.0,0.0,0.0,0.0,0.0,0.0,0.0,0.0,0.0,0.0,0.0,0.0,0.0,0.0,0.0,0.0,0.0,0.0,0.0,0.0,0.0,0.0,0.0,0.0,0.0,0.0,0.0,0.0,0.0,0.0,0.0,0.0,0.0,0.0,0.0,0.0,0.0,0.0,0.0,0.0,0.0,0.0,0.0,0.0,0.0,0.0,0.0,0.0,0.0,0.0,-2.3161,0.0,0.0,0.0,0.0,0.0,0.0,0.0,0.0,0.0,0.0,0.0,0.0,0.0,0.0,0.0,0.0,0.0,0.0,0.0,0.0,0.0,0.0,0.0,0.0,0.0,0.0,0.0,0.0,0.0,0.0,0.0,0.0,0.0,0.0,0.0,0.0,0.0,0.0,0.0,0.0,-4.0374,-5.2645,-6.1761,-6.365,-6.4629,-6.5043,-6.4756,-6.2861,-5.9987,-5.6014,-5.1249,0.0,0.0,0.0,0.0,0.0,0.0,0.0,0.0,0.0,0.0,0.0,0.0,0.0,0.0,0.0,0.0,0.0,0.0,0.0,0.0,0.0,0.0,0.0,0.0,0.0,0.0,0.0,0.0,0.0,0.0,0.0,0.0,0.0,0.0,0.0,0.0,0.0,0.0,0.0,0.0,0.0,0.0,0.0,0.0,0.0,0.0,0.0,0.0,0.0,0.0,0.0,0.0,0.0,0.0,0.0,0.0,0.0,0.0,0.0,-2.2103,0.0,0.0,0.0,0.0,0.0,0.0,0.0,0.0,0.0,0.0,0.0,0.0,0.0,0.0,0.0,0.0,0.0,0.0,0.0,0.0,0.0,0.0,0.0,0.0,0.0,0.0,0.0,0.0,0.0,0.0,0.0,0.0,0.0,0.0,0.0,0.0,0.0,0.0,0.0,0.0,0.0,-3.83,-5.1265,-6.0564,-6.1276,-6.2286,-6.2577,-6.17,-5.9706,-5.5833,-4.9361,-4.656,0.0,0.0,0.0,0.0,0.0,0.0,0.0,0.0,0.0,0.0,0.0,0.0,0.0,0.0,0.0,0.0,0.0,0.0,0.0,0.0,0.0,0.0,0.0,0.0,0.0,0.0,0.0,0.0,0.0,0.0,0.0,0.0,0.0,0.0,0.0,0.0,0.0,0.0,0.0,0.0,0.0,0.0,0.0,0.0,0.0,0.0,0.0,0.0,0.0,0.0,0.0,0.0,0.0,0.0,0.0,0.0,0.0,0.0,0.0,0.0,0.0,0.0,0.0,0.0,0.0,0.0,0.0,0.0,0.0,0.0,0.0,0.0,0.0,0.0,0.0,0.0,0.0,0.0,0.0,0.0,0.0,0.0,0.0,0.0,0.0,0.0,0.0,0.0,0.0,0.0,0.0,0.0,0.0,0.0,0.0,0.0,0.0,0.0,0.0,0.0,0.0,-3.8413,-4.8862,-5.727,-6.0702,-6.017,-5.9067,-5.7916,-5.6371,-5.2489,-4.5656,0.0,0.0,0.0,0.0,0.0,0.0,0.0,0.0,0.0,0.0,0.0,0.0,0.0,0.0,0.0,0.0,0.0,0.0,0.0,0.0,0.0,0.0,0.0,0.0,0.0,0.0,0.0,0.0,0.0,0.0,0.0,0.0,0.0,0.0,0.0,0.0,0.0,0.0,0.0,0.0,0.0,0.0,0.0,0.0,0.0,0.0,0.0,0.0,0.0,0.0,0.0,0.0,0.0,0.0,0.0,0.0,0.0,0.0,0.0,0.0,0.0,0.0,0.0,0.0,0.0,0.0,0.0,0.0,0.0,0.0,0.0,0.0,0.0,0.0,0.0,0.0,0.0,0.0,0.0,0.0,0.0,0.0,0.0,0.0,0.0,0.0,0.0,0.0,0.0,0.0,0.0,0.0,0.0,0.0,0.0,0.0,0.0,0.0,0.0,0.0,0.0,0.0,-3.8306,-4.8707,-5.6287,-5.7957,-5.6311,-5.4418,-5.2687,-5.0834,-4.6009,-3.7211,0.0,0.0,0.0,0.0,0.0,0.0,0.0,0.0,0.0,0.0,0.0,0.0,0.0,0.0,0.0,0.0,0.0,0.0,0.0,0.0,0.0,0.0,0.0,0.0,0.0,0.0,0.0,0.0,0.0,0.0,0.0,0.0,0.0,0.0,0.0,0.0,0.0,0.0,0.0,0.0,0.0,0.0,0.0,0.0,0.0,0.0,0.0,0.0,0.0,0.0,0.0,0.0,0.0,0.0,0.0,0.0,0.0,0.0,0.0,0.0,0.0,0.0,0.0,0.0,0.0,0.0,0.0,0.0,0.0,0.0,0.0,0.0,0.0,0.0,0.0,0.0,0.0,0.0,0.0,0.0,0.0,0.0,0.0,0.0,0.0,0.0,0.0,0.0,0.0,0.0,0.0,0.0,0.0,0.0,0.0,0.0,0.0,0.0,0.0,0.0,0.0,0.0,-3.8882,-4.8461,-5.4965,-5.5516,-5.3227,-5.0527,-4.7786,-4.5983,-4.0704,-3.0511,0.0,0.0,0.0,0.0,0.0,0.0,0.0,0.0,0.0,0.0,0.0,0.0,0.0,0.0,0.0,0.0,0.0,0.0,0.0,0.0,0.0,0.0,0.0,0.0,0.0,0.0,0.0,0.0,0.0,0.0,0.0,0.0,0.0,0.0,0.0,0.0,0.0,0.0,0.0,0.0,0.0,0.0,0.0,0.0,0.0,0.0,0.0,0.0,0.0,0.0,0.0,0.0,0.0,0.0,0.0,0.0,0.0,0.0,0.0,0.0,0.0,0.0,0.0,0.0,0.0,0.0,0.0,0.0,0.0,0.0,0.0,0.0,0.0,0.0,0.0,0.0,0.0,0.0,0.0,0.0,0.0,0.0,0.0,0.0,0.0,0.0,0.0,0.0,0.0,0.0,0.0,0.0,0.0,0.0,0.0,0.0,0.0,0.0,0.0,0.0,0.0,0.0,-4.0453,-4.7717,-5.2825,-5.4096,-5.145,-4.7868,-4.3587,-4.2618,-3.776,0.0,0.0,0.0,0.0,0.0,0.0,0.0,0.0,0.0,0.0,0.0,0.0,0.0,0.0,0.0,0.0,0.0,0.0,0.0,0.0,0.0,0.0,0.0,0.0,0.0,0.0,0.0,0.0,0.0,0.0,0.0,0.0,0.0,0.0,0.0,0.0,0.0,0.0,0.0,0.0,0.0,0.0,0.0,0.0,0.0,0.0,0.0,0.0,0.0,0.0,0.0,0.0,0.0,0.0,0.0,0.0,0.0,0.0,0.0,0.0,0.0,0.0,0.0,0.0,0.0,0.0,0.0,0.0,0.0,0.0,0.0,0.0,0.0,0.0,0.0,0.0,0.0,0.0,0.0,0.0,0.0,0.0,0.0,0.0,0.0,0.0,0.0,0.0,0.0,0.0,0.0,0.0,0.0,0.0,0.0,0.0,0.0,0.0,0.0,0.0,0.0,0.0,0.0,-4.034,-4.5721,-4.9496,0.0,-4.894,-4.5074,-4.0269,-3.9396,-3.5316,-2.6473,0.0,0.0,0.0,0.0,0.0,0.0,0.0,0.0,0.0,0.0,0.0,0.0,0.0,0.0,0.0,0.0,0.0,0.0,0.0,0.0,0.0,0.0,0.0,0.0,0.0,0.0,0.0,0.0,0.0,0.0,0.0,0.0,0.0,0.0,0.0,0.0,0.0,0.0,0.0,0.0,0.0,0.0,0.0,0.0,0.0,0.0,0.0,0.0,0.0,0.0,0.0,0.0,0.0,0.0,0.0,0.0,0.0,0.0,0.0,0.0,0.0,0.0,0.0,0.0,0.0,0.0,0.0,0.0,0.0,0.0,0.0,0.0,0.0,0.0,0.0,0.0,0.0,0.0,0.0,0.0,0.0,0.0,0.0,0.0,0.0,0.0,0.0,0.0,0.0,0.0,0.0,0.0,0.0,0.0,0.0,0.0,0.0,0.0,0.0,0.0,0.0,0.0,0.0,-4.5341,-4.8893,0.0,-4.6675,-4.2966,-3.8291,-3.7326,-3.387,-2.6385,0.0,0.0,0.0,0.0,0.0,0.0,0.0,0.0,0.0,0.0,0.0,0.0,0.0,0.0,0.0,0.0,0.0,0.0,0.0,0.0,0.0,0.0,0.0,0.0,0.0,0.0,0.0,0.0,0.0,0.0,0.0,0.0,0.0,0.0,0.0,0.0,0.0,0.0,0.0,0.0,0.0,0.0,0.0,0.0,0.0,0.0,0.0,0.0,0.0,0.0,0.0,0.0,0.0,0.0,0.0,0.0,0.0,0.0,0.0,0.0,0.0,0.0,0.0,0.0,0.0,0.0,0.0,0.0,0.0,0.0,0.0,0.0,0.0,0.0,0.0,0.0,0.0,0.0,0.0,0.0,0.0,0.0,0.0,0.0,0.0,0.0,0.0,0.0,0.0,0.0,0.0,0.0,0.0,0.0,0.0,0.0,0.0,0.0,0.0,0.0,0.0,0.0,0.0,-4.6158,-4.9861,-4.7095,-4.4488,-4.1298,-3.7106,-3.6252,-3.3115,-2.6801,-2.6826,0.0,0.0,0.0,0.0,0.0,0.0,0.0,0.0,0.0,0.0,0.0,0.0,0.0,0.0,0.0,0.0,0.0,0.0,0.0,0.0,0.0,0.0,0.0,0.0,0.0,0.0,0.0,0.0,0.0,0.0,0.0,0.0,0.0,0.0,0.0,0.0,0.0,0.0,0.0,0.0,0.0,0.0,0.0,0.0,0.0,0.0,0.0,0.0,0.0,0.0,0.0,0.0,0.0,0.0,0.0,0.0,0.0,0.0,0.0,0.0,0.0,0.0,0.0,0.0,0.0,0.0,0.0,0.0,0.0,0.0,0.0,0.0,0.0,0.0,0.0,0.0,0.0,0.0,0.0,0.0,0.0,0.0,0.0,0.0,0.0,0.0,0.0,0.0,0.0,0.0,0.0,0.0,0.0,0.0,0.0,0.0,0.0,0.0,0.0,0.0,0.0,0.0,-4.4983,-4.4943,-4.454,-4.2277,-3.8811,-3.3868,-3.427,-3.2302,-2.6367,-2.6037,0.0,0.0,0.0,0.0,0.0,0.0,0.0,0.0,0.0,0.0,0.0,0.0,0.0,0.0,0.0,0.0,0.0,0.0,0.0,0.0,0.0,0.0,0.0,0.0,0.0,0.0,0.0,0.0,0.0,0.0,0.0,0.0,0.0,0.0,0.0,0.0,0.0,0.0,0.0,0.0,0.0,0.0,0.0,0.0,0.0,0.0,0.0,0.0,0.0,0.0,0.0,0.0,0.0,0.0,0.0,0.0,0.0,0.0,0.0,0.0,0.0,0.0,0.0,0.0,0.0,0.0,0.0,0.0,0.0,0.0,0.0,0.0,0.0,0.0,0.0,0.0,0.0,0.0,0.0,0.0,0.0,0.0,0.0,0.0,0.0,0.0,0.0,0.0,0.0,0.0,0.0,0.0,0.0,0.0,0.0,0.0,0.0,0.0,0.0,0.0,0.0,0.0,-3.9071,-4.0144,-4.2606,-4.0831,-3.7709,-3.3159,-3.3393,-3.1751,-2.6856,-2.5441,0.0,0.0,0.0,0.0,0.0,0.0,0.0,0.0,0.0,0.0,0.0,0.0,0.0,0.0,0.0,0.0,0.0,0.0,0.0,0.0,0.0,0.0,0.0,0.0,0.0,0.0,0.0,0.0,0.0,0.0,0.0,0.0,0.0,0.0,0.0,0.0,0.0,0.0,0.0,0.0,0.0,0.0,0.0,0.0,0.0,0.0,0.0,0.0,0.0,0.0,0.0,0.0,0.0,0.0,0.0,0.0,0.0,0.0,0.0,0.0,0.0,0.0,0.0,0.0,0.0,0.0,0.0,0.0,0.0,0.0,0.0,0.0,0.0,0.0,0.0,0.0,0.0,0.0,0.0,0.0,0.0,0.0,0.0,0.0,0.0,0.0,0.0,0.0,0.0,0.0,0.0,0.0,0.0,0.0,0.0,0.0,0.0,0.0,0.0,0.0,0.0,0.0,0.0,-3.7024,-4.0615,-3.9201,-3.6623,-3.3026,-3.2635,-3.0935,-2.7117,0.0,0.0,0.0,0.0,0.0,0.0,0.0,0.0,0.0,0.0,0.0,0.0,0.0,0.0,0.0,0.0,0.0,0.0,0.0,0.0,0.0,0.0,0.0,0.0,0.0,0.0,0.0,0.0,0.0,0.0,0.0,0.0,0.0,0.0,0.0,0.0,0.0,0.0,0.0,0.0,0.0,0.0,0.0,0.0,0.0,0.0,0.0,0.0,0.0,0.0,0.0,0.0,0.0,0.0,0.0,0.0,0.0,0.0,0.0,0.0,0.0,0.0,0.0,0.0,0.0,0.0,0.0,0.0,0.0,0.0,0.0,0.0,0.0,0.0,0.0,0.0,0.0,0.0,0.0,0.0,0.0,0.0,0.0,0.0,0.0,0.0,0.0,0.0,0.0,0.0,0.0,0.0,0.0,0.0,0.0,0.0,0.0,0.0,0.0,0.0,0.0,0.0,0.0,0.0,0.0,-3.7743,-3.5501,-3.2879,-2.9721,-2.9951,-2.8639,-2.4659,0.0,0.0,0.0,0.0,0.0,0.0,0.0,0.0,0.0,0.0,0.0,0.0,0.0,0.0]}]]]